[[{"header":{"parameterUnit":"m.s-1","parameterCategory":1,"la1":30.6,"la2":28.766,"lo1":-90.7593,"lo2":-88.6598,"dx":0.0162,"dy":0.0183,"nx":116,"ny":114,"refTime":"2022-12-12T18:00:00:Z","depth":0,"parameterNumber":2,"parameterNumberName":"U-component_of_WINDS"},"data":[0.0,0.0,0.0,0.0,0.0,0.0,0.0,0.0,0.0,0.0,0.0,0.0,0.0,0.0,0.0,0.0,0.0,0.0,0.0,0.0,0.0,0.0,0.0,0.0,0.0,0.0,0.0,0.0,0.0,0.0,0.0,0.0,0.0,0.0,0.0,0.0,0.0,0.0,0.0,0.0,0.0,0.0,0.0,0.0,0.0,0.0,0.0,0.0,0.0,0.0,0.0,0.0,0.0,0.0,0.0,0.0,0.0,0.0,0.0,0.0,0.0,0.0,0.0,0.0,0.0,0.0,0.0,0.0,0.0,0.0,0.0,0.0,0.0,0.0,0.0,0.0,0.0,0.0,0.0,0.0,0.0,0.0,0.0,0.0,0.0,0.0,0.0,0.0,0.0,0.0,0.0,0.0,0.0,0.0,0.0,0.0,0.0,0.0,0.0,0.0,0.0,0.0,0.0,0.0,0.0,0.0,0.0,0.0,0.0,0.0,0.0,0.0,0.0,0.0,0.0,0.0,0.0,0.0,0.0,0.0,0.0,0.0,0.0,0.0,0.0,0.0,0.0,0.0,0.0,0.0,0.0,0.0,0.0,0.0,0.0,0.0,0.0,0.0,0.0,0.0,0.0,0.0,0.0,0.0,0.0,0.0,0.0,0.0,0.0,0.0,0.0,0.0,0.0,0.0,0.0,0.0,0.0,0.0,0.0,0.0,0.0,0.0,0.0,0.0,0.0,0.0,0.0,0.0,0.0,0.0,0.0,0.0,0.0,0.0,0.0,0.0,0.0,0.0,0.0,0.0,0.0,0.0,0.0,0.0,0.0,0.0,0.0,0.0,0.0,0.0,0.0,0.0,0.0,0.0,0.0,0.0,0.0,0.0,0.0,0.0,0.0,0.0,0.0,0.0,0.0,0.0,0.0,0.0,0.0,0.0,0.0,0.0,0.0,0.0,0.0,0.0,0.0,0.0,0.0,0.0,0.0,0.0,0.0,0.0,0.0,0.0,0.0,0.0,0.0,0.0,0.0,0.0,0.0,0.0,0.0,0.0,0.0,0.0,0.0,0.0,0.0,0.0,0.0,0.0,0.0,0.0,0.0,0.0,0.0,0.0,0.0,0.0,0.0,0.0,0.0,0.0,0.0,0.0,0.0,0.0,0.0,0.0,0.0,0.0,0.0,0.0,0.0,0.0,0.0,0.0,0.0,0.0,0.0,0.0,0.0,0.0,0.0,0.0,0.0,0.0,0.0,0.0,0.0,0.0,0.0,0.0,0.0,0.0,0.0,0.0,0.0,0.0,0.0,0.0,0.0,0.0,0.0,0.0,0.0,0.0,0.0,0.0,0.0,0.0,0.0,0.0,0.0,0.0,0.0,0.0,0.0,0.0,0.0,0.0,0.0,0.0,0.0,0.0,0.0,0.0,0.0,0.0,0.0,0.0,0.0,0.0,0.0,0.0,0.0,0.0,0.0,0.0,0.0,0.0,0.0,0.0,0.0,0.0,0.0,0.0,0.0,0.0,0.0,0.0,0.0,0.0,0.0,0.0,0.0,0.0,0.0,0.0,0.0,0.0,0.0,0.0,0.0,0.0,0.0,0.0,0.0,0.0,0.0,0.0,0.0,0.0,0.0,0.0,0.0,0.0,0.0,0.0,0.0,0.0,0.0,0.0,0.0,0.0,0.0,0.0,0.0,0.0,0.0,0.0,0.0,0.0,0.0,0.0,0.0,0.0,0.0,0.0,0.0,0.0,0.0,0.0,0.0,0.0,0.0,0.0,0.0,0.0,0.0,0.0,0.0,0.0,0.0,0.0,0.0,0.0,0.0,0.0,0.0,0.0,0.0,0.0,0.0,0.0,0.0,0.0,0.0,0.0,0.0,0.0,0.0,0.0,0.0,0.0,0.0,0.0,0.0,0.0,0.0,0.0,0.0,0.0,0.0,0.0,0.0,0.0,0.0,0.0,0.0,0.0,0.0,0.0,0.0,0.0,0.0,0.0,0.0,0.0,0.0,0.0,0.0,0.0,0.0,0.0,0.0,0.0,0.0,0.0,0.0,0.0,0.0,0.0,0.0,0.0,0.0,0.0,0.0,0.0,0.0,0.0,0.0,0.0,0.0,0.0,0.0,0.0,0.0,0.0,0.0,0.0,0.0,0.0,0.0,0.0,0.0,0.0,0.0,0.0,0.0,0.0,0.0,0.0,0.0,0.0,0.0,0.0,0.0,0.0,0.0,0.0,0.0,0.0,0.0,0.0,0.0,0.0,0.0,0.0,0.0,0.0,0.0,0.0,0.0,0.0,0.0,0.0,0.0,0.0,0.0,0.0,0.0,0.0,0.0,0.0,0.0,0.0,0.0,0.0,0.0,0.0,0.0,0.0,0.0,0.0,0.0,0.0,0.0,0.0,0.0,0.0,0.0,0.0,0.0,0.0,0.0,0.0,0.0,0.0,0.0,0.0,0.0,0.0,0.0,0.0,0.0,0.0,0.0,0.0,0.0,0.0,0.0,0.0,0.0,0.0,0.0,0.0,0.0,0.0,0.0,0.0,0.0,0.0,0.0,0.0,0.0,0.0,0.0,0.0,0.0,0.0,0.0,0.0,0.0,0.0,0.0,0.0,0.0,0.0,0.0,0.0,0.0,0.0,0.0,0.0,0.0,0.0,0.0,0.0,0.0,0.0,0.0,0.0,0.0,0.0,0.0,0.0,0.0,0.0,0.0,0.0,0.0,0.0,0.0,0.0,0.0,0.0,0.0,0.0,0.0,0.0,0.0,0.0,0.0,0.0,0.0,0.0,0.0,0.0,0.0,0.0,0.0,0.0,0.0,0.0,0.0,0.0,0.0,0.0,0.0,0.0,0.0,0.0,0.0,0.0,0.0,0.0,0.0,0.0,0.0,0.0,0.0,0.0,0.0,0.0,0.0,0.0,0.0,0.0,0.0,0.0,0.0,0.0,0.0,0.0,0.0,0.0,0.0,0.0,0.0,0.0,0.0,0.0,0.0,0.0,0.0,0.0,0.0,0.0,0.0,0.0,0.0,0.0,0.0,0.0,0.0,0.0,0.0,0.0,0.0,0.0,0.0,0.0,0.0,0.0,0.0,0.0,0.0,0.0,0.0,0.0,0.0,0.0,0.0,0.0,0.0,0.0,0.0,0.0,0.0,0.0,0.0,0.0,0.0,0.0,0.0,0.0,0.0,0.0,0.0,0.0,0.0,0.0,0.0,0.0,0.0,0.0,0.0,0.0,0.0,0.0,0.0,0.0,0.0,0.0,0.0,0.0,0.0,0.0,0.0,0.0,0.0,0.0,0.0,0.0,0.0,0.0,0.0,0.0,0.0,0.0,0.0,0.0,0.0,0.0,0.0,0.0,0.0,0.0,0.0,0.0,0.0,0.0,0.0,0.0,0.0,0.0,0.0,0.0,0.0,0.0,0.0,0.0,0.0,0.0,0.0,0.0,0.0,0.0,0.0,0.0,0.0,0.0,0.0,0.0,0.0,0.0,0.0,0.0,0.0,0.0,0.0,0.0,0.0,0.0,0.0,0.0,0.0,0.0,0.0,0.0,0.0,0.0,0.0,0.0,0.0,0.0,0.0,0.0,0.0,0.0,0.0,0.0,0.0,0.0,0.0,0.0,0.0,0.0,0.0,0.0,0.0,0.0,0.0,0.0,0.0,0.0,0.0,0.0,0.0,0.0,0.0,0.0,0.0,0.0,0.0,0.0,0.0,0.0,0.0,0.0,0.0,0.0,0.0,0.0,0.0,0.0,0.0,0.0,0.0,0.0,0.0,0.0,0.0,0.0,0.0,0.0,0.0,0.0,0.0,0.0,0.0,0.0,0.0,0.0,0.0,0.0,0.0,0.0,0.0,0.0,0.0,0.0,0.0,0.0,0.0,0.0,0.0,0.0,0.0,0.0,0.0,0.0,0.0,0.0,0.0,0.0,0.0,0.0,0.0,0.0,0.0,0.0,0.0,0.0,0.0,0.0,0.0,0.0,0.0,0.0,0.0,0.0,0.0,0.0,0.0,0.0,0.0,0.0,0.0,0.0,0.0,0.0,0.0,0.0,0.0,0.0,0.0,0.0,0.0,0.0,0.0,0.0,0.0,0.0,0.0,0.0,0.0,0.0,0.0,0.0,0.0,0.0,0.0,0.0,0.0,0.0,0.0,0.0,0.0,0.0,0.0,0.0,0.0,0.0,0.0,0.0,0.0,0.0,0.0,0.0,0.0,0.0,0.0,0.0,0.0,0.0,0.0,0.0,0.0,0.0,0.0,0.0,0.0,0.0,0.0,0.0,0.0,0.0,0.0,0.0,0.0,0.0,0.0,0.0,0.0,0.0,0.0,0.0,0.0,0.0,0.0,0.0,0.0,0.0,0.0,0.0,0.0,0.0,0.0,0.0,0.0,0.0,0.0,0.0,0.0,0.0,0.0,0.0,0.0,0.0,0.0,0.0,0.0,0.0,0.0,0.0,0.0,0.0,0.0,0.0,0.0,0.0,0.0,0.0,0.0,0.0,0.0,0.0,0.0,0.0,0.0,0.0,0.0,0.0,0.0,0.0,0.0,0.0,0.0,0.0,0.0,0.0,0.0,0.0,0.0,0.0,0.0,0.0,0.0,0.0,0.0,0.0,0.0,0.0,0.0,0.0,0.0,0.0,0.0,0.0,0.0,0.0,0.0,0.0,0.0,0.0,0.0,0.0,0.0,0.0,0.0,0.0,0.0,0.0,0.0,0.0,0.0,0.0,0.0,0.0,0.0,0.0,0.0,0.0,0.0,0.0,0.0,0.0,0.0,0.0,0.0,0.0,0.0,0.0,0.0,0.0,0.0,0.0,0.0,0.0,0.0,0.0,0.0,0.0,0.0,0.0,0.0,0.0,0.0,0.0,0.0,0.0,0.0,0.0,0.0,0.0,0.0,0.0,0.0,0.0,0.0,0.0,0.0,0.0,0.0,0.0,0.0,0.0,0.0,0.0,0.0,0.0,0.0,0.0,0.0,0.0,0.0,0.0,0.0,0.0,0.0,0.0,0.0,0.0,0.0,0.0,0.0,0.0,0.0,0.0,0.0,0.0,0.0,0.0,0.0,0.0,0.0,0.0,0.0,0.0,0.0,0.0,0.0,0.0,0.0,0.0,0.0,0.0,0.0,0.0,0.0,0.0,0.0,0.0,0.0,0.0,0.0,0.0,0.0,0.0,0.0,0.0,0.0,0.0,0.0,0.0,0.0,0.0,0.0,0.0,0.0,0.0,0.0,0.0,0.0,0.0,0.0,0.0,0.0,0.0,0.0,0.0,0.0,0.0,0.0,0.0,0.0,0.0,0.0,0.0,0.0,0.0,0.0,0.0,0.0,0.0,0.0,0.0,0.0,0.0,0.0,0.0,0.0,0.0,0.0,0.0,0.0,0.0,0.0,0.0,0.0,0.0,0.0,0.0,0.0,0.0,0.0,0.0,0.0,0.0,0.0,0.0,0.0,0.0,0.0,0.0,0.0,0.0,0.0,0.0,0.0,0.0,0.0,0.0,0.0,0.0,0.0,0.0,0.0,0.0,0.0,0.0,0.0,0.0,0.0,0.0,0.0,0.0,0.0,0.0,0.0,0.0,0.0,0.0,0.0,0.0,0.0,0.0,0.0,0.0,0.0,0.0,0.0,0.0,0.0,0.0,0.0,0.0,0.0,0.0,0.0,0.0,0.0,0.0,0.0,0.0,0.0,0.0,0.0,0.0,0.0,0.0,0.0,0.0,0.0,0.0,0.0,0.0,0.0,0.0,0.0,0.0,0.0,0.0,0.0,0.0,0.0,0.0,0.0,0.0,0.0,0.0,0.0,0.0,0.0,0.0,0.0,0.0,0.0,0.0,0.0,0.0,0.0,0.0,0.0,0.0,0.0,0.0,0.0,0.0,0.0,0.0,0.0,0.0,0.0,0.0,0.0,0.0,0.0,0.0,0.0,0.0,0.0,0.0,0.0,0.0,0.0,0.0,0.0,0.0,0.0,0.0,0.0,0.0,0.0,0.0,0.0,0.0,0.0,0.0,0.0,0.0,0.0,0.0,0.0,0.0,0.0,0.0,0.0,0.0,0.0,0.0,0.0,0.0,0.0,0.0,-6.5081,-6.0913,0.0,0.0,0.0,0.0,0.0,0.0,0.0,0.0,0.0,0.0,0.0,0.0,0.0,0.0,0.0,0.0,0.0,0.0,0.0,0.0,0.0,0.0,0.0,0.4511,0.3258,0.028,-0.0,0.0,0.0,0.0,0.0,0.0,0.0,0.0,0.0,0.0,-0.4714,-0.5013,-0.5454,-0.6352,-0.7756,-0.8395,-0.9496,-1.0985,0.0,0.0,0.0,0.0,0.0,0.0,0.0,0.0,0.0,0.0,0.0,0.0,0.0,0.0,0.0,0.0,0.0,0.0,0.0,0.0,0.0,0.0,0.0,0.0,0.0,0.0,0.0,0.0,0.0,0.0,0.0,0.0,0.0,0.0,0.0,0.0,0.0,0.0,0.0,0.0,0.0,0.0,0.0,0.0,0.0,0.0,0.0,0.0,0.0,0.0,0.0,0.0,0.0,0.0,0.0,0.0,0.0,0.0,0.0,0.0,0.0,0.0,0.0,0.0,0.0,0.0,0.0,0.0,0.0,0.0,-6.9449,-6.6706,0.0,0.0,0.0,0.0,0.0,0.0,0.0,0.0,0.0,0.0,0.0,0.0,0.0,0.0,0.0,0.0,0.0,0.0,0.0,0.0,0.0,0.4212,0.4488,0.4038,0.2732,0.023,-0.0,-0.0228,-0.0741,-0.2841,0.0,0.0,0.0,0.0,-0.456,-0.4674,-0.5026,-0.5624,-0.6369,-0.7743,-0.9634,-1.0048,-1.0762,-1.1958,-1.2708,0.0,0.0,0.0,0.0,0.0,0.0,0.0,0.0,0.0,0.0,0.0,0.0,0.0,0.0,0.0,0.0,0.0,0.0,0.0,0.0,0.0,0.0,0.0,0.0,0.0,0.0,0.0,0.0,0.0,0.0,0.0,0.0,0.0,0.0,0.0,0.0,0.0,0.0,0.0,0.0,0.0,0.0,0.0,0.0,0.0,0.0,0.0,0.0,0.0,0.0,0.0,0.0,0.0,0.0,0.0,0.0,0.0,0.0,0.0,0.0,0.0,0.0,0.0,-7.1872,-7.2202,-7.2239,-7.3193,-7.5432,-7.8369,-7.4368,-7.3744,-7.5028,-6.8348,0.0,0.0,0.0,0.0,0.0,0.0,0.0,0.0,0.0,0.0,0.0,0.0,0.0,0.0,0.0,0.0,0.0,0.0,0.0,0.2997,0.4339,0.2167,0.0419,0.0063,-0.0,-0.1098,-0.3732,-0.3027,0.0,0.0,0.0,0.0,-0.466,-0.4931,-0.5481,-0.6329,-0.797,-0.9099,-0.9641,-1.1105,-1.2592,-1.4361,-1.409,-1.5101,-1.7121,0.0,0.0,0.0,0.0,0.0,0.0,0.0,0.0,0.0,0.0,0.0,0.0,0.0,0.0,0.0,0.0,0.0,0.0,0.0,0.0,0.0,0.0,0.0,0.0,0.0,0.0,0.0,0.0,0.0,0.0,0.0,0.0,0.0,0.0,0.0,0.0,0.0,0.0,0.0,0.0,0.0,-5.6492,-5.8217,0.0,0.0,0.0,0.0,0.0,0.0,0.0,0.0,0.0,0.0,0.0,0.0,0.0,-6.9155,-7.0991,-7.3193,-7.4625,-7.5359,-7.8919,-8.0608,-8.0645,-8.215,-8.3141,-8.3618,-8.2957,0.0,-7.8038,-7.6974,0.0,0.0,0.0,0.0,0.0,0.0,0.0,0.0,0.0,0.0,0.0,0.0,0.0,0.0,0.0,0.0,0.0,0.0,0.0,0.0,0.0,0.0816,-0.0,-0.0,-0.0,-0.1429,-0.4775,-0.4069,0.0,0.0,0.0,-0.466,-0.4816,-0.5521,-0.6573,-0.7977,-0.9191,-0.9937,-1.0243,-1.1178,-1.3012,-1.5822,-1.5638,-1.6744,-1.8861,-1.8245,0.0,0.0,0.0,0.0,0.0,0.0,0.0,0.0,0.0,0.0,0.0,0.0,0.0,0.0,0.0,0.0,0.0,0.0,0.0,0.0,0.0,0.0,0.0,0.0,0.0,0.0,0.0,0.0,0.0,0.0,0.0,0.0,0.0,0.0,0.0,0.0,0.0,0.0,0.0,-5.4492,-5.7409,-5.9024,-5.829,-5.7226,0.0,0.0,0.0,0.0,0.0,0.0,0.0,0.0,0.0,-7.1651,-7.2973,-7.4845,-7.7414,-7.8919,-8.0094,-8.0901,-8.27,-8.3544,-8.3581,-8.4756,-8.527,-8.5306,-8.5747,-8.4939,-8.3067,-7.991,-7.6717,-7.3582,0.0,0.0,0.0,0.0,-7.2122,-7.3047,0.0,0.0,0.0,0.0,0.0,0.0,0.0,0.0,0.0,0.0,0.0,0.0,0.0218,-0.0,-0.0,-0.0,-0.0,-0.1142,-0.3838,-0.4397,-0.4694,-0.4781,-0.4756,-0.487,-0.5142,-0.639,-0.7814,-0.9381,-1.01,-1.0582,-1.0839,-1.1097,-1.3295,-1.6889,-1.6813,-1.8208,-2.043,-1.9628,-1.9613,-2.0103,0.0,0.0,0.0,0.0,0.0,0.0,0.0,0.0,0.0,0.0,0.0,0.0,0.0,0.0,0.0,0.0,0.0,0.0,0.0,0.0,0.0,0.0,0.0,0.0,0.0,0.0,0.0,0.0,0.0,0.0,0.0,0.0,0.0,0.0,0.0,0.0,0.0,-5.7193,-5.9648,-6.0639,-6.1337,-6.0823,0.0,0.0,0.0,0.0,0.0,0.0,-7.0367,-7.1762,-7.3854,-7.668,-7.8148,-8.0131,-8.2774,-8.3434,-8.4022,-8.4609,-8.4792,-8.4903,-8.4939,-8.5747,-8.6114,-8.6151,-8.6738,-8.6995,-8.6701,-8.248,-8.0241,-7.9213,-7.5946,-7.4663,-7.4918,-7.6768,-7.7602,-7.8501,0.0,0.0,0.0,0.0,0.0,0.0,0.0,0.0,0.0,0.0,0.0,0.329,0.0321,-0.0,-0.0,-0.0,-0.0,-0.0093,-0.0268,-0.3137,-0.4865,-0.4798,-0.488,-0.5176,-0.5745,-0.7624,-0.9062,-1.0005,-1.0616,-1.0989,-1.1145,-1.1307,-1.3544,-1.7508,-1.7582,-1.922,-2.1854,-2.176,-2.2221,-2.284,-2.067,0.0,0.0,0.0,0.0,0.0,0.0,0.0,0.0,0.0,0.0,0.0,0.0,0.0,0.0,0.0,0.0,0.0,0.0,0.0,0.0,0.0,0.0,0.0,0.0,0.0,0.0,0.0,0.0,0.0,0.0,0.0,0.0,0.0,0.0,0.0,0.0,0.0,0.0,-6.5081,-6.7026,0.0,0.0,0.0,0.0,-6.8531,-6.9412,-7.1321,-7.4441,-7.5395,-7.7708,-8.1709,-8.2663,-8.3544,-8.4462,-8.4535,-8.4572,-8.4609,-8.538,-8.5747,-8.5747,-8.6591,-8.6958,-8.6958,-8.6995,-8.6995,-8.6995,-8.6701,-8.4792,-8.1929,-8.0938,-7.9371,-7.8096,-8.1481,-8.3437,-8.5022,0.0,0.0,0.0,0.7128,0.6362,0.5655,0.4952,0.4649,0.416,0.3127,0.3889,0.3336,0.0345,-0.0,-0.0,-0.0,-0.0,-0.0441,-0.1643,-0.2859,-0.4147,-0.5502,-0.5561,-0.6322,-0.7787,-0.8872,-0.9822,-1.0629,-1.1036,-1.1307,-1.1457,-1.1606,-1.3898,-1.7816,-1.7753,-1.981,-2.3086,-2.2875,-2.3545,-2.4488,-2.3222,-2.3166,0.0,0.0,0.0,0.0,0.0,0.0,0.0,0.0,0.0,0.0,0.0,0.0,0.0,0.0,0.0,0.0,0.0,0.0,0.0,0.0,0.0,0.0,0.0,0.0,0.0,0.0,0.0,0.0,0.0,0.0,0.0,0.0,0.0,0.0,0.0,0.0,0.0,-6.6219,-6.8678,0.0,-6.8201,-7.044,-7.2202,-7.2716,-7.5946,-7.8369,-7.9543,-8.0865,-8.226,-8.3691,-8.4022,-8.4572,-8.5343,-8.538,-8.5637,-8.6151,-8.6444,-8.6591,-8.6591,-8.6885,-8.6995,-8.6995,-8.6995,-8.6995,-8.6995,-8.6995,-8.6334,-8.527,-8.4976,-8.4669,-8.461,-8.5826,-8.7133,-8.846,0.0,0.8472,0.0,0.6416,0.5819,0.5273,0.4574,0.4474,0.4125,0.3131,0.2973,0.2223,0.0193,-0.0,-0.0,-0.0,-0.1708,-0.3236,-0.4436,-0.3626,-0.4096,-0.6316,-0.659,-0.7502,-0.9198,-0.972,-1.0344,-1.1097,-1.1348,-1.1545,-1.1694,-1.1843,-1.4024,-1.8006,-1.8006,-2.0263,-2.4048,-2.3848,-2.4818,-2.6596,-2.5165,-2.5484,-2.6692,0.0,0.0,0.0,0.0,0.0,0.0,0.0,0.0,0.0,0.0,0.0,0.0,0.0,0.0,0.0,0.0,0.0,0.0,0.0,0.0,0.0,0.0,0.0,0.0,0.0,0.0,0.0,0.0,0.0,0.0,0.0,0.0,0.0,0.0,-6.5585,-6.9229,-6.7871,-7.1027,-7.2716,-7.1101,-7.4111,-7.6497,-7.7304,-8.0608,-8.2737,-8.2994,-8.4278,-8.5013,-8.5013,-8.527,-8.5673,-8.6187,-8.6187,-8.6628,-8.7399,-8.7399,-8.7545,-8.7839,-8.7839,-8.7655,-8.7435,-8.7692,-8.7655,-8.7435,-8.7729,-8.7839,-8.7766,-8.7215,-8.746,-8.8107,-8.8107,-8.9114,-9.0618,0.8739,0.8093,0.7246,0.5764,0.5492,0.5273,0.4588,0.4454,0.4415,0.4476,0.1855,-0.0,-0.0,-0.0,-0.0,-0.0,-0.495,-0.7993,-0.7945,-0.5579,-0.5014,-0.7073,-0.7764,-0.8655,-0.9815,-1.0154,-1.067,-1.1396,-1.1552,-1.1701,-1.185,-1.1999,-1.4364,-1.8239,-1.8239,-2.0603,-2.4636,-2.4636,-2.6415,-2.9088,-2.6579,-2.7973,-3.1175,0.0,0.0,0.0,0.0,0.0,0.0,0.0,0.0,0.0,0.0,0.0,0.0,0.0,0.0,0.0,0.0,0.0,0.0,0.0,0.0,0.0,0.0,0.0,0.0,0.0,0.0,0.0,0.0,0.0,0.0,0.0,0.0,0.0,-6.5663,-6.8945,-7.1211,-7.0403,-7.4515,-7.679,-7.5285,-7.8699,-8.1379,-8.2223,-8.303,-8.3838,-8.4609,-8.538,-8.582,-8.582,-8.6591,-8.7031,-8.7031,-8.7031,-8.7435,-8.8243,-8.8243,-8.8647,-8.9417,-8.9417,-8.8977,-8.828,-8.9087,-8.8977,-8.8316,-8.9087,-8.9417,-8.9271,-8.7692,-8.7534,-8.812,-8.812,-8.9512,-9.161,0.8884,0.7935,0.6931,0.5919,0.5194,0.4739,0.4532,0.3555,0.3201,0.4382,0.1862,-0.0,-0.0,-0.0,-0.0,-0.0,-0.495,-0.7939,-0.7962,-0.7265,-0.7178,-0.7746,-0.897,-0.9863,-1.0297,-1.0819,-1.124,-1.1558,-1.1701,-1.1904,-1.2162,-1.221,-1.4549,-1.8471,-1.8471,-2.0773,-2.4636,-2.6064,-2.7946,-2.993,-2.8952,-2.9665,-3.158,0.0,0.0,0.0,0.0,0.0,0.0,0.0,0.0,0.0,0.0,0.0,0.0,0.0,0.0,0.0,0.0,0.0,0.0,0.0,0.0,0.0,0.0,0.0,0.0,0.0,0.0,0.0,0.0,0.0,0.0,0.0,-6.6459,-7.048,-6.9068,-7.2778,-7.5579,-7.5359,-7.7561,-7.9396,-8.0131,-8.1195,-8.2443,-8.3838,-8.4682,-8.5233,-8.5453,-8.6224,-8.6664,-8.6664,-8.6885,-8.7288,-8.7876,-8.7876,-8.828,-8.9087,-8.9087,-8.9197,-8.9417,-8.9417,-8.9307,-8.9087,-8.9307,-8.9271,-8.9087,-8.9344,-8.9417,-8.9381,-8.894,-8.886,-8.903,-8.903,-8.9793,-9.0944,0.8488,0.74,0.6392,0.5505,0.4962,0.4572,0.4522,0.3742,0.3029,0.2678,0.11,-0.0,-0.0,-0.0,-0.0,-0.0,-0.2825,-0.5654,-0.7829,-0.7504,-0.7767,-0.8884,-0.9747,-1.0466,-1.086,-1.1274,-1.1558,-1.1708,-1.1918,-1.2115,-1.2291,-1.2352,-1.4541,-1.8572,-1.8572,-2.0841,-2.4784,-2.6648,-2.8629,-3.0293,-3.0937,-3.1889,-3.3421,-3.5435,-3.538,-3.4313,-3.6626,-3.7814,-3.8397,-3.8505,0.0,0.0,0.0,0.0,0.0,0.0,0.0,0.0,0.0,0.0,0.0,0.0,0.0,0.0,0.0,0.0,0.0,0.0,0.0,0.0,0.0,0.0,0.0,0.0,-7.0734,-7.4514,-7.4259,-7.658,-7.8479,-7.8809,-8.0021,-8.1305,-8.259,-8.2994,-8.3728,-8.5013,-8.5527,-8.593,-8.6261,-8.6738,-8.7142,-8.7509,-8.7509,-8.7912,-8.8683,-8.872,-8.9124,-8.9931,-8.9931,-9.0078,-9.0408,-9.0408,-9.0225,-8.9931,-9.0262,-9.0225,-8.9931,-9.0298,-9.0408,-9.0335,0.0,0.0,0.0,0.0,-9.1137,-9.1733,0.784,0.6819,0.5796,0.488,0.4793,0.4676,0.4324,0.4397,0.345,0.036,-0.0,-0.0,-0.0,-0.0,-0.0,-0.0,-0.0,-0.2,-0.678,-0.6448,-0.7334,-1.0143,-1.0378,-1.0724,-1.1402,-1.1565,-1.1721,-1.1884,-1.2155,-1.2298,-1.2318,-1.2748,-1.4935,-1.8572,-1.8874,-2.0991,-2.4784,-2.6925,-2.8772,-3.0451,-3.2595,-3.4246,-3.5672,-3.7126,-3.7384,-3.7174,-3.912,-3.9956,-4.0265,-4.0526,0.0,0.0,0.0,0.0,0.0,0.0,0.0,0.0,0.0,0.0,0.0,0.0,0.0,0.0,0.0,0.0,0.0,0.0,0.0,0.0,0.0,0.0,0.0,0.0,-7.4797,-7.8134,-7.9837,-8.0131,-8.0424,-8.1048,-8.1929,-8.2774,-8.3618,-8.4315,-8.5086,-8.5857,-8.593,-8.6297,-8.7105,-8.7142,0.0,0.0,0.0,-8.872,-8.9564,-8.9564,-8.9968,-9.0739,-9.0739,-9.1106,-9.1803,-9.1803,-9.14,-9.0776,-9.1473,-9.14,-9.0812,-9.162,-9.1987,-9.1913,-9.0298,-8.9674,-8.9923,-9.1964,-9.2712,-9.3046,0.796,0.7084,0.6075,0.5171,0.4897,0.4333,0.2863,0.368,0.3444,0.0362,-0.0,-0.0,-0.0,-0.0,-0.0,-0.0,-0.0,-0.0478,-0.1513,-0.3389,-0.6398,-1.0856,-1.1035,-1.1321,-1.1572,-1.1714,-1.1925,-1.2203,-1.2257,-1.2345,-1.2461,-1.416,-1.6294,-1.8723,-2.0241,-2.236,-2.477,-2.8326,-3.0026,-3.0593,-3.402,-3.5685,-3.6245,-3.9217,-4.0397,-4.066,-4.3741,-4.4911,-4.5234,-4.6518,-4.6264,-4.5553,-4.6868,-4.6062,0.0,0.0,0.0,0.0,0.0,0.0,0.0,0.0,0.0,0.0,0.0,0.0,0.0,0.0,0.0,0.0,0.0,0.0,0.0,-7.1621,-7.5943,-7.9667,-8.1497,-8.2296,-8.2517,-8.2039,-8.3251,-8.4462,-8.527,-8.549,-8.5894,-8.6701,-8.6775,-8.7142,-8.7912,-8.7986,-8.8353,-8.916,-8.9197,-8.9564,-9.0372,-9.0372,-9.0776,-9.1583,-9.1583,0.0,-9.1803,-9.1803,-9.173,-9.1583,-9.173,-9.1693,-9.162,-9.2501,-9.3235,-9.3639,-9.1987,-9.1326,-9.1398,-9.1827,-9.2003,-9.235,0.8195,0.6972,0.5739,0.5212,0.5094,0.4734,0.3537,0.2753,0.1732,0.0179,-0.0,-0.0,-0.0,-0.0,-0.0,-0.0,-0.0,-0.0,-0.0,-0.1241,-0.3886,-0.8272,-1.0448,-1.1599,-1.1721,-1.1945,-1.2135,-1.2291,-1.2359,-1.2433,-1.2501,-1.4629,-1.6599,-1.8723,-2.0692,-2.2657,-2.4918,-2.8613,-3.031,-3.0593,-3.4452,-3.6539,-3.7575,-4.0148,-4.1181,-4.1693,-4.5037,-4.6301,-4.656,-4.8099,-4.8464,-4.8548,-5.015,-4.9538,-4.7875,0.0,0.0,0.0,0.0,0.0,0.0,0.0,0.0,0.0,0.0,0.0,0.0,0.0,0.0,-6.3396,-6.4884,0.0,-7.2337,-7.52,-7.8531,-8.136,-8.3148,-8.4095,-8.4315,-8.3508,-8.4462,-8.5343,-8.5747,-8.6151,-8.6591,-8.6995,-8.7362,-8.7766,-8.8169,-8.8573,-8.9197,-9.0005,-9.0005,-9.0408,-9.1179,-9.1216,-9.14,-9.1803,-9.1803,-9.1803,-9.1803,-9.2244,-9.2464,-9.2464,-9.2868,-9.3051,-9.3088,-9.3529,-9.3932,-9.4226,-9.3382,-9.3051,-9.3161,-9.385,-9.4142,-9.4435,0.8165,0.6689,0.5359,0.5216,0.5029,0.486,0.4683,0.1998,-0.0,-0.0,-0.0742,-0.1179,-0.1181,-0.1192,-0.0861,-0.0106,-0.0,-0.0,-0.0,-0.1381,-0.3316,-0.5679,-0.9557,-1.1755,-1.187,-1.2149,-1.2305,-1.2332,-1.2447,-1.2501,-1.2501,-1.4935,-1.7056,-1.8723,-2.1141,-2.3116,-2.4918,-2.8613,-3.031,-3.0593,-3.4452,-3.7059,-3.8729,-4.0537,-4.1437,-4.2074,-4.5159,-4.6301,-4.6541,-4.83,-4.9734,-5.1044,-5.2857,-5.2729,-5.1626,-4.9855,-4.8893,0.0,0.0,0.0,0.0,0.0,0.0,0.0,0.0,-5.8761,-6.052,-6.2956,-6.4986,-6.6914,-6.8842,-7.1908,-7.5218,-7.878,-8.1021,-8.2941,-8.4609,-8.538,-8.56,-8.5123,-8.5637,-8.604,-8.604,-8.6628,-8.7068,-8.7215,-8.7839,-8.8353,-8.8647,-8.9307,-9.0005,-9.0812,-9.0849,-9.1143,-9.1803,-9.1803,-9.1803,-9.1803,-9.1803,-9.1877,-9.206,-9.2794,-9.3198,-9.3382,-9.4006,-9.4373,-9.452,-9.452,-9.463,-9.4777,-9.4777,-9.4777,-9.489,-9.5742,-9.6051,-9.6325,0.7241,0.6249,0.5521,0.5379,0.4089,0.3535,0.5092,0.2252,-0.0,-0.0,-0.3304,-0.558,-0.5601,-0.5647,-0.4043,-0.0305,-0.0,-0.0,-0.0,-0.6477,-0.8981,-0.5976,-0.9641,-1.1918,-1.2033,-1.2203,-1.2352,-1.2481,-1.2494,-1.2501,-1.2656,-1.6447,-1.8421,-1.8723,-2.2509,-2.4341,-2.4918,-2.8613,-3.031,-3.0593,-3.4452,-3.7059,-3.8729,-4.0537,-4.2074,-4.3731,-4.5671,-4.6301,-4.6755,-4.9508,-5.0602,-5.1153,-5.4068,-5.4869,-5.4389,-5.2823,-5.2019,-5.1248,-4.9693,-5.1727,-5.4934,-5.7538,-5.9404,-6.1941,0.0,-6.759,-6.7624,-7.0534,-7.1887,-7.2766,-7.368,-7.5578,-7.7628,-7.9751,-8.1645,-8.3556,-8.5458,-8.5747,-8.604,-8.6664,-8.6811,-8.6885,-8.6885,-8.6958,-8.7325,-8.8023,-8.8133,-8.883,-9.0262,-9.0408,-9.0849,-9.1657,-9.1657,-9.1693,-9.1803,-9.1803,-9.1803,-9.1803,-9.1803,-9.2207,-9.2978,-9.3051,-9.3492,-9.4153,-9.4263,-9.4703,-9.5364,-9.5364,-9.5804,-9.6428,-9.6428,-9.6428,-9.6245,-9.4964,-9.4594,-9.4847,0.7338,0.6422,0.5714,0.5418,0.3885,0.2599,0.2289,0.0962,-0.0,-0.0,-0.3646,-0.6293,-0.6287,-0.634,-0.5644,-0.4077,-0.1467,-0.0914,-0.3196,-0.8497,-1.0805,-0.9226,-1.1097,-1.2026,-1.206,-1.2291,-1.244,-1.2501,-1.2501,-1.3112,-1.433,-1.7208,-1.9176,-2.0542,-2.3264,-2.5212,-2.6502,-2.9186,-3.0876,-3.2176,-3.4883,-3.7709,-4.0148,-4.0924,-4.2832,-4.5305,-4.6086,-4.6231,0.0,-4.9796,-5.0614,-5.0815,-5.4154,-5.4401,-5.3248,-5.2455,-5.2082,-5.266,-5.5829,-5.7573,-5.9201,-6.2144,-6.4038,-6.5797,-6.8301,-6.9045,-6.9958,-7.2496,-7.3612,-7.4221,-7.4559,-7.7056,-7.9409,-8.0682,-8.3038,-8.5075,-8.6302,-8.6518,-8.6628,-8.6958,-8.6995,-8.6995,-8.6995,-8.7435,-8.7839,-8.8169,-8.9087,-8.9895,-9.0555,-9.1033,-9.1436,-9.1803,-9.1803,-9.2024,-9.2537,-9.2574,-9.2794,-9.3235,-9.3235,-9.3455,-9.3822,-9.4299,-9.496,-9.5694,-9.5694,-9.5878,-9.6208,-9.6208,-9.6392,-9.6685,-9.6685,-9.6685,-9.6688,-9.6434,-9.6351,-9.6528,0.7178,0.6397,0.568,0.483,0.4008,0.2662,0.0367,-0.0,-0.0388,-0.162,-0.4394,-0.6338,-0.6329,-0.6287,-0.644,-0.6636,-0.3831,-0.3055,-0.561,-0.9281,-1.1406,-1.164,-1.1932,-1.2081,-1.206,-1.2352,-1.2501,-1.2501,-1.3112,-1.4022,-1.554,-1.8118,-2.023,-2.1751,-2.3722,-2.5639,-2.765,-2.9472,-3.1456,-3.3448,-3.5821,-3.8486,-4.1309,-4.1693,-4.3469,-4.559,-4.5901,-4.5721,-4.5737,-4.8263,-4.9063,-4.9375,-5.2189,-5.2396,-5.169,-5.1971,-5.2324,-5.3757,-5.9218,-6.1287,-6.2618,-6.5561,-6.7895,-6.9451,-6.9451,-7.0466,-7.1853,-7.3477,-7.439,-7.4965,-7.5202,-7.8101,-8.08,-8.1579,-8.4169,-8.6334,-8.6921,-8.6995,-8.6995,-8.6995,-8.7215,-8.7325,-8.7325,-8.7876,-8.828,-8.85,-8.9821,-9.0702,-9.0922,-9.1473,-9.1913,-9.2134,-9.217,-9.2574,-9.3418,-9.3418,-9.3712,-9.4299,-9.4299,-9.441,-9.4666,-9.5474,-9.6171,-9.6685,-9.6685,-9.6685,-9.6685,-9.6685,-9.6685,-9.6685,-9.6685,-9.6685,-9.6762,-9.7317,-9.7492,-9.7595,0.0,0.6037,0.5283,0.3163,0.4157,0.4091,0.0529,-0.0,-0.1505,-0.5554,-0.6234,-0.6303,-0.6276,-0.6291,-0.6403,-0.6549,-0.6783,-0.654,-0.5826,-0.8734,-1.0752,-1.1619,-1.1918,-1.206,-1.206,-1.2352,-1.2501,-1.2501,-1.4475,-1.5387,-1.554,-1.9629,-2.1601,-2.1751,-2.3722,-2.5639,-2.765,-2.9472,-3.1456,-3.3586,-3.7112,-3.9627,-4.1437,-4.2958,-4.377,-4.3904,-4.4494,-4.467,-4.4652,-4.4349,-4.5173,-4.6368,-4.7229,-4.8805,-5.0578,-5.208,-5.3452,-5.5002,-5.7369,-6.0689,-6.414,-6.7083,-7.0601,-7.3308,-7.3308,-7.3916,-7.4492,-7.4559,-7.5168,-7.5912,-7.669,-7.9336,-8.1615,-8.2359,-8.5001,-8.6995,-8.6995,-8.6995,-8.6995,-8.6995,-8.7692,-8.8169,-8.8169,-8.8206,-8.8536,-8.9307,-9.0152,-9.0959,-9.173,-9.1803,-9.217,-9.3015,-9.3051,-9.3455,-9.4263,-9.4263,-9.4263,-9.4299,-9.4299,-9.4703,-9.5511,-9.6318,-9.6685,-9.6685,-9.6685,-9.6685,-9.6685,-9.6685,-9.6685,-9.6685,-9.6685,-9.6685,-9.6685,-9.6685,-9.6762,-9.6801,0.0,0.0,0.5478,0.3102,0.4227,0.4206,0.0543,-0.2348,-0.4673,-0.608,-0.6311,0.0,0.0,0.0,0.0,0.0,-0.6802,-0.7069,-0.7422,-0.9131,-1.0451,-1.1016,-1.1694,-1.206,-1.206,-1.2352,-1.3112,-1.4475,-1.5234,-1.6904,-1.9629,-2.0991,-2.236,-2.3722,-2.5625,-2.7635,-2.9472,-3.1456,-3.3309,-3.5295,-3.7668,-3.9627,-4.1392,-4.2708,-4.3659,-4.4183,0.0,-4.2011,-4.2005,-4.3719,-4.4545,-4.528,-4.7285,-4.8278,-4.881,-5.0263,-5.3618,-5.7476,-6.0757,-6.3971,-6.7252,-7.0737,-7.2935,-7.4221,-7.4221,-7.4796,-7.5337,-7.5337,-7.4762,-7.4458,-7.5236,-7.7841,-8.0136,-8.0871,-8.435,-8.6995,-8.6995,-8.6995,-8.7215,-8.7729,-8.8059,-8.8426,-8.894,-8.9491,-8.9895,-9.0188,-9.0959,-9.1767,-9.2611,-9.2648,-9.3051,-9.3859,-9.3896,-9.4299,-9.5107,-9.5107,-9.5364,-9.5878,-9.5878,-9.6025,-9.6318,-9.6575,-9.6979,-9.7493,-9.7493,-9.7787,-9.8264,-9.7713,-9.7493,-9.7419,-9.6906,-9.6685,-9.6759,-9.7309,-9.7163,-9.6911,0.0,0.0,0.0,0.4261,0.3726,0.0,0.0,0.0,0.0,0.0,0.0,0.0,0.0,0.0,0.0,0.0,0.0,-0.7298,-0.8235,-0.9077,-0.9834,-1.046,-1.1036,-1.1643,-1.2114,-1.2309,-1.3359,-1.5567,-1.6434,-1.8392,-2.1331,-2.2262,-2.3413,-2.4636,-2.6648,-2.8485,-3.0451,-3.2316,-3.469,-3.7018,-3.8182,-3.9528,-4.1007,-4.2155,-4.2604,0.0,-4.1131,-4.011,-3.9704,-4.1254,-4.2312,-4.324,-4.5214,-4.6926,-4.8779,-5.1426,-5.5108,-5.9302,-6.3835,-6.688,-6.962,-7.3341,-7.4864,-7.5506,-7.5743,-7.6183,-7.6521,-7.6521,-7.51,-7.4119,-7.4864,-7.725,-7.9311,-7.9633,-8.3421,-8.6501,-8.6793,-8.683,-8.7302,-8.8466,-8.8867,-8.9271,-8.9784,-9.0555,-9.0922,-9.0629,-9.162,-9.2501,-9.3088,-9.3382,-9.3896,-9.4703,-9.474,-9.5107,-9.5914,-9.5951,-9.6208,-9.6685,-9.6979,-9.7126,-9.7126,-9.7419,-9.786,-9.8337,-9.8337,-9.8631,-9.9071,-9.8557,-9.8337,-9.8264,-9.775,-9.7566,-9.764,-9.8154,-9.8007,-9.768,0.0,0.0,0.0,0.0,0.0,0.0,0.0,0.0,0.0,0.0,0.0,0.0,0.0,0.0,0.0,0.0,0.0,0.0,-0.8167,-0.8618,-0.9188,-0.9944,-1.0143,-1.0842,-1.2247,-1.2255,-1.3404,-1.5546,-1.8116,-1.983,-2.0887,-2.3469,-2.4636,-2.4782,-2.6778,-2.8616,-3.041,-3.24,-3.5278,-3.8502,-3.8627,-3.9327,-4.0464,-4.1537,-4.0762,-3.9043,-3.9759,-3.9082,-3.7717,-3.7594,-3.9032,-4.1025,-4.1881,-4.5677,-5.0747,-5.5303,-5.7983,-6.0723,-6.6406,-6.918,-7.1312,-7.4864,-7.6352,-7.713,-7.7841,-7.7976,-7.7942,-7.7773,-7.598,-7.4627,-7.5202,-7.732,-7.8892,-7.8555,-8.244,-8.568,-8.6475,-8.6619,-8.7366,-8.9201,-9.0152,-9.0629,-9.0665,-9.1363,-9.1473,-9.0739,-9.217,-9.3125,-9.3161,-9.3932,-9.4703,-9.5511,-9.5547,-9.5951,-9.6685,-9.6685,-9.6722,-9.6759,-9.753,-9.7897,-9.797,-9.8741,-9.9145,-9.9181,-9.9181,-9.9181,-9.9218,-9.9181,-9.9181,-9.9181,-9.9145,-9.9108,-9.9108,-9.9145,-9.9145,-9.9108,0.0,0.0,0.0,0.0,0.0,0.0,0.0,0.0,0.0,0.0,0.0,0.0,0.0,0.0,0.0,0.0,0.0,0.0,-0.7407,-0.8803,-0.9934,-1.0461,-1.1913,-1.2847,-1.3419,-1.3563,-1.478,-1.703,-1.7674,-1.9702,-2.2967,-2.3676,-2.4672,-2.6075,-2.803,-2.9678,-3.1135,-3.3113,-3.4817,-3.6391,-3.7611,-3.8556,-3.9226,-4.0436,-4.071,-4.0432,-3.9725,-3.9286,-3.9046,-3.9516,-4.2879,-4.7556,-5.0951,-5.4067,-5.681,-5.9298,-6.2729,-6.6102,-6.8233,-7.1481,-7.4661,-7.6217,-7.7164,-7.7773,-7.7942,-7.7976,-7.7333,-7.51,-7.3308,-7.1684,-7.0161,-7.3577,-7.6766,-7.7232,-8.3002,-8.7522,-8.7741,-8.8289,-8.9057,-9.0116,-9.0482,-9.0849,-9.1436,-9.1693,-9.1693,-9.151,-9.2501,-9.3345,-9.3969,-9.4777,-9.5584,-9.6355,-9.6392,-9.6502,-9.6685,-9.6685,-9.7016,-9.7603,-9.7787,-9.819,-9.8814,-9.9035,-9.9438,-9.9989,-9.9989,-10.0319,-10.0796,-10.0209,-9.9989,-9.9916,-9.9328,-9.9108,-9.9181,-9.9769,-9.9622,-9.9292,0.0,0.0,0.0,0.0,0.0,0.0,0.0,0.0,0.0,0.0,0.0,0.0,0.0,0.0,0.0,0.0,0.0,0.0,0.0,-0.8987,-1.0083,-1.1048,-1.2046,-1.3098,-1.3984,-1.4004,-1.5248,-1.7836,-1.8399,-2.0172,-2.3039,-2.3656,-2.4347,-2.5504,-2.7779,-2.9405,-3.0485,-3.2901,-3.4862,0.0,0.0,-3.7224,-3.8405,-3.8794,-3.9216,-3.9648,-3.977,-4.1096,-4.3139,-4.4978,-4.7997,-5.1549,-5.5123,-5.7507,-5.9857,-6.3222,-6.6203,-6.8876,-7.0973,-7.3815,-7.642,-7.7198,-7.7942,-7.8213,-7.7198,-7.6995,-7.6048,-7.2732,-7.0872,-6.9214,-6.7286,-7.1778,-7.5667,-7.5274,-8.2054,-8.7559,-8.7887,-8.8652,-8.9678,-9.096,-9.1143,-9.1289,-9.1767,-9.1803,-9.195,-9.2354,-9.3161,-9.3822,-9.4263,-9.5401,-9.6245,-9.6685,-9.6685,-9.6685,-9.6685,-9.6685,-9.7089,-9.7897,-9.8264,-9.8851,-9.9659,-9.9989,-10.0393,-10.0796,-10.0796,-10.109,-10.1494,-10.098,-10.0796,-10.0796,-10.0319,-10.0209,-10.0209,-10.0686,-10.0503,-10.0283,0.0,0.0,0.0,0.0,0.0,0.0,0.0,0.0,0.0,0.0,-0.7007,-0.7,-0.7129,-0.7143,0.0,0.0,0.0,0.0,0.0,0.0,-1.0306,-1.1869,-1.1983,-1.2756,-1.4299,-1.4377,-1.5556,-1.8022,-1.9252,-2.0738,-2.2225,-2.3268,-2.3974,-2.4466,-2.7105,-2.8732,-2.9616,-3.2362,-3.4698,-3.6422,-3.5194,-3.5974,-3.7705,0.0,-3.7557,-3.8376,-4.0159,-4.3599,-4.7869,-5.124,-5.3278,-5.4668,-5.7364,-5.952,-6.2066,-6.703,-6.9045,-7.0398,-7.3713,-7.5811,-7.7198,-7.7841,-7.8619,-7.8619,-7.6251,-7.5608,-7.4424,-7.0432,-6.847,-6.6981,-6.5392,-7.0445,-7.4476,-7.3367,-8.0527,-8.6619,-8.7787,-8.8692,-8.9916,-9.162,-9.1803,-9.1803,-9.1803,-9.1803,-9.217,-9.3015,-9.3859,-9.4336,-9.4446,-9.5878,-9.6685,-9.6685,-9.6685,-9.6685,-9.6685,-9.6795,-9.7273,-9.808,-9.8888,-9.9695,-10.0503,-10.12,-10.1494,-10.1494,-10.1494,-10.1494,-10.1494,-10.1494,-10.1494,-10.1494,-10.1494,-10.1494,-10.1494,-10.1494,-10.1494,-10.1494,0.0,0.0,0.0,0.0,0.0,0.0,0.0,0.0,0.0,0.0,-0.7414,-0.7115,0.0,0.0,0.0,0.0,0.0,0.0,0.0,0.0,0.0,-1.3356,-1.4186,-1.4978,-1.5504,-1.6494,-1.7384,-1.813,-1.9268,-2.0867,-2.2889,-2.309,-2.4454,-2.6784,-2.7374,-2.8732,-3.0717,-3.1761,-3.2811,-3.3841,-3.4919,-3.5817,-3.6577,-3.7381,0.0,0.0,-4.2115,-4.4766,-4.7932,-5.2352,-5.6388,-6.0404,-6.4126,-6.6723,-6.8837,-7.1007,-7.2157,-7.3003,-7.4255,-7.6183,-7.7841,-7.7942,-7.8991,-7.9261,-7.6352,-7.5236,-7.3206,-6.7624,-6.5764,-6.4546,-6.2448,-6.629,-7.081,-7.3921,-8.025,-8.5806,-8.8692,-9.0411,-9.1437,-9.1767,-9.1803,-9.1803,-9.1803,-9.1803,-9.217,-9.3015,-9.3859,-9.4593,-9.5254,-9.6171,-9.6685,-9.6685,-9.6685,-9.6685,-9.6685,-9.7346,-9.808,-9.8924,-9.9695,-10.0503,-10.1274,-10.1384,-10.1494,-10.1494,-10.1494,-10.1494,-10.1494,-10.1494,-10.1494,-10.1494,-10.1494,-10.1494,-10.1494,-10.1494,-10.1494,-10.1494,0.0,0.0,0.0,0.0,0.0,0.0,0.0,-0.755,-0.7706,-0.8309,-0.814,-0.7834,-0.7522,-0.7884,-0.7878,0.0,0.0,0.0,0.0,0.0,0.0,-1.4532,-1.5114,-1.5803,-1.6749,-1.7404,-1.8206,-1.927,0.0,-2.134,-2.259,-2.3537,-2.4716,-2.613,-2.7261,-2.8751,-3.0438,-3.1307,-3.2546,-3.3979,-3.48,-3.6062,-3.7579,-3.815,0.0,0.0,-4.288,-4.5274,-4.835,-5.1518,-5.6689,-6.2289,-6.5942,-6.856,-7.0567,-7.2428,-7.3206,-7.3713,-7.4864,-7.6284,-7.7502,-7.7874,-7.8822,-7.845,-7.3883,-7.2563,-7.0398,-6.3599,-6.2245,-6.1839,-6.0385,-6.4725,-6.9241,-7.1663,-7.8985,-8.5115,-8.7084,-8.9898,-9.1803,-9.1803,-9.1803,-9.1803,-9.1803,-9.2207,-9.2831,-9.3675,-9.4483,-9.5107,-9.5474,-9.6245,-9.6685,-9.6685,-9.7126,-9.7309,-9.7309,-9.8117,-9.8924,-9.9732,-10.0099,-10.0686,-10.1494,-10.1494,-10.1494,-10.1494,-10.1494,-10.1494,-10.1494,-10.1494,-10.1494,-10.1494,-10.1494,-10.1494,-10.1494,-10.1494,-10.1494,-10.1494,0.0,0.0,0.0,0.0,0.0,0.0,0.0,-0.8011,-0.8194,-0.8859,-0.8866,-0.8714,-0.85,-0.8981,-0.8982,0.0,0.0,0.0,0.0,0.0,0.0,0.0,0.0,0.0,-1.7684,0.0,0.0,-2.0623,-2.1336,0.0,0.0,0.0,0.0,0.0,-2.7337,-2.8793,-3.0036,-3.1229,-3.2817,0.0,0.0,-3.6896,-3.8871,0.0,0.0,0.0,0.0,-4.568,-4.8576,-5.0954,-5.5962,-6.175,-6.5057,-6.787,-7.0364,-7.2428,-7.3003,-7.3409,-7.5202,-7.6386,-7.7266,-7.7841,-7.8686,-7.7739,-7.1582,-7.006,-6.7861,-6.052,-5.9336,-5.9539,-5.9302,-6.3467,-6.76,-6.9567,-7.689,-8.3041,-8.5178,-8.8691,-9.1216,-9.173,-9.1803,-9.1803,-9.1803,-9.2574,-9.3418,-9.4226,-9.5217,-9.5768,-9.5768,-9.6355,-9.6795,-9.6942,-9.7566,-9.797,-9.8154,-9.8961,-9.9659,-10.0283,-10.0503,-10.0907,-10.1494,-10.1494,-10.1494,-10.1494,-10.1494,-10.1494,-10.1494,-10.1494,-10.1494,-10.1494,-10.1494,-10.1494,-10.1494,-10.1494,-10.1494,-10.1494,0.0,0.0,0.0,0.0,0.0,0.0,0.0,-0.8343,-0.873,-0.9605,-0.9367,-0.9475,-1.0458,-1.0277,-0.9853,0.0,0.0,0.0,0.0,0.0,0.0,0.0,0.0,0.0,0.0,0.0,0.0,-2.1212,-2.2353,0.0,0.0,0.0,0.0,0.0,0.0,-2.9003,-3.0628,-3.2201,0.0,0.0,0.0,0.0,0.0,0.0,0.0,0.0,0.0,-4.6295,-4.8376,-5.2218,-5.5507,-5.8474,-6.185,-6.5748,-6.9485,-7.1075,-7.1515,-7.2124,-7.4931,-7.6758,-7.7908,-7.7976,-7.9058,-7.8348,-7.1684,-6.9688,-6.7252,-6.0419,-5.8524,-5.849,-5.9776,-6.1037,-6.3845,-6.9723,-7.337,-7.7837,-8.456,-8.7268,-8.9344,-9.1546,-9.1803,-9.1803,-9.1803,-9.2574,-9.3418,-9.4226,-9.5731,-9.6575,-9.6575,-9.6649,-9.7016,-9.775,-9.786,-9.8264,-9.8998,-9.9805,-10.0209,-10.0283,-10.098,-10.1384,-10.1494,-10.1494,-10.1494,-10.1494,-10.1494,-10.1494,-10.1494,-10.1494,-10.1494,-10.1494,-10.1494,-10.1494,-10.1494,-10.1494,-10.1494,-10.1494,0.0,0.0,0.0,0.0,0.0,0.0,-0.8296,-0.837,-0.8743,-0.9815,-0.972,-1.0112,-1.1653,-1.193,-1.1745,-1.0915,0.0,0.0,0.0,0.0,0.0,0.0,0.0,0.0,0.0,0.0,-2.2043,-2.2782,-2.4266,0.0,0.0,0.0,0.0,0.0,0.0,-3.0629,-3.1669,-3.2958,0.0,0.0,0.0,0.0,0.0,0.0,0.0,0.0,0.0,0.0,-4.728,-4.9852,-5.3036,-5.6075,-5.7089,-6.0628,-6.5222,-6.9417,-7.0973,-7.1954,-7.4897,-7.6487,-7.7435,-7.7874,-7.7739,-7.6217,-7.1312,-6.8571,-6.5527,-6.0114,-5.8423,-5.8355,-5.9844,-6.0757,-6.3042,-6.8431,-7.2307,-7.6117,-8.0514,-8.4751,-8.7839,-8.8793,-9.0188,-9.1253,-9.173,-9.3015,-9.4373,-9.5658,-9.6355,-9.6906,-9.7383,-9.7419,-9.7566,-9.7897,-9.8814,-9.9512,-9.9805,-10.0613,-10.098,-10.098,-10.131,-10.1494,-10.1494,-10.1494,-10.1494,-10.1494,-10.1494,-10.1494,-10.1494,-10.1494,-10.1494,-10.1494,-10.1494,-10.1494,-10.1494,-10.1494,-10.1494,-10.1494,0.0,0.0,0.0,0.0,0.0,-0.7678,-0.8323,-0.8445,-0.8818,-0.9795,-0.9788,-1.0531,-1.2702,-1.3013,-1.3133,-1.3269,-1.4703,0.0,0.0,0.0,0.0,0.0,0.0,0.0,0.0,0.0,-2.3366,-2.4776,-2.5965,-2.6901,0.0,0.0,-3.0097,-3.0288,0.0,0.0,0.0,0.0,0.0,0.0,0.0,0.0,0.0,0.0,0.0,0.0,0.0,0.0,0.0,0.0,0.0,-5.4665,-5.432,-5.7029,-6.1366,-6.6914,-6.9383,-7.1007,-7.4187,-7.6115,-7.7333,-7.7874,-7.7029,-7.5033,-7.1075,-6.7861,-6.441,-5.9945,-5.8423,-5.8355,-5.9844,-6.0554,-6.2343,-6.6824,-7.0494,-7.3974,-7.7307,-8.1878,-8.5233,-8.6187,-8.8023,-8.9674,-9.0959,-9.3235,-9.5217,-9.6612,-9.6685,-9.7052,-9.786,-9.8117,-9.8337,-9.8594,-9.9695,-10.0393,-10.0686,-10.12,-10.1494,-10.1494,-10.1494,-10.1494,-10.1494,-10.1494,-10.1494,-10.1494,-10.1494,-10.1494,-10.1494,-10.1494,-10.1494,-10.1494,-10.1494,-10.1494,-10.1494,-10.1494,-10.1494,-10.1494,0.0,0.0,0.0,0.0,0.0,0.0,-0.8201,-0.8648,-0.9096,-0.9557,-0.9483,-1.0585,-1.3761,-1.3058,-1.3729,-1.6896,-1.6326,0.0,0.0,0.0,0.0,0.0,0.0,0.0,0.0,0.0,-2.5237,-2.7028,-2.7119,-2.8298,-3.0548,-3.0548,-3.0882,-3.1386,0.0,0.0,0.0,0.0,0.0,0.0,0.0,0.0,-4.3389,0.0,0.0,0.0,0.0,0.0,0.0,0.0,0.0,0.0,0.0,-5.6122,-5.8795,-6.3328,-6.6203,-6.8741,-7.2496,-7.5709,-7.7976,-7.7976,-7.7435,-7.5709,-7.121,-6.7861,-6.441,-5.9945,-5.8423,-5.8355,-5.9844,-6.0114,-6.1332,-6.5087,-6.7382,-7.0558,-7.6062,-7.8557,-8.1048,-8.4242,-8.5343,-8.6775,-8.9197,-9.3125,-9.5841,-9.6649,-9.6685,-9.7052,-9.786,-9.8668,-9.9475,-10.0209,-10.0283,-10.0686,-10.1494,-10.1494,-10.1494,-10.1494,-10.1494,-10.1494,-10.1494,-10.1494,-10.1494,-10.1494,-10.1494,-10.1494,-10.1494,-10.1494,-10.1494,-10.1494,-10.1494,-10.1494,-10.1494,-10.1494,-10.1494,-10.1494,0.0,0.0,0.0,0.0,0.0,0.0,0.0,-0.8167,-0.852,-0.9076,-0.9787,-1.1262,-1.3744,-1.3964,-1.4734,-1.7038,-1.6339,0.0,0.0,0.0,0.0,0.0,0.0,0.0,0.0,-2.547,-2.716,-2.8094,-3.0431,-3.202,-3.2695,-3.3179,-3.327,-3.3093,-3.2717,-3.3495,0.0,0.0,0.0,0.0,0.0,-4.3808,-4.4077,0.0,0.0,0.0,0.0,0.0,0.0,0.0,0.0,0.0,0.0,0.0,0.0,-5.9167,-6.3024,-6.6981,-6.9755,-7.1921,-7.3308,-7.28,-7.209,-7.0906,-6.8436,-6.5561,-6.2719,-6.025,-5.8761,-5.8355,-5.9844,-6.0114,-6.1698,-6.6642,-6.7996,-6.998,-7.469,-7.8743,-8.1842,-8.3588,-8.7949,-9.151,-9.3418,-9.474,-9.5841,-9.6649,-9.6685,-9.7309,-9.8668,-9.8961,-9.9475,-10.0283,-10.0796,-10.12,-10.1494,-10.1494,-10.1494,-10.1494,-10.1494,-10.1494,-10.1494,-10.1494,-10.1494,-10.1494,-10.1494,-10.1494,-10.1494,-10.1494,-10.1494,-10.1494,-10.1494,-10.1494,-10.1494,-10.1494,-10.1494,-10.1494,0.0,0.0,0.0,0.0,0.0,0.0,0.0,-0.7957,-0.8262,-0.8635,-0.9754,-1.1354,-1.3487,-1.4057,-1.5125,-1.7012,-1.6828,0.0,0.0,0.0,0.0,0.0,0.0,0.0,-2.4023,-2.6393,-2.8412,-2.9829,-3.2387,-3.4174,-3.5064,-3.5407,-3.5127,-3.4198,-3.455,-3.5286,0.0,0.0,0.0,0.0,-4.4137,-4.4526,-4.4407,0.0,0.0,0.0,0.0,0.0,0.0,0.0,0.0,0.0,0.0,0.0,0.0,0.0,-6.0588,-6.4208,-6.7049,-6.9316,-7.077,-7.0297,-6.9417,-6.8267,-6.6745,-6.4106,-6.1535,-6.0013,-5.8964,-5.8693,-5.9877,-6.0351,-6.1834,-6.5842,-6.7579,-6.9877,-7.3975,-7.8345,-8.1984,-8.4468,-8.9417,-9.3125,-9.4483,-9.5437,-9.6171,-9.6649,-9.6685,-9.7419,-9.9035,-9.9108,-9.9622,-10.0686,-10.12,-10.1494,-10.1494,-10.1494,-10.1494,-10.1494,-10.1494,-10.1494,-10.1494,-10.1494,-10.1494,-10.1494,-10.1494,-10.1494,0.0,-10.1494,-10.1494,-10.1494,-10.1494,-10.1494,-10.1494,-10.1494,-10.1494,-10.1494,0.0,0.0,0.0,0.0,0.0,0.0,0.0,-0.7977,-0.8255,-0.8255,-0.9447,-1.115,-1.3199,-1.3735,-1.4863,-1.6879,0.0,0.0,0.0,0.0,0.0,0.0,0.0,0.0,-2.4545,-2.6733,-2.9276,-3.2127,-3.3455,-3.521,-3.7362,-3.7362,-3.6578,-3.5082,-3.6661,-3.7349,0.0,0.0,0.0,-4.3509,-4.4796,-4.4975,0.0,0.0,0.0,0.0,0.0,0.0,0.0,0.0,0.0,0.0,0.0,0.0,0.0,0.0,0.0,0.0,0.0,-6.7354,-6.9553,-6.9485,-6.8436,-6.7049,-6.5628,-6.3193,0.0,-5.9336,-5.9032,-5.9268,-6.0114,-6.0825,-6.1839,-6.3565,-6.6542,-7.0133,-7.4219,-7.8046,-8.2186,-8.6885,-9.0188,-9.2391,-9.3198,-9.5364,-9.6685,-9.6685,-9.6759,-9.7456,-9.9035,-9.9145,-9.9916,-10.1494,-10.1494,-10.1494,-10.1494,-10.1494,-10.1494,-10.1494,-10.1494,-10.1494,-10.1494,-10.1494,-10.1494,-10.1494,-10.1494,-10.1494,-10.1494,-10.1494,-10.1494,-10.1494,-10.1494,-10.1494,-10.1494,-10.1494,-10.1494,-10.1494,0.0,0.0,0.0,0.0,0.0,0.0,0.0,0.0,0.0,0.0,-1.0061,-1.1688,-1.2233,-1.4122,-1.5517,0.0,0.0,0.0,0.0,0.0,0.0,0.0,0.0,0.0,-2.6259,-2.8907,-3.144,-3.3832,-3.6406,-3.8116,-3.9094,-3.9094,-3.8659,-3.7912,-3.7873,-3.8705,0.0,0.0,-4.3629,-4.4167,-4.4975,-4.5514,0.0,0.0,0.0,0.0,-4.7249,-4.9016,0.0,0.0,0.0,0.0,0.0,0.0,0.0,0.0,-5.7679,-5.8727,-6.0182,0.0,-6.3226,-6.2618,-6.2651,-6.2618,0.0,-6.0892,-6.0114,-5.9201,-5.9032,-5.9607,-6.1501,-6.1535,-6.2516,-6.6271,-6.7763,-7.0208,-7.5519,-8.2541,-8.828,-9.1326,-9.3418,-9.4703,-9.4923,-9.6025,-9.6685,-9.6685,-9.7273,-9.8043,-9.9071,-9.9695,-10.0503,-10.1494,-10.1494,-10.1494,-10.1494,-10.1494,-10.1494,-10.1494,-10.1494,-10.1494,-10.1494,-10.1494,-10.1494,-10.1494,-10.1494,-10.1494,-10.1494,-10.1494,-10.1494,-10.1494,-10.1494,-10.1494,-10.1494,-10.1494,-10.1494,-10.1494,0.0,0.0,0.0,0.0,0.0,0.0,0.0,0.0,0.0,0.0,0.0,-1.2145,-1.2716,-1.4567,0.0,0.0,0.0,0.0,0.0,0.0,0.0,0.0,0.0,-2.5993,-2.6886,-2.9911,-3.2487,-3.4509,-3.6899,-3.8768,-4.0074,-4.0389,-4.0166,-3.9348,-3.9353,-4.0209,-4.1666,-4.3448,-4.4257,-4.4436,-4.5693,0.0,0.0,0.0,0.0,0.0,-4.7309,-4.8924,0.0,-5.214,-5.4185,-5.6325,0.0,0.0,0.0,0.0,-5.7577,-5.7983,-5.8389,-6.0114,-6.1704,-6.1264,-6.1231,-6.1095,-6.0283,-5.9573,-5.8863,-5.8152,-5.8795,-6.0013,-6.1603,-6.3708,-6.5539,-6.6659,-7.0932,-7.5829,-8.0802,-8.6356,-9.0739,-9.2868,-9.452,-9.5658,-9.6025,-9.6428,-9.6685,-9.6685,-9.7456,-9.8264,-9.9071,-9.9879,-10.0686,-10.1494,-10.1494,-10.1494,-10.1494,-10.1494,-10.1494,-10.1494,-10.1494,-10.1494,-10.1494,-10.1494,-10.1494,-10.1494,-10.1494,-10.1494,-10.1494,-10.1494,-10.1494,-10.1494,-10.1494,-10.1494,-10.1494,-10.1494,-10.1494,-10.1494,0.0,0.0,0.0,0.0,0.0,0.0,0.0,0.0,0.0,0.0,0.0,0.0,0.0,0.0,0.0,0.0,0.0,0.0,0.0,0.0,0.0,0.0,-2.6167,-2.7175,-2.7828,-3.0675,-3.3098,-3.4945,-3.6775,-3.8718,-4.0626,-4.18,-4.1683,-4.0602,-4.1086,-4.1733,-4.2641,-4.4407,-4.4885,-4.4616,-4.6441,0.0,0.0,0.0,0.0,0.0,0.0,0.0,0.0,-5.3053,-5.5127,-5.7036,-5.8423,0.0,0.0,0.0,0.0,0.0,-5.8118,-6.0419,-6.255,-6.1873,-6.14,-6.0892,-5.9979,-5.8795,-5.7746,-5.7239,-5.8727,-6.0664,-6.2455,-6.617,-6.8542,-6.7516,-7.5105,-8.2613,-8.6783,-8.9674,-9.184,-9.3125,-9.4703,-9.5914,-9.6465,-9.6649,-9.6759,-9.6869,-9.764,-9.8411,-9.9255,-9.9989,-10.0796,-10.1494,-10.1494,-10.1494,-10.1494,-10.1494,-10.1494,-10.1494,-10.1494,-10.1494,-10.1494,-10.1494,-10.1494,-10.1494,-10.1494,-10.1494,-10.1494,-10.1494,-10.1494,-10.1494,-10.1494,-10.1494,-10.1494,-10.1494,-10.1494,-10.1494,0.0,0.0,0.0,0.0,0.0,0.0,0.0,0.0,0.0,0.0,0.0,0.0,0.0,0.0,0.0,0.0,0.0,0.0,0.0,0.0,0.0,-2.7108,-2.6961,-2.8528,-3.1949,-3.2509,-3.4144,-3.6746,-3.8918,-4.0425,-4.1229,-4.4011,-4.4969,-4.4322,-4.391,-4.3528,-4.324,-4.4107,-4.4736,-4.5214,-4.6112,0.0,0.0,0.0,0.0,0.0,0.0,0.0,0.0,-5.3444,-5.5288,-5.6934,-5.778,0.0,0.0,0.0,0.0,0.0,-5.9235,-6.1975,-6.3362,-5.9539,-5.9438,-5.9911,-5.8524,-5.8051,-5.8051,-5.8558,-5.9438,-6.2021,-6.8284,-6.7216,-6.7475,-7.3737,-7.907,-8.4062,-8.8434,-9.2354,-9.4593,-9.4153,-9.5547,-9.6318,-9.5768,-9.6318,-9.6979,-9.764,-9.8447,-9.9255,-10.0099,-10.0907,-10.1384,-10.1494,-10.1494,-10.1494,-10.1494,-10.1494,-10.1494,-10.1494,-10.1494,-10.1494,-10.1494,-10.1494,-10.1494,-10.1494,-10.1494,-10.1494,-10.1494,-10.1494,-10.1494,-10.1494,-10.1494,-10.1494,-10.1494,-10.1494,-10.1494,-10.1494,0.0,0.0,0.0,0.0,0.0,0.0,0.0,0.0,0.0,0.0,0.0,0.0,0.0,0.0,0.0,0.0,0.0,0.0,0.0,0.0,0.0,-2.935,-2.9226,-3.0274,-3.2792,-3.4433,-3.6354,-3.8542,-4.0475,-4.1831,-4.266,-4.4177,-4.4803,-4.4699,-4.4072,-4.3419,-4.291,-4.4257,-4.5005,-4.5394,0.0,0.0,0.0,0.0,0.0,0.0,0.0,0.0,0.0,0.0,-5.5629,-5.7002,-5.8152,0.0,0.0,0.0,0.0,0.0,-5.8524,-6.052,-6.1975,-6.1129,-6.326,-6.5358,-6.4681,-6.3903,-6.3057,-6.2212,-6.326,-6.5629,-7.0114,-7.1778,-7.5354,-8.4048,-8.478,-8.5892,-9.0777,-9.2611,-9.3712,-9.4226,-9.5327,-9.6098,-9.6135,-9.6502,-9.7016,-9.7823,-9.8668,-9.9475,-10.0283,-10.109,-10.1494,-10.1494,-10.1494,-10.1494,-10.1494,-10.1494,-10.1494,-10.1494,-10.1494,-10.1494,-10.1494,-10.1494,-10.1494,-10.1494,-10.1494,-10.1494,-10.1494,-10.1494,-10.1494,-10.1494,-10.1494,-10.1494,-10.1494,-10.1494,-10.1494,-10.1494,0.0,0.0,0.0,0.0,0.0,0.0,0.0,0.0,0.0,0.0,0.0,0.0,0.0,0.0,0.0,0.0,0.0,0.0,0.0,0.0,-2.718,-3.065,-3.1112,-3.2149,-3.4316,-3.6428,-3.8467,-4.0275,-4.1806,-4.3295,-4.4703,-4.4678,-4.4698,-4.4736,-4.3928,-4.3299,-4.294,-4.4586,-4.5394,-4.5633,0.0,0.0,0.0,0.0,0.0,0.0,0.0,0.0,0.0,0.0,0.0,0.0,0.0,0.0,0.0,-5.8321,-5.7645,-5.7306,-5.8389,-5.9776,-6.1501,-6.3937,-6.6474,-6.8639,-6.9688,-6.847,-6.6914,-6.6068,-6.7607,-6.9796,-7.1816,-7.672,-8.2707,-8.9775,-8.8676,-8.8495,-9.3013,-9.3235,-9.3418,-9.4703,-9.5401,-9.6025,-9.6649,-9.6685,-9.7126,-9.8117,-9.8741,-9.9548,-10.0503,-10.12,-10.1494,-10.1494,-10.1494,-10.1494,-10.1494,-10.1494,-10.1494,-10.1494,-10.1494,-10.1494,-10.1494,-10.1494,-10.1494,-10.1494,-10.1494,-10.1494,-10.1494,-10.1494,-10.1494,-10.1494,-10.1494,-10.1494,-10.1494,-10.1494,-10.1494,-10.1494,0.0,0.0,0.0,0.0,0.0,0.0,0.0,0.0,0.0,0.0,0.0,0.0,0.0,0.0,0.0,0.0,0.0,0.0,0.0,0.0,-2.6689,-3.0158,-3.1247,-3.3918,-3.8417,-3.8693,-3.9823,-4.1982,-4.3112,-4.4986,-4.7479,-4.7024,-4.6563,-4.6112,-4.4825,-4.4227,-4.4227,-4.4975,-4.5663,-4.6322,-4.701,0.0,0.0,0.0,0.0,0.0,0.0,0.0,0.0,0.0,0.0,0.0,0.0,0.0,-5.8998,-5.8964,-5.8389,-5.8287,-6.0452,-6.2144,-6.3971,-6.688,-6.5256,-6.4038,-6.8233,-6.6914,-6.5797,-6.9113,-7.1369,-7.3378,-7.5616,-8.0113,-8.378,-8.448,-8.8121,-9.2017,-9.4918,-9.5914,-9.6392,-9.6502,-9.6575,-9.6649,-9.6685,-9.6685,-9.7346,-9.8924,-9.9071,-9.9769,-10.1274,-10.1494,-10.1494,-10.1494,-10.1494,-10.1494,-10.1494,-10.1494,-10.1494,-10.1494,-10.1494,-10.1494,-10.1494,-10.1494,-10.1494,-10.1494,-10.1494,-10.1494,-10.1494,-10.1494,-10.1494,-10.1494,-10.1494,-10.1494,-10.1494,-10.1494,-10.1494,-10.1494,0.0,0.0,0.0,0.0,0.0,0.0,0.0,0.0,0.0,0.0,0.0,0.0,0.0,0.0,0.0,0.0,0.0,0.0,0.0,-2.5651,-2.7725,-3.106,-3.2661,-3.5182,-3.8818,-3.9873,-4.148,-4.3689,-4.4837,-4.6077,-4.7191,-4.6288,-4.5781,-4.5633,-4.4736,-4.4317,-4.4377,-4.5484,-4.6082,-4.6381,-4.704,-4.7309,0.0,0.0,0.0,0.0,0.0,0.0,0.0,0.0,-5.5938,-5.6664,-5.822,-5.9167,-5.9607,-5.9133,-5.849,-5.8186,-5.9505,-6.167,-6.4106,-6.6609,-6.688,-6.7726,-7.2191,-7.3071,-7.3037,-7.351,-7.6278,-7.899,-8.0113,-8.541,-8.9205,-8.7987,-9.1284,-9.4504,-9.6021,-9.6502,-9.6685,-9.6685,-9.6685,-9.6685,-9.6685,-9.7163,-9.7897,-9.9035,-9.9548,-10.0319,-10.1384,-10.1494,-10.1494,-10.1494,-10.1494,-10.1494,-10.1494,-10.1494,-10.1494,-10.1494,-10.1494,-10.1494,-10.1494,-10.1494,-10.1494,-10.1494,-10.1494,-10.1494,-10.1494,-10.1494,-10.1494,-10.1494,-10.1494,-10.1494,-10.1494,-10.1494,-10.1494,-10.1494,0.0,0.0,0.0,0.0,0.0,0.0,0.0,0.0,0.0,0.0,0.0,0.0,0.0,0.0,0.0,0.0,0.0,0.0,-2.4635,-2.595,-2.8185,-3.1498,-3.3337,-3.5722,-3.8818,-4.0325,-4.2082,-4.4091,-4.6003,-4.6866,-4.6891,-4.6089,-4.5991,-4.6202,-4.5095,-4.4975,-4.5603,-4.6112,-4.6441,-4.6681,-4.7369,-4.7489,0.0,0.0,0.0,0.0,0.0,0.0,0.0,0.0,-5.601,-5.6765,-5.8423,-5.9471,-6.0047,-5.981,-6.0047,-6.0419,-6.0689,-6.2618,-6.5155,-6.7624,-6.8842,-7.0669,-7.5371,-7.669,-7.7159,-7.8184,-8.0337,-8.2551,-8.4373,-8.8274,-9.1109,-9.0682,-9.354,-9.6061,-9.6612,-9.6685,-9.6685,-9.6685,-9.6685,-9.6795,-9.7052,-9.7566,-9.8337,-9.9402,-9.9989,-10.0686,-10.1494,-10.1494,-10.1494,-10.1494,-10.1494,-10.1494,-10.1494,-10.1494,-10.1494,-10.1494,-10.1494,-10.1494,-10.1494,-10.1494,-10.1494,-10.1494,-10.1494,-10.1494,-10.1494,-10.1494,-10.1494,-10.1494,-10.1494,-10.1494,-10.1494,-10.1494,-10.1494,-10.1494,0.0,0.0,0.0,0.0,0.0,0.0,0.0,0.0,0.0,0.0,0.0,0.0,0.0,0.0,0.0,0.0,0.0,0.0,-2.5326,-2.6009,-2.7743,-3.1086,-3.2814,-3.5332,-3.8793,-3.9923,-4.1304,-4.2961,-4.625,-4.7503,-4.7042,-4.7229,-4.7638,-4.8177,-4.6202,-4.6411,-4.8177,-4.689,-4.6711,-4.7369,-4.8027,-4.7908,-4.7399,0.0,0.0,0.0,0.0,0.0,0.0,0.0,-5.5502,-5.6359,-6.008,-6.0757,-6.0283,-6.1061,-6.3362,-6.5493,-6.4749,-6.5662,-6.7557,-7.0534,-7.077,-7.165,-7.6826,-7.6284,-7.6462,-8.2898,-8.3043,-8.3486,-8.8104,-8.8159,-8.8235,-9.0944,-9.4342,-9.6685,-9.6685,-9.6685,-9.6685,-9.6685,-9.6722,-9.7016,-9.7823,-9.7897,-9.8557,-10.0209,-10.0283,-10.0686,-10.1494,-10.1494,-10.1494,-10.1494,-10.1494,-10.1494,-10.1494,-10.1494,-10.1494,-10.1494,-10.1494,-10.1494,-10.1494,-10.1494,-10.1494,-10.1494,-10.1494,-10.1494,-10.1494,-10.1494,-10.1494,-10.1494,-10.1494,-10.1494,-10.1494,-10.1494,-10.1494,-10.1494,0.0,0.0,0.0,0.0,0.0,0.0,0.0,0.0,0.0,0.0,0.0,0.0,0.0,0.0,0.0,0.0,0.0,0.0,-2.5326,-2.6802,-2.863,-3.1086,-3.3601,-3.5456,-3.6533,-3.8338,-4.0508,-4.3018,-4.5816,-4.6679,-4.5723,-4.6816,-4.716,-4.695,-4.7728,-4.7638,-4.695,-4.7489,-4.7818,-4.8057,-4.8716,-4.8865,-4.8775,0.0,0.0,0.0,0.0,0.0,0.0,0.0,0.0,0.0,-5.822,-6.0182,-6.1535,-6.0689,-6.1839,-6.3091,-6.1772,-6.5222,-6.9282,-6.9654,-7.351,-7.7773,-7.9837,-7.9397,-8.0156,-8.5868,-8.6999,-8.7382,-8.8787,-9.1212,-9.2714,-9.1551,-9.4342,-9.6685,-9.6685,-9.6685,-9.6685,-9.6685,-9.7199,-9.764,-9.786,-9.8924,-9.9769,-10.0283,-10.0796,-10.12,-10.1494,-10.1494,-10.1494,-10.1494,-10.1494,-10.1494,-10.1494,-10.1494,-10.1494,-10.1494,-10.1494,-10.1494,-10.1494,-10.1494,-10.1494,-10.1494,-10.1494,-10.1494,-10.1494,-10.1494,-10.1494,-10.1494,-10.1494,-10.1494,-10.1494,-10.1494,-10.1494,-10.1494,0.0,0.0,0.0,0.0,0.0,0.0,0.0,0.0,0.0,0.0,-1.7448,-1.8916,0.0,0.0,0.0,-2.313,-2.416,-2.503,-2.5765,-2.7442,-2.93,-3.1186,-3.3618,-3.5385,-3.6478,-3.8978,-4.0911,-4.2032,-4.4377,-4.5479,-4.5288,-4.7199,-4.8297,-4.8716,-5.0182,-5.0002,-4.8686,-4.9224,-4.9164,-4.8775,-4.9942,-5.0122,-4.9764,0.0,0.0,0.0,0.0,0.0,0.0,0.0,0.0,0.0,-5.7442,-5.9133,-6.0757,-6.1637,-6.3159,-6.4816,-6.6,-6.9282,-7.2766,-7.4424,-7.7536,-8.0716,-8.2644,-8.3531,-8.4778,-8.8058,-8.9579,-9.061,-9.1406,-9.3352,-9.4525,-9.3637,-9.5272,-9.6685,-9.6685,-9.6685,-9.6685,-9.6685,-9.7419,-9.8007,-9.8337,-9.9548,-10.0393,-10.0796,-10.12,-10.1494,-10.1494,-10.1494,-10.1494,-10.1494,-10.1494,-10.1494,-10.1494,-10.1494,-10.1494,-10.1494,-10.1494,-10.1494,-10.1494,-10.1494,-10.1494,-10.1494,-10.1494,-10.1494,-10.1494,-10.1494,-10.1494,-10.1494,-10.1494,-10.1494,-10.1494,-10.1494,-10.1494,-10.1494,0.0,0.0,0.0,0.0,0.0,0.0,0.0,0.0,0.0,-1.7437,-1.8812,-2.0128,0.0,0.0,0.0,-2.44,-2.5401,-2.6235,-2.6467,-2.8058,-2.9697,-3.1436,-3.3205,-3.5379,-3.7952,-4.0767,-4.1663,-4.0555,-4.2481,-4.415,-4.5364,-4.8147,-5.0391,-5.2127,-5.2845,-5.2755,-5.1977,-5.1259,-5.0301,-4.9434,-5.1289,-5.1349,-5.0483,-5.2209,0.0,0.0,0.0,0.0,0.0,0.0,0.0,0.0,-5.734,-5.7848,-5.8693,-6.2787,-6.5797,-6.8808,-7.351,-7.5337,-7.7063,-8.19,-8.19,-8.1596,-8.5294,-8.7964,-8.973,-8.9659,-9.1276,-9.3352,-9.5175,-9.462,-9.4595,-9.6384,-9.6685,-9.6685,-9.6685,-9.6759,-9.6795,-9.6795,-9.7566,-9.8411,-9.9145,-9.9952,-10.0686,-10.1384,-10.1494,-10.1494,-10.1494,-10.1494,-10.1494,-10.1494,-10.1494,-10.1494,-10.1494,-10.1494,-10.1494,-10.1494,-10.1494,-10.1494,-10.1494,-10.1494,-10.1494,-10.1494,-10.1494,-10.1494,-10.1494,-10.1494,-10.1494,-10.1494,-10.1494,-10.1494,-10.1494,-10.1494,-10.1494,-10.1494,0.0,0.0,0.0,0.0,0.0,0.0,0.0,0.0,-1.7187,-1.7569,-1.8812,-2.0128,-2.1541,-2.2868,0.0,-2.44,-2.5401,-2.6235,-2.6467,-2.849,-3.0337,-3.193,-3.496,-3.7111,-3.8198,-3.9562,-4.0367,-4.0747,-4.3519,-4.5025,-4.5364,-4.9075,-5.102,-5.1468,-5.2665,-5.2247,-5.0601,-4.9404,-4.9045,-4.9344,-5.0272,-5.081,-5.1146,-5.2684,-5.2708,0.0,0.0,0.0,0.0,0.0,0.0,0.0,-5.6562,-5.7442,-5.8084,-5.9032,-6.299,-6.7151,-6.7692,-7.2563,-7.7908,-7.9634,-8.234,-8.523,-8.7642,-8.98,-9.1091,-9.0454,-9.2737,-9.5025,-9.5398,-9.5835,-9.6197,-9.6649,-9.6685,-9.6685,-9.6685,-9.7236,-9.764,-9.764,-9.8888,-9.9842,-9.9989,-10.0796,-10.1274,-10.1494,-10.1494,-10.1494,-10.1494,-10.1494,-10.1494,-10.1494,-10.1494,-10.1494,-10.1494,-10.1494,-10.1494,-10.1494,-10.1494,-10.1494,-10.1494,-10.1494,-10.1494,-10.1494,-10.1494,-10.1494,-10.1494,-10.1494,-10.1494,-10.1494,-10.1494,-10.1494,-10.1494,-10.1494,-10.1494,-10.1494,0.0,0.0,0.0,0.0,0.0,0.0,0.0,0.0,-1.7955,-1.8527,-1.9731,-2.1087,-2.221,-2.3492,0.0,0.0,-2.5946,-2.6755,-2.7244,-2.8874,-3.0639,-3.2566,-3.5661,-3.7502,-3.8141,-3.962,-4.0654,-4.1136,-4.3596,-4.4975,-4.5394,-4.9374,-5.1558,-5.2217,-5.3563,-5.3025,-5.1109,-5.0122,-4.9703,-4.9823,-5.078,-5.1449,-5.2124,-5.3332,-5.323,-5.279,-5.4075,0.0,0.0,0.0,0.0,0.0,0.0,0.0,-5.7273,-5.9404,-6.2009,-6.5189,-6.9789,-7.3916,-7.7773,-8.1393,-8.4336,-8.6899,-8.8846,-9.0906,-9.2375,-9.2532,-9.4477,-9.6061,-9.6061,-9.6428,-9.6832,-9.7199,-9.7273,-9.7419,-9.7787,-9.8227,-9.8484,-9.8484,-9.9548,-10.0283,-10.0283,-10.098,-10.1494,-10.1494,-10.1494,-10.1494,-10.1494,-10.1494,-10.1494,-10.1494,-10.1494,-10.1494,-10.1494,-10.1494,-10.1494,-10.1494,-10.1494,-10.1494,-10.1494,-10.1494,-10.1494,-10.1494,-10.1494,-10.1494,-10.1494,-10.1494,-10.1494,-10.1494,-10.1494,-10.1494,-10.1494,-10.1494,-10.1494,-10.1494,0.0,0.0,0.0,0.0,0.0,0.0,0.0,0.0,0.0,-1.9391,-2.0953,-2.2227,-2.284,-2.4355,-2.5257,0.0,0.0,0.0,-2.8051,-2.9455,-3.106,-3.2993,-3.5913,-3.7591,-3.8061,-4.0259,-4.1602,-4.1893,-4.3509,-4.4945,-4.6232,-4.9733,-5.2157,-5.3563,-5.4341,-5.3743,-5.2127,-5.102,-5.0301,-5.0002,-5.1079,-5.1849,-5.256,-5.3439,-5.3438,-5.3082,-5.4186,-5.5074,-5.575,-5.6021,0.0,0.0,0.0,0.0,-5.6461,-6.0317,-6.1535,-6.3599,-7.2394,-7.5405,-7.7671,-8.4336,-8.665,-8.7731,-8.9807,-9.1758,-9.3583,-9.4891,-9.5947,-9.6685,-9.6685,-9.6795,-9.7126,-9.7787,-9.8007,-9.8337,-9.9035,-9.9218,-9.9328,-9.9328,-9.9989,-10.0503,-10.0503,-10.109,-10.1494,-10.1494,-10.1494,-10.1494,-10.1494,-10.1494,-10.1494,-10.1494,-10.1494,-10.1494,-10.1494,-10.1494,-10.1494,-10.1494,-10.1494,-10.1494,-10.1494,-10.1494,-10.1494,-10.1494,-10.1494,-10.1494,-10.1494,-10.1494,-10.1494,-10.1494,-10.1494,-10.1494,-10.1494,-10.1494,-10.1494,-10.1494,0.0,0.0,0.0,0.0,0.0,0.0,0.0,0.0,0.0,0.0,-2.1296,-2.2725,-2.2542,-2.4545,-2.582,-2.5455,-2.7369,-2.841,-2.8131,0.0,0.0,-3.3043,-3.6178,-3.8198,-3.8808,-4.0495,-4.2216,-4.3928,-4.4197,-4.6112,-4.9613,-5.1289,-5.3084,-5.485,-5.3294,-5.2456,-5.2007,-4.9075,-4.8117,-4.8566,-4.8745,-4.9725,-5.1157,-5.1611,-5.2223,-5.3082,-5.4186,-5.5074,-5.5919,-5.7171,-5.7239,0.0,0.0,0.0,-5.5953,-5.7171,-6.025,-6.3666,-6.5696,-7.1853,-7.9126,-8.5249,-8.767,-8.9044,-9.1115,-9.3103,-9.4891,-9.6223,-9.6608,-9.6685,-9.6685,-9.7273,-9.775,-9.786,-9.8484,-9.8998,-9.9071,-9.9695,-10.0099,-10.0099,-10.0796,-10.131,-10.131,-10.1384,-10.1494,-10.1494,-10.1494,-10.1494,-10.1494,-10.1494,-10.1494,-10.1494,-10.1494,-10.1494,-10.1494,-10.1494,-10.1494,-10.1494,-10.1494,-10.1494,-10.1494,-10.1494,-10.1494,-10.1494,-10.1494,-10.1494,-10.1494,-10.1494,-10.1494,-10.1494,-10.1494,-10.1494,-10.1494,-10.1494,-10.1494,-10.1494,0.0,0.0,0.0,0.0,0.0,0.0,0.0,0.0,0.0,0.0,0.0,-2.2808,-2.3166,-2.4656,-2.5802,-2.5999,-2.7438,-2.8587,-2.9028,-3.0767,-3.2237,-3.3436,-3.6088,-3.806,-3.9278,-4.1028,-4.2701,-4.4317,-4.4317,-4.6711,-5.1349,-5.1917,-5.3264,-5.5089,-5.3084,-5.2007,-5.1468,-4.8536,-4.7698,-4.8297,-4.8297,-5.0923,-5.4623,-5.2284,-5.3693,-5.6687,-5.4698,-5.4735,-5.5886,-5.6934,-5.7611,-5.8017,-5.7915,0.0,0.0,0.0,-5.849,-6.1704,-6.7895,-7.4289,-8.0547,-8.6129,-8.7885,-8.9122,-9.1749,-9.3114,-9.4336,-9.6301,-9.6685,-9.6685,-9.6685,-9.6979,-9.753,-9.8447,-9.8888,-9.9402,-10.0319,-10.0686,-10.098,-10.098,-10.1274,-10.1494,-10.1494,-10.1494,-10.1494,-10.1494,-10.1494,-10.1494,-10.1494,-10.1494,-10.1494,-10.1494,-10.1494,-10.1494,-10.1494,-10.1494,-10.1494,-10.1494,-10.1494,-10.1494,-10.1494,-10.1494,-10.1494,-10.1494,-10.1494,-10.1494,-10.1494,-10.1494,-10.1494,-10.1494,-10.1494,-10.1494,-10.1494,-10.1494,-10.1494,-10.1494,0.0,0.0,0.0,0.0,0.0,0.0,0.0,0.0,0.0,0.0,0.0,-2.3055,-2.4009,0.0,0.0,0.0,-2.7947,-2.8846,-2.9702,-3.0783,-3.2026,-3.3542,-3.5925,-3.7938,-3.9377,-4.1351,-4.291,-4.4077,-4.4407,-4.7189,-5.2187,-5.2366,-5.3683,-5.5837,-5.3832,-5.2486,-5.1558,-4.8925,-4.8177,-4.8835,-5.0003,-5.3508,-5.7882,-5.615,-5.8327,-6.1806,-5.7374,-5.6596,-5.7645,-5.7205,-5.7814,-5.866,-5.8287,-5.8051,0.0,0.0,0.0,-5.9911,-6.9248,-7.439,-7.8551,-8.4742,-8.704,-8.8674,-9.1915,-9.3221,-9.4423,-9.6338,-9.6685,-9.6685,-9.6685,-9.6869,-9.7456,-9.8888,-9.9292,-9.9916,-10.1274,-10.1494,-10.1494,-10.1494,-10.1494,-10.1494,-10.1494,-10.1494,-10.1494,-10.1494,-10.1494,-10.1494,-10.1494,-10.1494,-10.1494,-10.1494,-10.1494,-10.1494,-10.1494,-10.1494,-10.1494,-10.1494,-10.1494,-10.1494,-10.1494,-10.1494,-10.1494,-10.1494,-10.1494,-10.1494,-10.1494,-10.1494,-10.1494,-10.1494,-10.1494,-10.1494,-10.1494,-10.1494,-10.1494,-10.1494,0.0,0.0,0.0,0.0,0.0,0.0,0.0,0.0,0.0,0.0,0.0,-2.3989,-2.47,-2.5757,-2.6917,-2.7924,-2.9028,-2.9702,-2.9804,-3.0783,-3.1873,-3.2988,-3.5734,0.0,-3.8822,-4.1192,-4.2701,-4.3389,-4.4646,-4.7638,-5.2217,-5.2845,-5.485,-5.7872,-5.5927,-5.4311,-5.2905,-5.0272,-4.9553,-5.0423,-5.4513,-5.7,-5.8765,-6.4482,-6.7458,-6.803,-6.3531,-6.2448,-6.2584,-5.9032,-5.7881,-5.8051,-5.8727,-5.8457,-5.7881,0.0,0.0,0.0,-6.5459,-6.7827,-7.0635,-7.9431,-8.4569,-8.8117,-9.1126,-9.4264,-9.6531,-9.6685,-9.6685,-9.6685,-9.6685,-9.7309,-9.8117,-9.8961,-9.9732,-10.0503,-10.1384,-10.1494,-10.1494,-10.1494,-10.1494,-10.1494,-10.1494,-10.1494,-10.1494,-10.1494,-10.1494,-10.1494,-10.1494,-10.1494,-10.1494,-10.1494,-10.1494,-10.1494,-10.1494,-10.1494,-10.1494,-10.1494,-10.1494,-10.1494,-10.1494,-10.1494,-10.1494,-10.1494,-10.1494,-10.1494,-10.1494,-10.1494,-10.1494,-10.1494,-10.1494,-10.1494,-10.1494,-10.1494,-10.1494,-10.1494,0.0,0.0,0.0,0.0,0.0,0.0,0.0,0.0,0.0,0.0,0.0,0.0,0.0,-2.6438,-2.7683,-2.8084,-2.9106,-2.9955,-3.0306,-3.1598,-3.3252,-3.5108,-3.7153,-3.9139,-4.1056,-4.1948,-4.288,-4.3958,-4.4436,-4.6591,-5.0361,-5.1858,-5.3414,-5.491,-5.4221,-5.3892,-5.3593,-5.0122,-4.9672,-5.1659,-5.5686,-6.0028,-6.426,-6.5634,-6.9085,-7.2631,-6.7184,-6.4783,-6.4072,-6.3193,-6.1298,-5.937,-5.9607,-5.9201,-5.8524,-5.8017,-5.8558,-6.0283,-6.485,-6.7354,-7.0128,-7.6183,-8.097,-8.4993,-8.8184,-9.1729,-9.4684,-9.6338,-9.7126,-9.7456,-9.7456,-9.7713,-9.8154,-9.8961,-9.9769,-10.0576,-10.1384,-10.1494,-10.1494,-10.1494,-10.1494,-10.1494,-10.1494,-10.1494,-10.1494,-10.1494,-10.1494,-10.1494,-10.1494,-10.1494,-10.1494,-10.1494,-10.1494,-10.1494,-10.1494,-10.1494,-10.1494,-10.1494,-10.1494,-10.1494,-10.1494,-10.1494,-10.1494,-10.1494,-10.1494,-10.1494,-10.1494,-10.1494,-10.1494,-10.1494,-10.1494,-10.1494,-10.1494,-10.1494,-10.1494,-10.1494,0.0,0.0,0.0,0.0,0.0,0.0,0.0,0.0,-2.2098,-2.3396,0.0,0.0,0.0,0.0,-2.8793,-2.9197,-2.9886,-3.064,-3.1391,-3.2803,-3.463,-3.6838,-3.8589,-4.0383,-4.2342,-4.2581,-4.312,-4.3988,-4.4197,-4.5903,-4.8985,-5.0511,-5.2037,-5.3503,-5.2606,-5.3054,-5.4371,-5.2241,-5.206,-5.3823,-5.9691,-6.398,-6.7074,-6.9703,-7.2882,-7.554,-7.1312,-6.918,-6.8335,-6.8301,-6.6643,-6.4275,-6.2516,-6.0452,-5.8524,-5.8017,-5.8761,-6.0283,-6.2753,-6.5121,-6.7963,-7.2665,-7.6428,-8.045,-8.6293,-8.9521,-9.231,-9.5972,-9.7346,-9.7897,-9.7897,-9.8337,-9.8888,-9.9438,-9.9952,-10.0576,-10.1384,-10.1494,-10.1494,-10.1494,-10.1494,-10.1494,-10.1494,-10.1494,-10.1494,-10.1494,-10.1494,-10.1494,-10.1494,-10.1494,-10.1494,-10.1494,-10.1494,-10.1494,-10.1494,-10.1494,-10.1494,-10.1494,-10.1494,-10.1494,-10.1494,-10.1494,-10.1494,-10.1494,-10.1494,-10.1494,-10.1494,-10.1494,-10.1494,-10.1494,-10.1494,-10.1494,-10.1494,-10.1494,-10.1494,-10.1494,0.0,0.0,0.0,0.0,0.0,0.0,-2.0944,-2.132,-2.1784,-2.2989,0.0,0.0,0.0,0.0,0.0,-3.1379,-3.1518,-3.1924,-3.3014,-3.4205,-3.5869,-3.8005,-3.9844,-4.1368,-4.2402,-4.306,-4.3389,-4.3359,-4.4047,-4.5693,-4.8207,-4.8925,-5.099,-5.3952,-5.1409,-5.2067,-5.516,-5.6326,-5.6559,-5.6934,-6.6802,-6.8666,-6.6733,-7.7275,-7.9566,-7.7063,-7.6251,-7.5879,-7.5574,-7.4187,-7.351,-7.236,-6.7151,-6.2042,-5.7915,-5.7915,-5.8457,-5.9066,0.0,0.0,0.0,-6.8673,-7.1007,-7.4776,-8.5533,0.0,-8.9512,-9.5321,-9.7163,-9.7787,-9.786,-9.9218,-10.0283,-10.0283,-10.0319,-10.0613,-10.1384,-10.1494,-10.1494,-10.1494,-10.1494,-10.1494,-10.1494,-10.1494,-10.1494,-10.1494,-10.1494,-10.1494,-10.1494,-10.1494,-10.1494,-10.1494,-10.1494,-10.1494,-10.1494,-10.1494,-10.1494,-10.1494,-10.1494,-10.1494,-10.1494,-10.1494,-10.1494,-10.1494,-10.1494,-10.1494,-10.1494,-10.1494,-10.1494,-10.1494,-10.1494,-10.1494,-10.1494,-10.1494,-10.1494,-10.1494,0.0,0.0,0.0,0.0,0.0,-2.102,-2.1661,-2.2588,-2.3672,0.0,0.0,0.0,-2.8958,-3.098,-3.2486,-3.3169,-3.3553,-3.4114,-3.4865,-3.6294,-3.7955,-3.9989,-4.1704,-4.3061,-4.3778,-4.4407,-4.4526,-4.4047,-4.5185,-4.5903,-4.6172,-4.8297,-4.9763,-5.0661,-5.1349,-5.1887,-5.2312,-5.1935,-5.421,-5.8573,-6.4374,-6.8936,-7.2632,-7.8317,-8.1663,-8.3219,-8.2441,-8.0445,-7.828,-7.8923,-7.4458,-6.7827,-6.3125,-6.0283,-5.8693,-5.8693,-5.9641,-6.0554,-5.9945,0.0,0.0,0.0,0.0,0.0,-7.5615,0.0,-8.3897,-9.0002,-9.2315,-9.4227,-9.7342,-9.9218,-10.0283,-10.0283,-10.0796,-10.12,-10.1494,-10.1494,-10.1494,-10.1494,-10.1494,-10.1494,-10.1494,-10.1494,-10.1494,-10.1494,-10.1494,-10.1494,-10.1494,-10.1494,-10.1494,-10.1494,-10.1494,-10.1494,-10.1494,-10.1494,-10.1494,-10.1494,-10.1494,-10.1494,-10.1494,-10.1494,-10.1494,-10.1494,-10.1494,-10.1494,-10.1494,-10.1494,-10.1494,-10.1494,-10.1494,-10.1494,-10.1494,-10.1494,-10.1494,-10.1494,0.0,0.0,-1.8514,-1.9779,-2.1535,-2.2957,-2.3448,-2.457,-2.5757,0.0,0.0,0.0,-3.1977,-3.3543,-3.4575,-3.4926,-3.5435,-3.6146,-3.6891,-3.8375,-3.9944,-4.1741,-4.307,-4.4077,-4.4706,-4.5095,-4.5095,-4.4736,-4.5514,-4.5843,-4.5753,-4.7309,-4.8327,-4.8895,-4.9763,-5.0486,-5.1029,-5.0341,-5.3164,-5.8631,-6.5766,-7.0263,-7.3375,-7.8991,-8.19,-8.3152,-8.4234,-8.2847,-8.0885,-8.3625,-7.828,-6.9992,-6.7083,-6.3531,-6.0283,-5.9674,-6.0791,-6.1975,-6.0892,-6.2042,-6.3396,-6.2821,0.0,0.0,-7.4657,-7.8037,-8.2146,0.0,-9.3316,-9.4969,-9.7452,-9.8924,-9.9805,-9.9805,-10.0393,-10.1017,-10.1384,-10.1494,-10.1494,-10.1494,-10.1494,-10.1494,-10.1494,-10.1494,-10.1494,-10.1494,-10.1494,-10.1494,-10.1494,-10.1494,-10.1494,-10.1494,-10.1494,-10.1494,-10.1494,-10.1494,-10.1494,-10.1494,-10.1494,-10.1494,-10.1494,-10.1494,-10.1494,-10.1494,-10.1494,-10.1494,-10.1494,-10.1494,-10.1494,-10.1494,-10.1494,-10.1494,-10.1494,-10.1494,-10.1494,-10.1494,0.0,-1.8738,-2.0021,-2.2894,-2.3797,-2.4603,-2.5918,-2.7023,-2.7957,0.0,-3.0537,-3.2949,-3.5637,-3.6282,-3.6679,-3.6849,-3.7391,-3.8128,-3.9225,-4.0453,-4.1799,-4.3339,-4.4137,-4.4796,-4.5394,-4.5484,-4.5484,-4.5394,-4.5484,-4.5783,-4.6322,-4.6411,-4.707,-4.8147,-4.7578,-4.8486,-5.0576,-5.0692,-5.3375,-5.84,-6.8473,-7.1853,-7.1785,-7.9498,-8.146,-8.0547,-8.3896,-8.4167,-8.3456,-8.711,-8.305,-7.6183,-7.4695,-6.9417,-6.3328,-6.1129,-6.2313,-6.4005,-6.2245,-6.2888,-6.4072,-6.441,-6.3666,0.0,-7.7072,-7.8824,-8.1084,0.0,-9.4577,-9.535,-9.5904,-9.6746,-9.7368,-9.7447,-9.84,-9.9609,-10.1127,-10.1384,-10.1494,-10.1494,-10.1494,-10.1494,-10.1494,-10.1494,-10.1494,-10.1494,-10.1494,-10.1494,-10.1494,-10.1494,-10.1494,-10.1494,-10.1494,-10.1494,-10.1494,-10.1494,-10.1494,-10.1494,-10.1494,-10.1494,-10.1494,-10.1494,-10.1494,-10.1494,-10.1494,-10.1494,-10.1494,-10.1494,-10.1494,-10.1494,-10.1494,-10.1494,-10.1494,-10.1494,-10.1494,-10.1494,-1.8506,-2.0344,-2.2249,-2.3546,-2.4932,-2.6665,-2.8752,-2.8844,-2.9808,-3.2808,-3.4506,-3.6143,-3.804,-3.7889,-3.8329,-3.9834,-3.9892,-4.0498,-4.1824,-4.2474,-4.318,-4.4107,-4.5274,-4.5992,-4.6112,-4.6651,-4.6651,-4.6112,-4.6651,-4.6711,-4.6322,-4.686,-4.7249,-4.7489,-4.7369,-4.797,-4.9388,-5.1995,-5.6431,-6.2154,-6.5144,-7.006,-7.6082,-8.0682,-8.4031,-8.6433,-8.7753,-8.7279,-8.579,-8.4234,-8.2543,-8.004,-7.3883,-7.209,-7.0973,-6.4681,-6.6136,-6.9079,-6.573,-6.5933,-6.6508,-6.4275,-6.485,0.0,-6.6154,-6.7775,-7.0739,0.0,-7.7479,-7.9205,-8.3216,-8.5167,-8.6413,-8.7108,-9.1146,-9.5531,-9.9609,-10.1023,-10.1501,-10.1494,-10.1501,-10.1501,-10.1494,-10.1494,-10.1494,-10.1494,-10.1494,-10.1494,-10.1494,-10.1494,-10.1494,-10.1494,-10.1494,-10.1494,-10.1494,-10.1494,-10.1494,-10.1494,-10.1494,-10.1494,-10.1494,-10.1494,-10.1494,-10.1494,-10.1494,-10.1531,-10.1523,-10.1531,-10.1494,-10.1494,-10.1494,-10.1494,-10.1494,-10.1494,-10.1494,-10.1494,-1.9823,-2.2073,-2.4181,-2.5534,-2.6795,-2.8376,-3.0475,-3.1077,-3.2205,-3.4928,-3.6702,-3.7939,-3.8768,-3.8868,-3.9247,-4.0205,-4.1018,-4.1771,-4.2491,-4.3621,-4.4616,-4.5274,-4.5963,-4.6471,-4.68,-4.713,-4.716,-4.68,-4.716,-4.713,-4.683,-4.716,-4.8917,-5.1782,-4.8736,-5.0105,-5.4709,-5.3214,-5.5894,-6.1542,-6.688,-7.3308,-8.004,-8.3795,-8.6805,-8.914,-8.9512,-8.941,-8.8767,-8.6501,-8.3761,-8.0919,-7.8653,-7.642,-7.3646,-6.8808,-6.9789,-7.1515,-6.7387,-6.6779,-6.7083,-6.5967,-6.5696,0.0,0.0,-6.8361,-7.0453,-7.5811,-7.6296,-7.6922,-8.0519,-8.1204,-8.1612,-8.2942,-8.6233,-9.0907,-9.7374,-10.0147,-10.0956,-9.9322,-10.0509,-10.147,-10.1507,-10.1464,-10.1538,-10.1494,-10.1494,-10.1494,-10.1494,-10.1494,-10.1494,-10.1494,-10.1494,-10.1494,-10.1494,-10.1494,-10.1494,-10.1494,-10.1494,-10.1494,-10.1494,-10.1494,-10.1494,-10.1494,-10.145,-10.1486,-10.156,-10.3309,-10.3014,-10.1494,-10.1494,-10.1494,-10.1494,-10.1494,-10.1494,-10.1494,-2.1295,-2.3515,-2.5647,-2.7234,-2.8242,-2.9579,-3.1719,-3.2896,-3.4311,-3.6111,-3.8407,-3.9873,-3.9973,-4.0852,-4.1588,-4.1878,-4.3552,-4.4387,-4.3887,-4.5608,-4.686,-4.7429,-4.686,-4.71,-4.8416,-4.7698,-4.7309,-4.7309,-4.7309,-4.7309,-4.7309,-4.7309,-5.0087,-5.4818,-5.0964,-5.3138,-5.9416,-5.5572,-5.7061,-6.2719,-7.0703,-7.6386,-8.0547,-8.5012,-8.7719,-8.9241,-9.0121,-9.0797,-9.1034,-8.9241,-8.5384,-8.146,-8.2577,-8.0073,-7.598,-7.2056,-7.2834,-7.3883,-6.8842,-6.7658,-6.7861,-6.7726,-6.6677,-6.6636,0.0,0.0,0.0,-7.7107,-7.671,-7.5932,-7.808,0.0,0.0,-7.8709,0.0,0.0,0.0,-9.7465,0.0,-9.6979,-9.8966,-10.063,-10.0634,-10.1113,-10.1476,-10.1538,-10.1507,-10.1507,-10.1494,-10.1494,-10.1494,-10.1494,-10.1494,-10.1494,-10.1494,-10.1494,-10.1494,-10.1494,-10.1494,-10.1494,-10.1494,-10.1494,-10.1494,-10.1531,-10.1523,-10.189,-10.264,-10.4603,-10.3897,-10.1531,-10.1494,-10.1494,-10.1494,-10.1494,-10.1494,-10.1494,-2.2532,-2.4305,-2.5935,-2.6953,-2.7793,-2.9439,-3.2575,-3.3331,-3.4624,-3.7369,-4.0946,-4.3438,-4.3915,-4.6225,-4.8404,-5.0071,-5.1431,-5.1183,-4.8776,-5.0329,-5.1439,-5.1528,-4.8745,-4.8865,-5.2426,-4.9075,-4.7309,-4.7309,-4.7309,-4.7309,-4.7309,-4.7309,-4.7965,-4.9432,-5.4388,-5.6062,-5.5712,-6.066,-6.6601,-7.3003,-7.4728,-7.3883,-7.2326,-7.9363,-8.3389,-8.579,-8.9748,-9.1237,-9.0865,-8.8091,-8.6264,-8.4167,-7.8483,-8.031,-8.2509,-7.2326,-7.4593,-7.8855,-7.1718,-7.077,-7.1007,-6.776,-6.8267,-6.8556,-6.4551,0.0,-6.5413,-6.5573,0.0,-6.4687,-6.6255,0.0,0.0,-6.8517,-7.3799,0.0,-8.0438,-9.0241,0.0,-9.6718,-9.6989,-9.7276,-9.7248,-9.9834,-10.1536,-10.147,-10.1456,-10.1532,-10.1538,-10.1494,-10.1494,-10.1494,-10.1494,-10.1494,-10.1494,-10.1494,-10.1494,-10.1494,-10.1494,-10.1494,-10.1494,-10.1494,-10.1531,-10.1478,-10.1478,-10.3256,-10.5578,-10.3109,-10.1772,-10.147,-10.1486,-10.1494,-10.1494,-10.1494,-10.1494,-10.1494,-2.2482,-2.456,-2.623,-2.6582,-2.7941,-2.9974,-3.2775,-3.5479,-3.7685,-3.9216,-4.1153,-4.271,-4.3564,-4.4719,-4.6815,-5.03,-5.1754,-5.1988,-5.0628,-5.1916,-5.1917,-5.0002,-4.8237,-4.8267,-5.0301,-4.8356,-4.7309,-4.7309,-4.7309,-4.7309,-4.7309,-4.7309,-4.9761,-5.4391,-5.6684,-6.0256,-6.4669,-6.5709,-6.7625,-7.0297,-7.28,-7.236,-7.1413,-8.278,-8.7955,-8.9444,-9.1778,-9.2624,-9.2455,-9.1203,-8.7685,-8.4099,-8.5587,-8.3558,-8.004,-7.7063,-7.7063,-7.6893,-7.1616,-7.1887,-7.2902,-6.9586,-6.9823,-6.9688,-6.529,-6.414,-6.414,-6.4647,0.0,0.0,0.0,0.0,0.0,0.0,-6.9273,-7.1834,0.0,0.0,0.0,0.0,0.0,0.0,-9.5809,-9.7949,-9.4041,-8.2707,-9.4033,-10.1532,-10.1464,-10.1457,-10.1494,-10.1494,-10.1494,-10.1494,-10.1494,-10.1494,-10.1494,-10.1494,-10.1494,-10.1494,-10.1494,-10.1486,-10.1523,-10.1588,-10.3549,-10.5101,-10.6333,-10.4917,-10.321,-10.1506,-10.1515,-10.1478,-10.1486,-10.1494,-10.1486,-10.1478,-2.2502,-2.4336,-2.5879,-2.5996,-2.7781,-3.0141,-3.322,-3.6759,-3.932,-4.0174,-4.143,-4.2836,-4.4392,-4.5522,-4.8007,-5.2598,-5.4719,-5.5463,-5.4576,-5.5056,-5.476,-5.3473,-4.9823,-4.8985,-5.1468,-4.8925,-4.7489,-4.7309,-4.7309,-4.7489,-4.7848,-4.7668,-5.0967,-5.709,-5.8813,-6.3609,-7.0166,-7.0082,-7.0675,-7.1921,-7.4424,-7.5912,-7.757,-8.6636,-9.1203,-9.2827,-9.3368,-9.3571,-9.3436,-9.2387,-8.8429,-8.4708,-8.914,-8.5655,-8.0175,-8.1257,-8.0412,-7.8044,-7.3308,-7.3747,-7.4559,-7.0567,-7.0128,-6.9789,-6.6203,-6.4884,-6.4715,-6.5764,-6.5324,0.0,0.0,0.0,-6.6041,-6.6831,0.0,-6.7302,0.0,-7.0879,0.0,0.0,0.0,0.0,0.0,-9.6721,-8.9422,-7.1645,-8.8832,-10.0609,-10.1507,-10.1538,-10.1494,-10.1494,-10.1494,-10.1494,-10.1494,-10.1494,-10.1494,-10.1494,-10.1494,-10.1494,-10.1531,-10.1523,-10.2037,-10.299,-10.5395,-10.6397,-10.6443,-10.6397,-10.4981,-10.2798,-10.2761,-10.2807,-10.277,-10.2823,-10.2293,-10.1616,-2.2813,-2.3796,-2.4609,-2.5039,-2.6845,-2.9786,-3.4217,-3.6309,-3.7864,-3.9496,-4.2509,-4.5547,-4.8284,-5.195,-5.5892,-6.0064,-6.3666,-6.486,-6.2934,-6.1615,-6.251,-6.6221,-5.5359,-5.2516,-5.9548,-5.2187,-4.7938,-4.7309,-4.7309,-4.7967,-4.9194,-4.8566,-5.0029,-5.3423,-6.1116,-6.5241,-6.6916,-7.3682,-7.9498,-8.3998,-8.3389,-8.7042,-9.2421,-8.8531,-8.9748,-9.3537,-9.3571,-9.3571,-9.303,-8.941,-8.8023,-8.7245,-8.3828,-8.5012,-8.6941,-8.3422,-8.4843,-8.5993,-7.8686,-7.7266,-7.6284,-6.962,-6.8571,-6.8368,-6.5324,-6.5696,-6.6711,-6.6779,-6.7286,-6.7793,-6.7861,-6.8074,-6.7919,-6.7004,-6.5827,0.0,0.0,0.0,0.0,0.0,0.0,0.0,0.0,-9.6714,-9.1194,0.0,-8.9381,-9.8207,-10.1317,-10.1494,-10.1494,-10.1494,-10.1494,-10.1494,-10.1494,-10.1494,-10.1494,-10.1494,-10.1494,-10.145,-10.1478,-10.1478,-10.3174,-10.6166,-10.6434,-10.6387,-10.6376,-10.6387,-10.6323,-10.625,-10.6222,-10.6222,-10.625,-10.6222,-10.4219,-10.1982,-2.3466,-2.3809,-2.4043,-2.4199,-2.6647,-3.0235,-3.5185,-3.7593,-3.9973,-4.3112,-4.4819,-4.7205,-5.1096,-5.2703,-5.5967,-6.2143,-6.3831,-6.4843,-6.5713,-6.3624,-6.281,-6.3707,-5.6107,-5.3832,-5.8022,-5.2935,-4.9703,-4.8596,-4.8596,-4.8596,-4.8626,-4.8835,-5.0334,-5.3237,-6.07,-6.6676,-7.1686,-7.7445,-8.1393,-8.3896,-8.4133,-8.6805,-9.0662,-9.1135,-9.2252,-9.3571,-9.3571,-9.3571,-9.3402,-9.2116,-9.0053,-8.8192,-8.941,-8.7279,-8.4539,-8.5757,-8.5249,-8.3761,-8.1224,-8.2543,-8.2746,-7.4999,-7.439,-7.4018,-6.7523,-6.6812,-6.7387,-6.6914,-6.8199,-6.9248,-6.8774,-6.8601,-6.8421,-6.8036,-6.7332,-6.6939,0.0,0.0,0.0,0.0,0.0,0.0,0.0,0.0,0.0,0.0,-9.1326,0.0,-10.1434,-10.1538,-10.1494,-10.1494,-10.1494,-10.1494,-10.1494,-10.1494,-10.1494,-10.1494,-10.1494,-10.1494,-10.1641,-10.3778,-10.5294,-10.6406,-10.6387,-10.6376,-10.6376,-10.6376,-10.6423,-10.6423,-10.6387,-10.6387,-10.6423,-10.6406,-10.5735,-10.4871,-2.4004,-2.3769,-2.3742,-2.4486,-2.763,-3.1478,-3.5998,-3.8718,-4.153,-4.502,-4.6476,-4.8812,-5.3055,-5.4505,-5.765,-6.3778,-6.5502,-6.6863,-6.8041,-6.6251,-6.5203,-6.5233,-5.9967,-5.8381,-6.1253,-5.6526,-5.3264,-5.1708,-5.0541,-4.9733,-4.9344,-4.9913,-5.1563,-5.4135,-6.0225,-6.7147,-7.4471,-7.896,-8.3152,-8.6738,-8.7482,-8.897,-9.0899,-9.2827,-9.2928,-9.2116,-9.3199,-9.3571,-9.3571,-9.3571,-9.1981,-9.0391,-9.2827,-9.0256,-8.6873,-8.9275,-8.826,-8.6095,-8.4742,-8.6163,-8.6332,-7.9431,-7.9114,-7.8654,-7.1232,-7.0735,-7.1559,-7.0806,-7.0818,-7.1512,-7.3189,-7.1743,-7.0126,-6.9637,-7.0401,-6.9888,0.0,-6.6932,0.0,0.0,0.0,0.0,0.0,0.0,0.0,0.0,0.0,0.0,0.0,-10.1501,-10.1494,-10.1494,-10.1494,-10.1494,-10.1494,-10.1494,-10.1494,-10.145,-10.1494,-10.145,-10.1588,-10.3696,-10.5331,-10.6397,-10.6423,-10.6376,-10.6376,-10.6376,-10.6376,-10.6376,-10.6376,-10.6376,-10.6376,-10.6434,-10.6387,-10.6397,-2.4414,-2.3898,-2.4067,-2.5993,-2.9534,-3.3349,-3.6693,-3.9647,-4.2484,-4.5321,-4.7682,-5.0569,-5.4436,-5.7551,-6.1031,-6.5186,-6.8854,-7.0817,-7.0281,-6.9572,-6.9752,-7.1128,-6.6729,-6.5772,-6.9064,-6.263,-5.8261,-5.6376,-5.2935,-5.1259,-5.1259,-5.1751,-5.3232,-5.5709,-5.9919,-6.6535,-7.4897,-7.8619,-8.4945,-9.2556,-9.33,-9.3503,-9.3368,-9.3537,-9.1711,-8.9478,-9.2489,-9.3571,-9.3571,-9.3571,-9.3571,-9.3571,-9.3571,-9.3571,-9.3571,-9.3571,-9.3571,-9.2793,-8.9241,-8.826,-8.7211,-8.2712,-8.2664,-8.2059,-7.6386,-7.7181,-7.892,-7.8275,-7.5406,-7.4864,-8.0349,-7.7293,-7.3393,-7.1624,-7.4415,-7.359,-6.431,-6.56,-6.6366,0.0,0.0,0.0,0.0,0.0,0.0,0.0,0.0,0.0,0.0,-10.1501,-10.1538,-10.1494,-10.1494,-10.1494,-10.1494,-10.1494,-10.1531,-10.1478,-10.1714,-10.1743,-10.1524,-10.168,-10.3384,-10.6376,-10.6376,-10.6376,-10.6376,-10.6376,-10.6376,-10.6376,-10.6376,-10.6376,-10.6376,-10.6376,-10.6376,-10.6397,-2.4473,-2.6547,-2.8751,-2.972,-3.1553,-3.3974,-3.7242,-4.0852,-4.4468,-4.8058,-5.1548,-5.5013,-5.8453,-6.1339,-6.4075,-6.7001,-6.9592,-7.1954,-7.4224,-7.2355,-7.2385,-7.5168,-7.044,-6.8794,-7.1128,-6.4216,-6.0086,-5.9069,-5.4281,-5.1947,-5.1917,-5.2457,-5.342,-5.5056,-5.9114,-6.6334,-7.5642,-7.8855,-8.5249,-9.33,-9.3503,-9.2252,-9.0493,-9.2725,-9.1711,-8.9478,-9.2489,-9.3571,-9.3571,-9.3571,-9.3571,-9.3571,-9.3571,-9.3571,-9.3571,-9.3571,-9.3571,-9.3368,-9.2421,-9.215,-9.1203,-8.7245,-8.6886,-8.6339,-8.2034,-8.2801,-8.4223,-8.3529,-8.347,-8.3172,-8.165,-8.2291,-8.0442,-7.2538,-7.0665,-6.9282,-6.6773,-6.504,-6.4656,-6.6262,0.0,0.0,0.0,0.0,0.0,0.0,0.0,0.0,0.0,0.0,-10.1489,-10.1457,-10.1494,-10.1494,-10.1494,-10.1494,-10.1494,-10.1531,-10.4051,-10.3934,-10.158,-10.3981,-10.5615,-10.6387,-10.6376,-10.6376,-10.6376,-10.6376,-10.6376,-10.6376,-10.6376,-10.6376,-10.6376,-10.6376,-10.6376,-10.6369,-2.5527,-2.8794,-3.1796,-3.285,-3.5545,-3.8185,-4.0195,-4.2384,-4.5271,-4.9414,-5.2904,-5.6018,-5.8604,-6.3087,-6.6508,-6.8307,-7.1309,-7.3407,-7.418,-7.4091,-7.436,-7.5078,-7.3672,-7.3373,-7.448,-6.9393,-6.5383,-6.269,-5.7962,-5.4729,-5.2945,-5.3388,-5.4253,-5.5426,-5.9628,-6.5865,-7.3747,-8.0682,-8.6535,-9.1271,-9.2928,-9.2556,0.0,-9.2928,-9.2522,-9.1271,-9.2962,-9.3571,-9.3571,-9.3571,-9.3571,-9.3571,-9.3571,-9.3571,-9.3571,-9.3571,-9.3571,-9.3571,-9.3571,-9.3571,-9.3064,-9.0966,-9.1568,-9.1585,-8.7159,-8.8063,-8.9618,-8.9187,-8.7978,-8.7643,-8.9789,-8.5211,-7.907,-7.2834,-7.0711,-6.9814,-6.9834,-6.8202,-6.7195,-6.767,-7.0198,0.0,0.0,0.0,0.0,0.0,0.0,0.0,0.0,0.0,-10.1458,-10.1507,-10.1501,-10.1538,-10.1494,-10.1538,-10.1457,-10.1486,-10.3374,-10.3999,-10.3733,-10.5578,-10.635,-10.6387,-10.6376,-10.6376,-10.6376,-10.6376,-10.6376,-10.6376,-10.6376,-10.6376,-10.6423,-10.6394,-10.6423,-10.6406,-2.7137,-3.0615,-3.3891,-3.5342,-3.9783,-4.3489,-4.4418,-4.492,-4.6627,-5.0544,-5.3683,-5.6214,-5.7798,-6.4155,-6.8567,-6.942,-7.3498,-7.5078,-7.2804,-7.5347,-7.5976,-7.3791,-7.6514,-7.8071,-7.8071,-7.5318,-7.1398,-6.6251,-6.1942,-5.7777,-5.3923,-5.4306,-5.5069,-5.6414,-6.0393,-6.5628,0.0,-8.3152,-8.8192,-8.9004,-9.2286,-9.3571,-9.3571,-9.3571,-9.3571,-9.3571,-9.3571,-9.3571,-9.3571,-9.3571,-9.3571,-9.3571,-9.3571,-9.3571,-9.3571,-9.3571,-9.3571,-9.3689,-9.3772,-9.3889,-9.3889,-9.4087,-9.5957,-9.6649,-9.2215,-9.3155,-9.4985,-9.4985,-9.1463,-9.1056,-9.9902,-8.6818,-7.433,-7.3289,-7.2761,-7.2511,-7.25,-7.25,-7.1488,-6.864,-7.3312,0.0,0.0,0.0,0.0,0.0,0.0,0.0,0.0,0.0,0.0,-10.1476,-10.1507,-10.1317,-10.0863,-10.1317,-10.1457,-10.1478,-10.1515,-10.3174,-10.6434,-10.635,-10.6387,-10.6376,-10.6376,-10.6376,-10.6376,-10.6376,-10.6376,-10.6376,-10.6376,-10.6376,-10.6434,-10.6396,-10.6686,-10.6976,-2.9104,-3.2093,-3.4698,-3.586,-4.0646,-4.5296,-4.8159,-5.0921,-5.313,-5.4361,-5.8127,-6.1393,-6.3463,-6.7116,-7.0249,-7.2021,-7.4886,-7.6694,-7.6754,-7.7322,-7.7682,-7.7741,-7.8849,-7.9477,-7.9477,-7.5796,-7.1846,-6.7627,-6.1463,-5.6869,-5.3833,-5.383,-5.4665,-5.6381,0.0,0.0,-7.7976,-8.437,-8.9241,-9.2658,-9.3334,-9.3571,-9.3571,-9.3571,-9.3571,-9.3571,-9.3571,-9.3571,-9.3571,-9.3571,-9.3571,-9.3571,-9.3571,-9.3571,-9.3571,-9.3571,-9.3571,-9.3889,-9.4859,-9.5124,-9.5418,-9.6519,-9.8024,-9.8918,-9.8016,-9.9049,-10.0151,-10.0151,-9.9485,-9.9382,-10.1231,-8.7998,-7.6689,-7.6454,-7.4252,-7.2488,-7.2515,-7.2517,-7.2299,-7.1718,-7.2633,-7.5498,0.0,0.0,0.0,0.0,0.0,0.0,0.0,0.0,0.0,0.0,-10.1538,-10.0159,-9.7531,-10.0159,-10.1531,-10.1478,-10.147,-10.3247,-10.6434,-10.6423,-10.6376,-10.6376,-10.6376,-10.6376,-10.6376,-10.6376,-10.6376,-10.6376,-10.6376,-10.6376,-10.6434,-10.6396,-10.815,-11.02,-3.1183,-3.3814,-3.6587,-3.9267,-4.4442,-4.9088,-5.2126,-5.5917,-5.7801,-5.6043,-5.8177,-6.0583,-6.2606,-6.7039,-7.0651,-7.2632,-7.553,-7.7472,-7.7801,-7.813,-7.8609,-7.9297,-7.9656,-7.9986,-8.0315,-7.846,-7.418,-6.7448,-6.3947,-5.9483,-5.4128,-5.4146,-5.5165,-5.7381,0.0,-7.0331,0.0,-8.4437,-8.8734,-9.0865,-9.2793,-9.3571,-9.3571,-9.3571,-9.3571,-9.3571,-9.3571,-9.3571,-9.3571,-9.3571,-9.3571,-9.3571,-9.3571,-9.3571,-9.3571,-9.3571,-9.3571,-9.3772,-9.4363,-9.5047,-9.5708,-9.631,-9.7989,-9.9497,-9.9497,-10.0445,-10.1494,-10.1494,-10.1494,-10.1507,-10.1532,-8.8253,-8.004,-8.8514,-8.8531,-8.5177,-7.8481,-8.3276,-8.7549,-8.7542,-7.7176,-7.1939,0.0,0.0,0.0,0.0,0.0,0.0,0.0,0.0,0.0,0.0,0.0,-10.0833,-9.9236,-10.0723,-10.1494,-10.1478,-10.3219,-10.4917,-10.6434,-10.6423,-10.6376,-10.6376,-10.6376,-10.6376,-10.6376,-10.6376,-10.6376,-10.6376,-10.6376,-10.6376,-10.636,-10.6397,-10.8599,-11.1269,-3.3589,-3.6034,-3.9021,-4.308,-4.8477,-5.2879,-5.5064,-5.9156,-6.0914,-5.7851,-5.8428,-6.0124,-6.2525,-6.723,-7.1193,-7.3647,-7.6407,-7.8011,-7.8011,-7.8639,-7.9238,-7.9806,-8.0075,-8.0464,-8.1003,-8.1003,-7.6963,-6.8675,-6.6729,-6.2317,-5.5611,-5.4889,-5.6628,-6.0588,-6.8166,-7.3578,-7.7468,-8.4708,-8.8328,-8.9444,-9.2387,-9.3571,-9.3605,-9.3774,-9.3808,-9.3842,-9.4011,-9.4045,-9.4045,-9.4045,-9.3842,-9.3605,-9.3774,-9.3808,-9.3808,-9.3808,-9.3808,-9.396,-9.4726,-9.5503,-9.6344,-9.6868,-9.8658,-10.007,-9.9926,-10.0651,-10.1494,-10.1494,-10.1494,-10.1507,-10.1532,-9.1069,-8.5519,-9.4881,-9.9289,-9.7955,-8.7735,-9.51,-10.1486,-10.1486,-8.572,-7.6306,-8.001,0.0,0.0,0.0,0.0,0.0,0.0,0.0,0.0,0.0,0.0,-10.1513,-10.1507,-10.1464,-10.1494,-10.1515,-10.477,-10.6443,-10.6387,-10.6376,-10.6376,-10.6376,-10.6376,-10.6376,-10.6376,-10.6376,-10.6376,-10.6376,-10.6376,-10.6376,-10.6406,-10.6406,-10.8629,-11.1513,-3.6535,-3.9234,-4.213,-4.5427,-5.0954,-5.5089,-5.534,-5.9156,-6.1868,-6.1517,-6.2446,-6.4672,-6.8558,-7.049,-7.3094,-7.6991,-7.8136,-7.8699,-7.8699,-7.9327,-7.9746,-7.9806,-8.0943,-8.1631,-8.1691,-8.1691,-7.9208,-7.4151,-6.8076,-6.3183,-5.96,-5.6262,-5.9479,-6.8166,-7.1041,-7.6927,-8.4843,-8.6366,-8.9342,-9.3098,-9.3436,-9.3571,-9.3673,-9.4349,-9.462,-9.4687,-9.5364,-9.5601,-9.5601,-9.5601,-9.4687,-9.3706,-9.4383,-9.462,-9.462,-9.462,-9.462,-9.5244,-9.8481,-9.8823,-9.8958,-10.1364,-10.2192,-10.2175,-10.1478,-10.1376,-10.1494,-10.1494,-10.1494,-10.1507,-10.1532,-10.0299,-9.4943,-8.1707,-9.1876,-10.1089,-9.9864,-10.0684,-10.15,-10.15,-9.9671,-9.6251,-9.095,-7.6668,0.0,0.0,0.0,0.0,0.0,0.0,0.0,-10.1458,-10.1495,-10.1495,-10.1532,-10.1544,-10.1515,-10.1506,-10.4798,-10.6387,-10.6376,-10.6376,-10.6376,-10.6376,-10.6376,-10.6376,-10.6376,-10.6376,-10.6376,-10.6376,-10.6376,-10.6376,-10.6406,-10.6406,-10.8629,-11.1499,-3.8686,-4.1391,-4.4526,-4.814,-5.272,-5.6671,-5.9006,-6.1441,-6.3023,-6.3023,-6.3425,-6.5342,-6.9807,-7.1042,-7.3263,-7.7486,-7.8789,-7.9417,-7.9417,-8.0045,-8.0584,-8.0973,-8.1512,-8.1961,-8.235,-8.238,-7.9926,-7.4869,-7.0149,-6.5676,-6.163,-6.1685,-6.6211,-7.4627,-7.8653,-8.2678,-8.667,-8.9647,-9.1947,-9.3571,-9.3571,-9.3842,-9.4282,-9.4586,-9.4992,-9.5398,-9.5702,-9.5804,-9.5872,-9.6311,-9.577,-9.4958,-9.5263,-9.5364,-9.5364,-9.5364,-9.5364,-9.5841,-9.8075,-9.9041,-9.991,-10.1845,-10.2499,-10.2595,-10.2301,-10.1788,-10.1494,-10.1494,-10.1494,-10.1501,-10.1476,-10.1522,-9.9338,-9.2925,-9.2377,-9.4842,-10.0735,-10.1518,-9.9338,-9.3509,-9.7983,-9.6658,-8.4281,-8.6066,0.0,0.0,0.0,0.0,0.0,0.0,0.0,-8.7267,0.0,-9.1666,-10.1375,-10.1538,-10.2513,-10.4504,-10.5799,-10.6387,-10.6376,-10.6376,-10.6376,-10.6376,-10.6376,-10.6376,-10.6376,-10.6376,-10.6376,-10.6376,-10.6376,-10.6376,-10.6406,-10.6406,-10.8629,-11.1499,-4.0644,-4.3891,-4.749,-5.0816,-5.4967,-5.8905,-6.1818,-6.3073,-6.3802,-6.4128,-6.4792,-6.6646,-7.0594,-7.2105,-7.4241,-7.8082,-7.9267,-7.9896,-8.0105,-8.0734,-8.1302,-8.1751,-8.1961,-8.229,-8.2739,-8.2769,-8.0943,-7.7203,-7.3797,-7.0326,-6.7164,-6.8696,-7.329,-8.0445,-8.437,-8.7144,-8.9072,-9.2252,-9.3571,-9.3605,-9.3842,-9.4248,-9.4755,-9.5195,-9.5669,-9.6142,-9.6379,-9.6447,-9.6514,-9.7056,-9.6886,-9.6413,-9.6176,-9.6108,-9.6108,-9.6108,-9.6435,-9.7111,-9.877,-9.9989,-10.1159,-10.2515,-10.3108,-10.3293,-10.2815,-10.2301,-10.1788,-10.1494,-10.1494,-10.1494,-10.1494,-10.1518,-10.1485,-10.147,-9.5789,-9.3655,-10.0509,-10.1507,-9.895,-9.2097,-9.7273,-9.6987,-8.5552,-9.477,0.0,0.0,0.0,0.0,-9.3689,-9.3477,0.0,0.0,-8.1645,-8.7047,-10.1371,-10.2456,-10.4063,-10.6434,-10.6387,-10.6423,-10.6376,-10.6376,-10.6376,-10.6376,-10.6376,-10.6376,-10.6376,-10.6376,-10.6376,-10.6376,-10.6376,-10.636,-10.6408,-10.64,-10.8604,-11.1498,-4.2617,-4.7103,-5.1153,-5.3333,-5.8324,-6.2144,-6.2722,-6.3324,-6.4078,-6.5132,-6.7194,-6.924,-7.1438,-7.3982,-7.6671,-7.957,-7.9806,-8.0105,-8.0734,-8.1392,-8.1781,-8.1781,-8.2409,-8.2739,-8.2769,-8.2769,-8.2739,-8.2649,-7.9176,-7.759,-7.7913,-7.7125,-7.9972,-8.5723,-8.6535,-8.9342,-9.3503,-9.3571,-9.3571,-9.3639,-9.4383,-9.4687,-9.4857,-9.6311,-9.6853,-9.6954,-9.7698,-9.7969,-9.7969,-9.8003,-9.8003,-9.7867,-9.7089,-9.6853,-9.6853,-9.6853,-9.7912,-9.9466,-10.1576,-10.2615,-10.3511,-10.468,-10.5128,-10.4724,-10.3109,-10.2705,-10.2485,-10.1677,-10.1494,-10.1494,-10.1494,-10.1494,-10.1464,-10.1522,-10.136,-10.1391,-10.1522,-10.1485,-10.1489,-10.1311,-10.1418,-10.1374,-10.124,-10.1374,0.0,-8.3157,-8.7924,-8.741,-7.8099,-7.4583,-8.1526,-10.0609,-9.187,-9.1611,-10.1419,-10.4728,-10.6406,-10.6434,-10.6423,-10.6376,-10.6376,-10.6376,-10.6376,-10.6376,-10.6376,-10.6376,-10.6376,-10.6376,-10.6376,-10.6376,-10.6376,-10.6444,-10.6399,-10.6414,-10.8606,-11.1503,-4.7643,-5.0573,-5.3601,-5.6605,-5.9886,-6.232,-6.3274,-6.3877,-6.4479,-6.5208,-6.9142,-7.2199,-7.2837,-7.4889,-7.7491,-8.0257,-8.0883,-8.1242,-8.1452,-8.208,-8.2439,-8.2439,-8.2649,-8.2769,-8.2769,-8.2769,-8.2769,-8.2769,-8.0616,-8.0867,-8.3308,-8.3134,-8.5858,-9.1102,-9.1338,-9.2252,-9.3571,-9.3571,-9.3571,-9.3639,-9.4417,-9.4992,-9.5567,-9.6514,-9.7191,-9.7698,-9.7935,-9.8003,-9.8003,-9.8003,-9.8003,-9.7969,-9.7732,-9.8258,-9.91,-9.91,-10.0057,-10.154,-10.3187,-10.3796,-10.4344,-10.5644,-10.5495,-10.5018,-10.4504,-10.3917,-10.3109,-10.1817,-10.1523,-10.1486,-10.1494,-10.1494,-10.1538,-10.1544,-10.1501,-10.1538,-10.1544,-10.1507,-10.1507,-10.1513,-9.1785,-8.4985,-8.5003,-9.5034,-9.9834,-9.5663,-9.724,-9.3213,-8.1263,-8.8034,-9.5148,-10.1277,-9.8452,-9.832,-10.1476,-10.4824,-10.6434,-10.6423,-10.6376,-10.6376,-10.6376,-10.6376,-10.6376,-10.6376,-10.6376,-10.6376,-10.6376,-10.6376,-10.6376,-10.6376,-10.6376,-10.6444,-10.666,-10.9019,-11.2008,-11.4909,-4.9922,-5.2429,-5.5244,-5.826,-6.0965,-6.2948,-6.3852,-6.4429,-6.4982,-6.5534,-7.0224,-7.3633,-7.3854,-7.6662,-7.9241,-8.0974,-8.1542,-8.1901,-8.214,-8.2529,-8.2769,-8.2769,-8.2769,-8.2769,-8.2769,-8.2769,-8.3191,-8.3847,-8.4195,-8.5878,-8.87,-8.87,-9.0459,-9.3571,-9.3571,-9.3571,-9.3571,-9.3571,-9.3571,-9.3673,-9.4687,-9.5398,-9.5905,-9.692,-9.7597,-9.8003,-9.8003,-9.8003,-9.8003,-9.8003,-9.8003,-9.8003,-9.8003,-9.9362,-10.085,-10.0361,-10.1467,-10.3159,-10.4108,-10.4706,-10.5324,-10.6206,-10.6009,-10.5495,-10.5201,-10.4504,-10.3586,-10.2293,-10.1817,-10.1523,-10.1494,-10.1494,-10.1494,-10.1494,-10.1494,-10.1494,-10.1494,-10.1494,-10.1501,-10.1476,-9.2582,-8.6427,-8.6427,-9.5537,-10.1532,-10.1532,-9.5847,-8.891,-8.0804,-9.3786,-10.1537,-10.1497,-10.1507,-10.2073,-10.3345,-10.5441,-10.6387,-10.6376,-10.6376,-10.6376,-10.6376,-10.6376,-10.6376,-10.6413,-10.6413,-10.6449,-10.6449,-10.6449,-10.6449,-10.6449,-10.6449,-10.6418,-10.6824,-11.0206,-11.3611,-11.653,-5.022,-5.3123,-5.5972,-5.8641,-6.158,-6.3877,-6.4429,-6.4957,-6.5484,-6.6258,-7.0517,-7.3827,-7.4569,-7.8968,-8.1841,-8.1841,-8.1841,-8.211,-8.2709,-8.2769,-8.2769,-8.2769,-8.2769,-8.2769,-8.2769,-8.289,-8.3994,-8.5899,-8.9283,-9.1835,-9.3571,-9.3571,-9.3571,-9.3571,-9.3571,-9.3571,-9.3571,-9.3571,-9.3571,-9.3706,-9.5195,-9.5804,-9.5973,-9.7461,-9.8003,-9.8003,-9.8003,-9.8003,-9.8003,-9.8003,-9.8003,-9.8003,-9.8003,-9.9872,-10.1928,-10.0593,-10.2172,-10.4355,-10.4355,-10.5449,-10.6376,-10.6376,-10.6376,-10.6192,-10.5422,-10.4614,-10.388,-10.3366,-10.2367,-10.1552,-10.1531,-10.1494,-10.1494,-10.1494,-10.1494,-10.1494,-10.1494,-10.1494,-10.1507,-10.1456,-10.1495,-10.1495,-10.1495,-10.1495,-10.1489,-10.1501,-8.7537,-7.8948,-7.8948,-9.3489,-10.1758,-10.1817,-10.1772,-10.3247,-10.6434,-10.6434,-10.6387,-10.6376,-10.6376,-10.6413,-10.6413,-10.6413,-10.6413,-10.6413,-10.6401,-10.6548,-10.6695,-10.6695,-10.6621,-10.6353,-10.6621,-10.6878,-10.7494,-11.0714,-11.3784,-11.649,-5.3082,-5.4766,-5.6712,-6.1727,-6.3169,-6.4002,-6.4957,-6.5208,-6.6289,-6.8877,-7.2068,-7.5107,-7.7348,-8.0624,-8.2529,-8.2529,-8.2529,-8.2589,-8.2739,-8.2769,-8.2769,-8.2769,-8.2769,-8.2769,-8.2769,-8.4112,-8.6431,-8.9675,-9.0481,-9.1835,-9.3571,-9.3571,-9.3571,-9.3571,-9.3571,-9.3571,-9.3571,-9.3571,-9.3571,-9.3706,-9.5195,-9.5804,-9.5973,-9.7461,-9.8003,-9.8003,-9.8003,-9.8003,-9.8003,-9.8003,-9.8003,-9.8003,-9.8003,-9.9872,-10.2136,-10.1752,-10.3651,-10.5874,-10.5874,-10.6133,-10.6376,-10.6376,-10.6376,-10.6302,-10.6119,-10.5899,-10.5752,-10.5578,-10.443,-10.2981,-10.1653,-10.1478,-10.1523,-10.1523,-10.145,-10.1494,-10.1494,-10.1494,-10.1538,-10.1507,-10.147,-10.147,-10.147,-10.147,-10.1555,-10.153,-9.7978,-9.5798,-9.5794,-10.1791,-10.5201,-10.5237,-10.522,-10.5578,-10.6434,-10.6423,-10.6376,-10.6376,-10.6376,-10.6413,-10.6401,-10.6401,-10.6353,-10.6377,-10.6377,-10.7795,-11.0073,-11.0073,-10.8578,-10.656,-10.9105,-11.1686,-11.4184,-11.5016,-11.5802,-11.649,-5.4145,-5.5648,-5.7527,-6.2862,-6.4103,-6.463,-6.5208,-6.5509,-6.6764,-6.9899,-7.2777,-7.5463,-7.8236,-8.1043,-8.2769,-8.2769,-8.2769,-8.2769,-8.2769,-8.2769,-8.2769,-8.2769,-8.2769,-8.2769,-8.2769,-8.4521,-8.7233,-9.0895,-9.1712,-9.2635,-9.3571,-9.3571,-9.3571,-9.3571,-9.3571,-9.3571,-9.3571,-9.3571,-9.3571,-9.3706,-9.5195,-9.5804,-9.5973,-9.7461,-9.8003,-9.8003,-9.8003,-9.8003,-9.8003,-9.8003,-9.8425,-9.8958,-9.8958,-10.096,-10.3159,-10.3159,-10.4706,-10.6376,-10.6376,-10.6376,-10.6376,-10.6376,-10.6376,-10.6376,-10.6376,-10.6376,-10.6266,-10.5909,-10.5385,-10.4651,-10.321,-10.3403,-10.3219,-10.1735,-10.1486,-10.1538,-10.145,-10.1538,-10.1464,-10.1494,-10.1494,-10.1494,-10.1494,-10.1494,-10.1464,-10.1522,-10.2891,-10.3112,-10.1586,-10.4587,-10.6438,-10.6452,-10.636,-10.635,-10.6387,-10.6376,-10.7121,-10.8566,-10.7783,-10.7477,-10.7465,-10.8285,-10.8578,-10.8615,-10.8565,-10.9569,-11.1226,-11.1226,-11.017,-10.8785,-11.0551,-11.2878,-11.5421,-11.6187,-11.6488,-11.6529,-5.4365,-5.6317,-5.8542,-6.3086,-6.463,-6.5308,-6.5409,-6.5886,-6.7418,-7.0558,-7.3077,-7.5764,-7.8879,-8.1408,-8.2769,-8.2769,-8.2769,-8.2769,-8.2769,-8.2769,-8.2769,-8.2769,-8.2769,-8.2769,-8.2769,-8.4812,-8.7644,-9.1305,-9.2909,-9.3571,-9.3571,-9.3571,-9.3571,-9.3571,-9.3571,-9.3571,-9.3571,-9.3571,-9.3571,-9.3706,-9.506,-9.5635,-9.5804,-9.7258,-9.7834,-9.7867,-9.7969,-9.8003,-9.8003,-9.8003,-9.8958,-10.01,-10.01,-10.1963,-10.4297,-10.4297,-10.5324,-10.6376,-10.6376,-10.6376,-10.6376,-10.6376,-10.6376,-10.6376,-10.6376,-10.6376,-10.6192,-10.5422,-10.5909,-10.6056,-10.5101,-10.5698,-10.522,-10.1689,-10.1824,-10.1721,-10.0188,-10.0907,-10.1544,-10.1494,-10.1898,-10.1971,-10.1531,-10.1531,-10.1714,-10.2236,-10.4787,-10.5192,-10.2403,-10.4917,-10.6434,-10.635,-10.635,-10.6387,-10.6376,-10.6596,-10.7966,-11.065,-10.9534,-10.8885,-10.8982,-11.0331,-11.1042,-11.1226,-11.1213,-11.1162,-11.1162,-11.1162,-11.1162,-11.125,-11.1423,-11.2546,-11.4232,-11.5686,-11.6316,-11.6484,-5.5133,-5.778,-6.06,-6.3894,-6.4881,-6.5434,-6.5911,-6.6463,-6.8494,-7.3241,-7.4497,-7.692,-8.171,-8.2527,-8.2769,-8.2769,-8.2769,-8.2769,-8.2769,-8.2769,-8.2769,-8.2769,-8.2769,-8.2769,-8.2769,-8.6009,-8.9513,-9.3182,-9.3453,-9.3571,-9.3571,-9.3571,-9.3571,-9.3571,-9.3571,-9.3571,-9.3571,-9.3571,-9.3571,-9.3673,-9.4518,-9.489,-9.5026,-9.6514,-9.7056,-9.7123,-9.7766,-9.8003,-9.8003,-9.8003,-9.8958,-10.01,-10.01,-10.1963,-10.4297,-10.4297,-10.5324,-10.6376,-10.6376,-10.6376,-10.6376,-10.6376,-10.6376,-10.6376,-10.6376,-10.6376,-10.6376,-10.6192,-10.6266,-10.6266,-10.6156,-10.6276,-10.4917,-10.0188,-10.2852,-10.2779,-9.4475,-9.8043,-10.1552,-10.147,-10.3925,-10.4476,-10.1845,-10.147,-10.2697,-10.5413,-10.6075,-10.6185,-10.5689,-10.6056,-10.6387,-10.6376,-10.6376,-10.6376,-10.6376,-10.7281,-10.8028,-10.8444,-10.9179,-10.9509,-10.9533,-10.9716,-11.0267,-11.1148,-11.1184,-11.1184,-11.1184,-11.1184,-11.1184,-11.1272,-11.2287,-11.3486,-11.4572,-11.4883,-11.5625,-11.6484,-5.5797,-5.8588,-6.1593,-6.4443,-6.5358,-6.581,-6.6061,-6.7571,-7.0073,-7.3839,-7.596,-7.8552,-8.2345,-8.2769,-8.2769,-8.2769,-8.2769,-8.2769,-8.2769,-8.2769,-8.2769,-8.2769,-8.2769,-8.3729,-8.5614,-8.8321,-9.1021,-9.3571,-9.3571,-9.3571,-9.3571,-9.3571,-9.3571,-9.3571,-9.3571,-9.3571,-9.3571,-9.3571,-9.3571,-9.3639,-9.4417,-9.4958,-9.5398,-9.648,-9.7123,-9.7529,-9.7867,-9.8003,-9.8126,-9.8839,-10.0135,-10.1395,-10.2068,-10.3784,-10.5413,-10.5413,-10.5874,-10.6376,-10.6376,-10.6376,-10.6376,-10.6376,-10.6376,-10.6376,-10.6376,-10.6376,-10.6376,-10.6376,-10.6376,-10.6376,-10.6376,-10.6376,-10.5678,-10.343,-10.2733,-10.1808,-9.996,-10.2183,-10.4117,-10.4146,-10.5478,-10.5818,-10.4329,-10.4063,-10.477,-10.6259,-10.6406,-10.6397,-10.6434,-10.6387,-10.6423,-10.6376,-10.678,-10.7415,-10.8125,-10.8285,-10.8872,-10.9693,-10.9803,-10.9973,-11.0524,-11.0524,-11.0707,-11.1221,-11.1221,-11.1221,-11.1221,-11.1221,-11.157,-11.2243,-11.2613,-11.362,-11.4899,-11.4831,-11.5485,-11.6484,-5.7033,-5.9923,-6.264,-6.4843,-6.5735,-6.6162,-6.6287,-6.8721,-7.1569,-7.4222,-7.6986,-7.988,-8.2527,-8.2769,-8.2769,-8.2769,-8.2769,-8.2769,-8.2769,-8.2769,-8.2769,-8.2769,-8.3161,-8.4957,-8.8187,-8.9935,-9.1835,-9.3571,-9.3571,-9.3571,-9.3571,-9.3571,-9.3571,-9.3571,-9.3571,-9.3571,-9.3571,-9.3571,-9.3571,-9.3639,-9.4417,-9.506,-9.5635,-9.6548,-9.7225,-9.7766,-9.7935,-9.8215,-9.8633,-9.9792,-10.1287,-10.2923,-10.4012,-10.5271,-10.6376,-10.6376,-10.6376,-10.6376,-10.6376,-10.6376,-10.6376,-10.6376,-10.6376,-10.6376,-10.6376,-10.6376,-10.6376,-10.6376,-10.6376,-10.6376,-10.6376,-10.6376,-10.6192,-10.5605,-10.2908,-10.1799,-10.4761,-10.5854,-10.6423,-10.6406,-10.6406,-10.6406,-10.6406,-10.6406,-10.6406,-10.6406,-10.6434,-10.6387,-10.6387,-10.6423,-10.6486,-10.667,-10.7477,-10.8407,-10.9375,-10.9436,-10.9863,-11.0868,-11.0538,-11.0597,-11.1221,-11.1221,-11.1221,-11.1221,-11.1221,-11.1323,-11.1546,-11.1546,-11.2213,-11.3188,-11.3111,-11.4005,-11.5172,-11.5069,-11.5675,-11.6484,-5.9406,-6.2714,-6.5063,-6.5283,-6.5735,-6.6287,-6.684,-6.9342,-7.2017,-7.4883,-7.7638,-8.019,-8.2587,-8.2769,-8.2769,-8.2769,-8.2769,-8.2769,-8.2769,-8.2769,-8.2769,-8.2769,-8.4405,-8.615,-8.8187,-8.9935,-9.1835,-9.3571,-9.3571,-9.3571,-9.3571,-9.3571,-9.3571,-9.3571,-9.3571,-9.3571,-9.3571,-9.3571,-9.3571,-9.3639,-9.4417,-9.4755,-9.4958,-9.6345,-9.692,-9.7056,-9.7766,-9.8839,-9.9986,-10.0135,-10.1893,-10.4239,-10.4333,-10.5271,-10.6376,-10.6376,-10.6376,-10.6376,-10.6376,-10.6376,-10.6376,-10.6376,-10.6376,-10.6376,-10.6376,-10.6376,-10.6376,-10.6376,-10.6376,-10.6376,-10.6376,-10.6376,-10.5605,-10.3293,-10.4614,-10.4861,-10.2257,-10.4504,-10.6423,-10.6376,-10.6376,-10.6376,-10.6376,-10.6376,-10.6376,-10.6376,-10.6376,-10.6376,-10.6376,-10.6376,-10.6706,-10.7477,-10.8285,-10.8799,-10.8872,-11.0304,-11.0707,-11.0083,-11.0781,-11.1111,-11.1221,-11.1221,-11.1221,-11.1221,-11.1221,-11.1716,-11.2353,-11.2353,-11.2963,-11.3911,-11.4671,-11.506,-11.5321,-11.609,-11.64,-11.6484,-6.0175,-6.3154,-6.5383,-6.5735,-6.6262,-6.6714,-6.694,-7.082,-7.4115,-7.5158,-7.8869,-8.1917,-8.2739,-8.2769,-8.2769,-8.2769,-8.2769,-8.2769,-8.2769,-8.2769,-8.3311,-8.4405,-8.615,-8.8052,-8.9805,-9.1678,-9.2909,-9.3571,-9.3571,-9.3571,-9.3571,-9.3571,-9.3571,-9.3571,-9.3571,-9.3571,-9.3605,-9.4079,-9.4282,-9.4349,-9.5093,-9.5669,-9.6108,-9.6683,-9.7157,-9.7631,-9.7901,-9.8303,-9.9042,-10.0815,-10.2068,-10.3321,-10.5054,-10.5997,-10.6376,-10.6376,-10.6376,-10.6376,-10.6376,-10.6376,-10.6376,-10.6376,-10.6376,-10.6376,-10.6376,-10.6376,-10.6376,-10.6376,-10.6376,-10.6376,-10.6376,-10.6376,-10.6082,-10.5091,-10.5789,-10.6009,-10.4677,-10.5605,-10.6376,-10.6376,-10.6376,-10.6376,-10.6376,-10.6376,-10.6376,-10.6376,-10.6376,-10.6376,-10.6376,-10.689,-10.7477,-10.8285,-10.9092,-10.9496,-10.9496,-11.0597,-11.1001,-11.0707,-11.1111,-11.1221,-11.1221,-11.1221,-11.1221,-11.1221,-11.1221,-11.1837,-11.2769,-11.2583,-11.3695,-11.5512,-11.5288,-11.5482,-11.6003,-11.6393,-11.6484,-11.6484,-6.1346,-6.3962,-6.566,-6.6036,-6.6589,-6.7363,-6.8183,-7.2265,-7.5596,-7.6443,-8.0143,-8.2769,-8.2769,-8.2769,-8.2769,-8.2769,-8.2769,-8.2769,-8.2769,-8.2769,-8.358,-8.5359,-8.7233,-8.8987,-9.0895,-9.2635,-9.3571,-9.3571,-9.3571,-9.3571,-9.3571,-9.3571,-9.3706,-9.3943,-9.3943,-9.4045,-9.4315,-9.4823,-9.506,-9.5127,-9.5838,-9.6447,-9.692,-9.7157,-9.7563,-9.8003,-9.8003,-9.8337,-9.9042,-10.136,-10.2517,-10.3258,-10.5699,-10.6376,-10.6376,-10.6376,-10.6376,-10.6376,-10.6376,-10.6376,-10.6376,-10.6376,-10.6376,-10.6376,-10.6376,-10.6376,-10.6376,-10.6376,-10.6376,-10.6376,-10.6376,-10.6376,-10.6376,-10.6376,-10.6376,-10.6376,-10.6376,-10.6376,-10.6376,-10.6376,-10.6376,-10.6376,-10.6376,-10.6376,-10.6376,-10.6376,-10.6376,-10.6486,-10.678,-10.7294,-10.8064,-10.9092,-10.9679,-11.0083,-11.0377,-11.0891,-11.1221,-11.1221,-11.1221,-11.1221,-11.1221,-11.1221,-11.1221,-11.1221,-11.1221,-11.2004,-11.3337,-11.2963,-11.427,-11.639,-11.5816,-11.5993,-11.6484,-11.6484,-11.6484,-11.6484,-6.3563,-6.5358,-6.6112,-6.6112,-6.6589,-6.7984,-7.0651,-7.3509,-7.6252,-7.8997,-8.1426,-8.2769,-8.2769,-8.2769,-8.2769,-8.2769,-8.2769,-8.2769,-8.2769,-8.2769,-8.358,-8.5502,-8.7233,-8.8987,-9.0895,-9.2635,-9.3605,-9.3605,-9.3605,-9.3605,-9.3605,-9.3605,-9.4011,-9.4721,-9.4721,-9.5127,-9.5804,-9.5804,-9.5804,-9.5872,-9.6582,-9.6886,-9.6988,-9.7732,-9.8003,-9.8003,-9.8003,-9.8958,-10.0292,-10.1681,-10.3123,-10.4485,-10.5997,-10.6376,-10.6376,-10.6376,-10.6376,-10.6376,-10.6376,-10.6376,-10.6376,-10.6376,-10.6376,-10.6376,-10.6376,-10.6376,-10.6376,-10.6376,-10.6376,-10.6376,-10.6376,-10.6376,-10.6376,-10.6376,-10.6376,-10.6376,-10.6376,-10.6376,-10.6376,-10.6376,-10.6376,-10.6376,-10.6376,-10.6376,-10.6376,-10.6376,-10.6376,-10.678,-10.7587,-10.7587,-10.8358,-10.99,-10.9973,-11.0377,-11.1221,-11.1221,-11.1221,-11.1221,-11.1221,-11.1221,-11.1221,-11.1221,-11.1221,-11.1221,-11.1221,-11.2189,-11.3911,-11.3911,-11.4907,-11.6484,-11.6484,-11.6484,-11.6484,-11.6484,-11.6484,-11.6484,-6.4424,-6.5609,-6.6237,-6.6639,-6.7191,-6.8544,-7.1202,-7.4106,-7.6727,-7.9054,-8.1426,-8.2769,-8.2769,-8.2769,-8.2769,-8.2769,-8.2769,-8.2769,-8.2769,-8.2769,-8.4112,-8.7233,-8.7916,-8.9903,-9.3527,-9.3571,-9.4079,-9.5127,-9.4079,-9.4112,-9.5127,-9.462,-9.4755,-9.5466,-9.5466,-9.5601,-9.5838,-9.6345,-9.6548,-9.6616,-9.736,-9.7664,-9.7698,-9.7935,-9.8003,-9.8003,-9.8003,-9.8337,-9.8958,-10.136,-10.2517,-10.3187,-10.5626,-10.6376,-10.6376,-10.6376,-10.6376,-10.6376,-10.6376,-10.6376,-10.6376,-10.6376,-10.6376,-10.6376,-10.6376,-10.6376,-10.6376,-10.6376,-10.6376,-10.6376,-10.6376,-10.6376,-10.6376,-10.6376,-10.6376,-10.6376,-10.6376,-10.6376,-10.6376,-10.6376,-10.6376,-10.6376,-10.6376,-10.6376,-10.6376,-10.6376,-10.689,-10.7587,-10.8395,-10.8982,-10.9496,-10.9973,-11.0487,-11.1001,-11.1221,-11.1221,-11.1221,-11.1221,-11.1221,-11.1221,-11.1221,-11.1221,-11.1221,-11.1221,-11.1221,-11.2189,-11.3911,-11.3911,-11.4907,-11.6484,-11.6484,-11.6484,-11.6484,-11.6484,-11.6484,-11.6484,-6.4868,-6.5735,-6.6287,-6.6865,-6.8239,-7.011,-7.2774,-7.5545,-7.8252,-8.0434,-8.1917,-8.2769,-8.2769,-8.2769,-8.2769,-8.2769,-8.2769,-8.2769,-8.2769,-8.3461,-8.5215,-8.802,-8.8855,-9.0937,-9.4568,-9.3977,-9.4315,-9.5804,-9.462,-9.462,-9.577,-9.533,-9.5533,-9.6244,-9.6244,-9.6379,-9.6683,-9.7157,-9.7326,-9.736,-9.7834,-9.8003,-9.8003,-9.8003,-9.8003,-9.8003,-9.8003,-9.8303,-9.9161,-10.1432,-10.2887,-10.4203,-10.5911,-10.6376,-10.6376,-10.6376,-10.6376,-10.6376,-10.6376,-10.6376,-10.6376,-10.6376,-10.6376,-10.6376,-10.6376,-10.6376,-10.6376,-10.6376,-10.6376,-10.6376,-10.6376,-10.6376,-10.6376,-10.6376,-10.6376,-10.6376,-10.6376,-10.6376,-10.6376,-10.6376,-10.6376,-10.6376,-10.6376,-10.6376,-10.6486,-10.689,-10.7294,-10.8064,-10.9202,-10.9679,-11.0083,-11.0487,-11.0891,-11.1221,-11.1221,-11.1221,-11.1221,-11.1221,-11.1221,-11.1221,-11.1221,-11.1221,-11.1221,-11.1184,-11.1631,-11.2509,-11.3873,-11.4301,-11.5228,-11.6484,-11.6484,-11.6484,-11.6484,-11.6484,-11.6484,-11.6484,-6.4993,-6.581,-6.6363,-6.694,-6.9274,-7.2151,-7.5021,-7.7723,-8.0248,-8.2435,-8.2769,-8.2769,-8.2769,-8.2769,-8.2769,-8.2769,-8.2769,-8.2769,-8.2769,-8.4552,-8.6291,-8.8155,-8.9935,-9.2044,-9.4687,-9.4045,-9.4417,-9.5905,-9.5161,-9.5229,-9.6007,-9.5939,-9.6277,-9.6988,-9.6988,-9.736,-9.8003,-9.8003,-9.8003,-9.8003,-9.8003,-9.8003,-9.8003,-9.8003,-9.8003,-9.8003,-9.8003,-9.8958,-10.0292,-10.1893,-10.4203,-10.6376,-10.6376,-10.6376,-10.6376,-10.6376,-10.6376,-10.6376,-10.6376,-10.6376,-10.6376,-10.6376,-10.6376,-10.6376,-10.6376,-10.6376,-10.6376,-10.6376,-10.6376,-10.6376,-10.6376,-10.6376,-10.6376,-10.6376,-10.6376,-10.6376,-10.6376,-10.6376,-10.6376,-10.6376,-10.6376,-10.6376,-10.6376,-10.6486,-10.678,-10.7587,-10.7771,-10.8468,-10.9973,-11.0083,-11.0414,-11.1221,-11.1221,-11.1221,-11.1221,-11.1221,-11.1221,-11.1221,-11.1221,-11.1221,-11.1221,-11.1221,-11.1221,-11.1236,-11.2109,-11.3036,-11.3977,-11.4811,-11.5715,-11.6484,-11.6484,-11.6484,-11.6484,-11.6484,-11.6484,-11.6484,-6.5664,-6.6388,-6.6965,-6.7518,-6.9842,-7.2712,-7.5489,-7.7844,-8.0248,-8.2435,-8.2769,-8.2769,-8.2769,-8.2769,-8.2769,-8.2769,-8.2769,-8.2769,-8.2769,-8.4552,-8.6291,-8.8155,-8.9935,-9.2044,-9.4687,-9.4552,-9.5195,-9.665,-9.5905,-9.6244,-9.7529,-9.692,-9.7056,-9.7766,-9.7766,-9.7867,-9.8003,-9.8003,-9.8003,-9.8003,-9.8003,-9.8003,-9.8003,-9.8003,-9.8003,-9.8003,-9.8003,-9.8958,-10.0516,-10.3023,-10.5017,-10.6376,-10.6376,-10.6376,-10.6376,-10.6376,-10.6376,-10.6376,-10.6376,-10.6376,-10.6376,-10.6376,-10.6376,-10.6376,-10.6376,-10.6376,-10.6376,-10.6376,-10.6376,-10.6376,-10.6376,-10.6376,-10.6376,-10.6376,-10.6376,-10.6376,-10.6376,-10.6376,-10.6376,-10.6376,-10.6376,-10.6376,-10.6376,-10.7,-10.7697,-10.8505,-10.9092,-10.99,-11.0891,-11.0891,-11.1001,-11.1221,-11.1221,-11.1221,-11.1221,-11.1221,-11.1221,-11.1221,-11.1221,-11.1221,-11.1221,-11.1221,-11.1221,-11.1236,-11.2109,-11.3036,-11.3977,-11.4811,-11.5715,-11.6484,-11.6484,-11.6484,-11.6484,-11.6484,-11.6484,-11.6484,-6.6413,-6.6764,-6.7241,-6.8045,-7.1215,-7.4051,-7.5848,-7.8923,-8.1426,-8.2587,-8.2769,-8.2769,-8.2769,-8.2769,-8.2769,-8.2769,-8.2769,-8.2769,-8.2769,-8.5359,-8.7233,-8.8187,-9.0736,-9.2802,-9.418,-9.4857,-9.577,-9.6886,-9.648,-9.6886,-9.8003,-9.7597,-9.7631,-9.8003,-9.8003,-9.8003,-9.8003,-9.8003,-9.8003,-9.8003,-9.8003,-9.8003,-9.8003,-9.8003,-9.8003,-9.8003,-9.8003,-9.9362,-10.1539,-10.4427,-10.5787,-10.6376,-10.6376,-10.6376,-10.6376,-10.6376,-10.6376,-10.6376,-10.6376,-10.6376,-10.6376,-10.6376,-10.6376,-10.6376,-10.6376,-10.6376,-10.6376,-10.6376,-10.6376,-10.6376,-10.6376,-10.6376,-10.6376,-10.6376,-10.6376,-10.6376,-10.6376,-10.6376,-10.6376,-10.6376,-10.6376,-10.6596,-10.689,-10.7367,-10.8064,-10.9276,-10.979,-11.0377,-11.1184,-11.1221,-11.1221,-11.1221,-11.1221,-11.1221,-11.1221,-11.1221,-11.1221,-11.1221,-11.1221,-11.1221,-11.1221,-11.1221,-11.1717,-11.2531,-11.3411,-11.4274,-11.5218,-11.6078,-11.6512,-11.6484,-11.6484,-11.6484,-11.6484,-11.6484,-11.6484,-11.6484,-6.6865,-6.7041,-6.7592,-6.8928,-7.2649,-7.5681,-7.651,-8.0091,-8.2769,-8.2769,-8.2769,-8.2769,-8.2769,-8.2769,-8.2769,-8.2769,-8.2769,-8.2769,-8.2769,-8.615,-8.8321,-8.8455,-9.1802,-9.3571,-9.3571,-9.4924,-9.5973,-9.6683,-9.6954,-9.7394,-9.8003,-9.8003,-9.8003,-9.8003,-9.8003,-9.8003,-9.8003,-9.8003,-9.8003,-9.8003,-9.8003,-9.8003,-9.8003,-9.8003,-9.8003,-9.8003,-9.8337,-10.0214,-10.2959,-10.5502,-10.6376,-10.6376,-10.6376,-10.6376,-10.6376,-10.6376,-10.6376,-10.6376,-10.6376,-10.6376,-10.6376,-10.6376,-10.6376,-10.6376,-10.6376,-10.6376,-10.6376,-10.6376,-10.6376,-10.6376,-10.6376,-10.6376,-10.6376,-10.6376,-10.6486,-10.6596,-10.6413,-10.6486,-10.6596,-10.6413,-10.6486,-10.689,-10.7697,-10.7881,-10.8578,-10.99,-11.0083,-11.0487,-11.1221,-11.1221,-11.1221,-11.1221,-11.1221,-11.1221,-11.1221,-11.1221,-11.1221,-11.1221,-11.1221,-11.1221,-11.1184,-11.147,-11.2411,-11.3931,-11.4876,-11.5802,-11.6601,-11.728,-11.7215,-11.6484,-11.6484,-11.6484,-11.6484,-11.6484,-11.6484,-11.6484,-6.6865,-6.7367,-6.8522,-7.0949,-7.3959,-7.6674,-7.8574,-8.1087,-8.2769,-8.2769,-8.2769,-8.2769,-8.2769,-8.2769,-8.2769,-8.2769,-8.2769,-8.2769,-8.2769,-8.615,-8.8722,-8.9675,-9.2237,-9.3571,-9.3571,-9.4417,-9.5229,-9.5939,-9.7225,-9.7901,-9.8003,-9.8003,-9.8003,-9.8003,-9.8003,-9.8003,-9.8003,-9.8003,-9.8003,-9.8003,-9.8003,-9.8003,-9.8003,-9.8003,-9.8003,-9.8092,-9.9362,-10.1539,-10.4333,-10.5911,-10.6376,-10.6376,-10.6376,-10.6376,-10.6376,-10.6376,-10.6376,-10.6376,-10.6376,-10.6376,-10.6376,-10.6376,-10.6376,-10.6376,-10.6376,-10.6376,-10.6376,-10.6376,-10.6376,-10.6376,-10.6376,-10.6376,-10.6376,-10.6376,-10.7,-10.7183,-10.6486,-10.7,-10.7183,-10.6486,-10.7,-10.7771,-10.8578,-10.9276,-10.979,-10.9973,-11.0597,-11.1111,-11.1221,-11.1221,-11.1221,-11.1221,-11.1221,-11.1221,-11.1221,-11.1221,-11.1221,-11.1221,-11.1221,-11.1221,-11.1258,-11.2761,-11.3622,-11.3893,-11.5614,-11.6355,-11.6487,-11.6637,-11.6599,-11.6484,-11.6484,-11.6484,-11.6484,-11.6484,-11.6484,-11.6484,-6.7317,-6.7869,-6.908,-7.1938,-7.4425,-7.6922,-7.9083,-8.1426,-8.2769,-8.2769,-8.2769,-8.2769,-8.2769,-8.2769,-8.2769,-8.2769,-8.2769,-8.3161,-8.4259,-8.668,-8.8855,-9.0481,-9.2514,-9.3774,-9.4214,-9.4924,-9.5669,-9.6413,-9.7056,-9.7597,-9.8003,-9.8003,-9.8003,-9.8003,-9.8003,-9.8003,-9.8003,-9.8003,-9.8003,-9.8003,-9.8003,-9.8003,-9.8003,-9.8003,-9.8546,-9.9478,-10.1716,-10.3223,-10.4485,-10.5924,-10.6376,-10.6376,-10.6376,-10.6376,-10.6376,-10.6376,-10.6376,-10.6376,-10.6376,-10.6376,-10.6376,-10.6376,-10.6376,-10.6376,-10.6376,-10.6376,-10.6376,-10.6376,-10.6376,-10.6376,-10.6376,-10.6376,-10.6486,-10.7,-10.7,-10.7,-10.7073,-10.7367,-10.7587,-10.7697,-10.8101,-10.8578,-10.9386,-10.979,-11.0193,-11.0597,-11.1001,-11.1221,-11.1221,-11.1221,-11.1221,-11.1221,-11.1221,-11.1221,-11.1221,-11.1221,-11.1221,-11.1221,-11.1221,-11.1221,-11.1258,-11.2962,-11.4309,-11.5385,-11.7102,-11.7929,-11.8025,-11.8008,-11.7407,-11.6484,-11.6484,-11.6484,-11.6484,-11.6484,-11.6484,-11.6484]},{"header":{"parameterUnit":"m.s-1","parameterCategory":1,"la1":30.6,"la2":28.766,"lo1":-90.7593,"lo2":-88.6598,"dx":0.0162,"dy":0.0183,"nx":116,"ny":114,"refTime":"2022-12-12T18:00:00:Z","depth":0,"parameterNumber":3,"parameterNumberName":"V-component_of_WINDS"},"data":[0.0,0.0,0.0,0.0,0.0,0.0,0.0,0.0,0.0,0.0,0.0,0.0,0.0,0.0,0.0,0.0,0.0,0.0,0.0,0.0,0.0,0.0,0.0,0.0,0.0,0.0,0.0,0.0,0.0,0.0,0.0,0.0,0.0,0.0,0.0,0.0,0.0,0.0,0.0,0.0,0.0,0.0,0.0,0.0,0.0,0.0,0.0,0.0,0.0,0.0,0.0,0.0,0.0,0.0,0.0,0.0,0.0,0.0,0.0,0.0,0.0,0.0,0.0,0.0,0.0,0.0,0.0,0.0,0.0,0.0,0.0,0.0,0.0,0.0,0.0,0.0,0.0,0.0,0.0,0.0,0.0,0.0,0.0,0.0,0.0,0.0,0.0,0.0,0.0,0.0,0.0,0.0,0.0,0.0,0.0,0.0,0.0,0.0,0.0,0.0,0.0,0.0,0.0,0.0,0.0,0.0,0.0,0.0,0.0,0.0,0.0,0.0,0.0,0.0,0.0,0.0,0.0,0.0,0.0,0.0,0.0,0.0,0.0,0.0,0.0,0.0,0.0,0.0,0.0,0.0,0.0,0.0,0.0,0.0,0.0,0.0,0.0,0.0,0.0,0.0,0.0,0.0,0.0,0.0,0.0,0.0,0.0,0.0,0.0,0.0,0.0,0.0,0.0,0.0,0.0,0.0,0.0,0.0,0.0,0.0,0.0,0.0,0.0,0.0,0.0,0.0,0.0,0.0,0.0,0.0,0.0,0.0,0.0,0.0,0.0,0.0,0.0,0.0,0.0,0.0,0.0,0.0,0.0,0.0,0.0,0.0,0.0,0.0,0.0,0.0,0.0,0.0,0.0,0.0,0.0,0.0,0.0,0.0,0.0,0.0,0.0,0.0,0.0,0.0,0.0,0.0,0.0,0.0,0.0,0.0,0.0,0.0,0.0,0.0,0.0,0.0,0.0,0.0,0.0,0.0,0.0,0.0,0.0,0.0,0.0,0.0,0.0,0.0,0.0,0.0,0.0,0.0,0.0,0.0,0.0,0.0,0.0,0.0,0.0,0.0,0.0,0.0,0.0,0.0,0.0,0.0,0.0,0.0,0.0,0.0,0.0,0.0,0.0,0.0,0.0,0.0,0.0,0.0,0.0,0.0,0.0,0.0,0.0,0.0,0.0,0.0,0.0,0.0,0.0,0.0,0.0,0.0,0.0,0.0,0.0,0.0,0.0,0.0,0.0,0.0,0.0,0.0,0.0,0.0,0.0,0.0,0.0,0.0,0.0,0.0,0.0,0.0,0.0,0.0,0.0,0.0,0.0,0.0,0.0,0.0,0.0,0.0,0.0,0.0,0.0,0.0,0.0,0.0,0.0,0.0,0.0,0.0,0.0,0.0,0.0,0.0,0.0,0.0,0.0,0.0,0.0,0.0,0.0,0.0,0.0,0.0,0.0,0.0,0.0,0.0,0.0,0.0,0.0,0.0,0.0,0.0,0.0,0.0,0.0,0.0,0.0,0.0,0.0,0.0,0.0,0.0,0.0,0.0,0.0,0.0,0.0,0.0,0.0,0.0,0.0,0.0,0.0,0.0,0.0,0.0,0.0,0.0,0.0,0.0,0.0,0.0,0.0,0.0,0.0,0.0,0.0,0.0,0.0,0.0,0.0,0.0,0.0,0.0,0.0,0.0,0.0,0.0,0.0,0.0,0.0,0.0,0.0,0.0,0.0,0.0,0.0,0.0,0.0,0.0,0.0,0.0,0.0,0.0,0.0,0.0,0.0,0.0,0.0,0.0,0.0,0.0,0.0,0.0,0.0,0.0,0.0,0.0,0.0,0.0,0.0,0.0,0.0,0.0,0.0,0.0,0.0,0.0,0.0,0.0,0.0,0.0,0.0,0.0,0.0,0.0,0.0,0.0,0.0,0.0,0.0,0.0,0.0,0.0,0.0,0.0,0.0,0.0,0.0,0.0,0.0,0.0,0.0,0.0,0.0,0.0,0.0,0.0,0.0,0.0,0.0,0.0,0.0,0.0,0.0,0.0,0.0,0.0,0.0,0.0,0.0,0.0,0.0,0.0,0.0,0.0,0.0,0.0,0.0,0.0,0.0,0.0,0.0,0.0,0.0,0.0,0.0,0.0,0.0,0.0,0.0,0.0,0.0,0.0,0.0,0.0,0.0,0.0,0.0,0.0,0.0,0.0,0.0,0.0,0.0,0.0,0.0,0.0,0.0,0.0,0.0,0.0,0.0,0.0,0.0,0.0,0.0,0.0,0.0,0.0,0.0,0.0,0.0,0.0,0.0,0.0,0.0,0.0,0.0,0.0,0.0,0.0,0.0,0.0,0.0,0.0,0.0,0.0,0.0,0.0,0.0,0.0,0.0,0.0,0.0,0.0,0.0,0.0,0.0,0.0,0.0,0.0,0.0,0.0,0.0,0.0,0.0,0.0,0.0,0.0,0.0,0.0,0.0,0.0,0.0,0.0,0.0,0.0,0.0,0.0,0.0,0.0,0.0,0.0,0.0,0.0,0.0,0.0,0.0,0.0,0.0,0.0,0.0,0.0,0.0,0.0,0.0,0.0,0.0,0.0,0.0,0.0,0.0,0.0,0.0,0.0,0.0,0.0,0.0,0.0,0.0,0.0,0.0,0.0,0.0,0.0,0.0,0.0,0.0,0.0,0.0,0.0,0.0,0.0,0.0,0.0,0.0,0.0,0.0,0.0,0.0,0.0,0.0,0.0,0.0,0.0,0.0,0.0,0.0,0.0,0.0,0.0,0.0,0.0,0.0,0.0,0.0,0.0,0.0,0.0,0.0,0.0,0.0,0.0,0.0,0.0,0.0,0.0,0.0,0.0,0.0,0.0,0.0,0.0,0.0,0.0,0.0,0.0,0.0,0.0,0.0,0.0,0.0,0.0,0.0,0.0,0.0,0.0,0.0,0.0,0.0,0.0,0.0,0.0,0.0,0.0,0.0,0.0,0.0,0.0,0.0,0.0,0.0,0.0,0.0,0.0,0.0,0.0,0.0,0.0,0.0,0.0,0.0,0.0,0.0,0.0,0.0,0.0,0.0,0.0,0.0,0.0,0.0,0.0,0.0,0.0,0.0,0.0,0.0,0.0,0.0,0.0,0.0,0.0,0.0,0.0,0.0,0.0,0.0,0.0,0.0,0.0,0.0,0.0,0.0,0.0,0.0,0.0,0.0,0.0,0.0,0.0,0.0,0.0,0.0,0.0,0.0,0.0,0.0,0.0,0.0,0.0,0.0,0.0,0.0,0.0,0.0,0.0,0.0,0.0,0.0,0.0,0.0,0.0,0.0,0.0,0.0,0.0,0.0,0.0,0.0,0.0,0.0,0.0,0.0,0.0,0.0,0.0,0.0,0.0,0.0,0.0,0.0,0.0,0.0,0.0,0.0,0.0,0.0,0.0,0.0,0.0,0.0,0.0,0.0,0.0,0.0,0.0,0.0,0.0,0.0,0.0,0.0,0.0,0.0,0.0,0.0,0.0,0.0,0.0,0.0,0.0,0.0,0.0,0.0,0.0,0.0,0.0,0.0,0.0,0.0,0.0,0.0,0.0,0.0,0.0,0.0,0.0,0.0,0.0,0.0,0.0,0.0,0.0,0.0,0.0,0.0,0.0,0.0,0.0,0.0,0.0,0.0,0.0,0.0,0.0,0.0,0.0,0.0,0.0,0.0,0.0,0.0,0.0,0.0,0.0,0.0,0.0,0.0,0.0,0.0,0.0,0.0,0.0,0.0,0.0,0.0,0.0,0.0,0.0,0.0,0.0,0.0,0.0,0.0,0.0,0.0,0.0,0.0,0.0,0.0,0.0,0.0,0.0,0.0,0.0,0.0,0.0,0.0,0.0,0.0,0.0,0.0,0.0,0.0,0.0,0.0,0.0,0.0,0.0,0.0,0.0,0.0,0.0,0.0,0.0,0.0,0.0,0.0,0.0,0.0,0.0,0.0,0.0,0.0,0.0,0.0,0.0,0.0,0.0,0.0,0.0,0.0,0.0,0.0,0.0,0.0,0.0,0.0,0.0,0.0,0.0,0.0,0.0,0.0,0.0,0.0,0.0,0.0,0.0,0.0,0.0,0.0,0.0,0.0,0.0,0.0,0.0,0.0,0.0,0.0,0.0,0.0,0.0,0.0,0.0,0.0,0.0,0.0,0.0,0.0,0.0,0.0,0.0,0.0,0.0,0.0,0.0,0.0,0.0,0.0,0.0,0.0,0.0,0.0,0.0,0.0,0.0,0.0,0.0,0.0,0.0,0.0,0.0,0.0,0.0,0.0,0.0,0.0,0.0,0.0,0.0,0.0,0.0,0.0,0.0,0.0,0.0,0.0,0.0,0.0,0.0,0.0,0.0,0.0,0.0,0.0,0.0,0.0,0.0,0.0,0.0,0.0,0.0,0.0,0.0,0.0,0.0,0.0,0.0,0.0,0.0,0.0,0.0,0.0,0.0,0.0,0.0,0.0,0.0,0.0,0.0,0.0,0.0,0.0,0.0,0.0,0.0,0.0,0.0,0.0,0.0,0.0,0.0,0.0,0.0,0.0,0.0,0.0,0.0,0.0,0.0,0.0,0.0,0.0,0.0,0.0,0.0,0.0,0.0,0.0,0.0,0.0,0.0,0.0,0.0,0.0,0.0,0.0,0.0,0.0,0.0,0.0,0.0,0.0,0.0,0.0,0.0,0.0,0.0,0.0,0.0,0.0,0.0,0.0,0.0,0.0,0.0,0.0,0.0,0.0,0.0,0.0,0.0,0.0,0.0,0.0,0.0,0.0,0.0,0.0,0.0,0.0,0.0,0.0,0.0,0.0,0.0,0.0,0.0,0.0,0.0,0.0,0.0,0.0,0.0,0.0,0.0,0.0,0.0,0.0,0.0,0.0,0.0,0.0,0.0,0.0,0.0,0.0,0.0,0.0,0.0,0.0,0.0,0.0,0.0,0.0,0.0,0.0,0.0,0.0,0.0,0.0,0.0,0.0,0.0,0.0,0.0,0.0,0.0,0.0,0.0,0.0,0.0,0.0,0.0,0.0,0.0,0.0,0.0,0.0,0.0,0.0,0.0,0.0,0.0,0.0,0.0,0.0,0.0,0.0,0.0,0.0,0.0,0.0,0.0,0.0,0.0,0.0,0.0,0.0,0.0,0.0,0.0,0.0,0.0,0.0,0.0,0.0,0.0,0.0,0.0,0.0,0.0,0.0,0.0,0.0,0.0,0.0,0.0,0.0,0.0,0.0,0.0,0.0,0.0,0.0,0.0,0.0,0.0,0.0,0.0,0.0,0.0,0.0,0.0,0.0,0.0,0.0,0.0,0.0,0.0,0.0,0.0,0.0,0.0,0.0,0.0,0.0,0.0,0.0,0.0,0.0,0.0,0.0,0.0,0.0,0.0,0.0,0.0,0.0,0.0,0.0,0.0,0.0,0.0,0.0,0.0,0.0,0.0,0.0,0.0,0.0,0.0,0.0,0.0,0.0,0.0,0.0,0.0,0.0,0.0,0.0,0.0,0.0,0.0,0.0,0.0,0.0,0.0,0.0,0.0,0.0,0.0,0.0,0.0,0.0,0.0,0.0,0.0,0.0,0.0,0.0,0.0,0.0,0.0,0.0,0.0,0.0,0.0,0.0,0.0,0.0,0.0,0.0,0.0,0.0,0.0,0.0,0.0,0.0,0.0,0.0,0.0,0.0,0.0,0.0,0.0,0.0,0.0,0.0,0.0,0.0,0.0,0.0,0.0,0.0,0.0,0.0,0.0,0.0,0.0,0.0,0.0,0.0,0.0,0.0,0.0,0.0,0.0,0.0,0.0,0.0,0.0,0.0,0.0,0.0,0.0,0.0,0.0,0.0,0.0,0.0,0.0,0.0,0.0,0.0,0.0,0.0,0.0,0.0,0.0,0.0,0.0,0.0,0.0,0.0,0.0,0.0,0.0,0.0,0.0,0.0,0.0,0.0,0.0,0.0,0.0,0.0,0.0,0.0,0.0,0.0,0.0,0.0,0.0,0.0,0.0,0.0,0.0,0.0,0.0,0.0,0.0,0.0,0.0,0.0,0.0,0.0,0.0,0.0,0.0,0.0,0.0,0.0,0.0,-2.3688,-2.1421,0.0,0.0,0.0,0.0,0.0,0.0,0.0,0.0,0.0,0.0,0.0,0.0,0.0,0.0,0.0,0.0,0.0,0.0,0.0,0.0,0.0,0.0,0.0,-2.5582,-2.5614,-2.5702,-2.5703,0.0,0.0,0.0,0.0,0.0,0.0,0.0,0.0,0.0,-2.6736,-2.8429,-3.0929,-3.4697,-3.944,-3.787,-3.5752,-3.3314,0.0,0.0,0.0,0.0,0.0,0.0,0.0,0.0,0.0,0.0,0.0,0.0,0.0,0.0,0.0,0.0,0.0,0.0,0.0,0.0,0.0,0.0,0.0,0.0,0.0,0.0,0.0,0.0,0.0,0.0,0.0,0.0,0.0,0.0,0.0,0.0,0.0,0.0,0.0,0.0,0.0,0.0,0.0,0.0,0.0,0.0,0.0,0.0,0.0,0.0,0.0,0.0,0.0,0.0,0.0,0.0,0.0,0.0,0.0,0.0,0.0,0.0,0.0,0.0,0.0,0.0,0.0,0.0,0.0,0.0,-2.5277,-2.3786,0.0,0.0,0.0,0.0,0.0,0.0,0.0,0.0,0.0,0.0,0.0,0.0,0.0,0.0,0.0,0.0,0.0,0.0,0.0,0.0,0.0,-2.5514,-2.5784,-2.5858,-2.599,-2.6366,-2.625,-2.6132,-2.6122,-2.5939,0.0,0.0,0.0,0.0,-2.5534,-2.6505,-2.8506,-3.1494,-3.6122,-4.1272,-4.6832,-4.7783,-4.5703,-4.1027,-3.8257,0.0,0.0,0.0,0.0,0.0,0.0,0.0,0.0,0.0,0.0,0.0,0.0,0.0,0.0,0.0,0.0,0.0,0.0,0.0,0.0,0.0,0.0,0.0,0.0,0.0,0.0,0.0,0.0,0.0,0.0,0.0,0.0,0.0,0.0,0.0,0.0,0.0,0.0,0.0,0.0,0.0,0.0,0.0,0.0,0.0,0.0,0.0,0.0,0.0,0.0,0.0,0.0,0.0,0.0,0.0,0.0,0.0,0.0,0.0,0.0,0.0,0.0,0.0,-2.6159,-2.6279,-2.6293,-2.664,-2.7455,-2.8524,-2.7068,-2.6841,-2.7308,-2.4877,0.0,0.0,0.0,0.0,0.0,0.0,0.0,0.0,0.0,0.0,0.0,0.0,0.0,0.0,0.0,0.0,0.0,0.0,0.0,-2.5803,-2.6641,-2.6787,-2.7419,-2.8945,-2.8398,-2.7947,-2.7876,-2.7097,0.0,0.0,0.0,0.0,-2.6428,-2.7967,-3.1083,-3.5892,-4.5201,-5.0952,-5.3315,-5.4585,-5.4542,-5.3132,-4.7566,-4.4169,-4.2375,0.0,0.0,0.0,0.0,0.0,0.0,0.0,0.0,0.0,0.0,0.0,0.0,0.0,0.0,0.0,0.0,0.0,0.0,0.0,0.0,0.0,0.0,0.0,0.0,0.0,0.0,0.0,0.0,0.0,0.0,0.0,0.0,0.0,0.0,0.0,0.0,0.0,0.0,0.0,0.0,0.0,-2.0561,-2.1189,0.0,0.0,0.0,0.0,0.0,0.0,0.0,0.0,0.0,0.0,0.0,0.0,0.0,-2.517,-2.5838,-2.664,-2.7161,-2.7428,-2.8724,-2.9339,-2.9352,-2.99,-3.0261,-3.0434,-3.0194,0.0,-2.8404,-2.8016,0.0,0.0,0.0,0.0,0.0,0.0,0.0,0.0,0.0,0.0,0.0,0.0,0.0,0.0,0.0,0.0,0.0,0.0,0.0,0.0,0.0,-3.1161,-3.2773,-3.4492,-3.5195,-3.4462,-3.195,-3.0905,0.0,0.0,0.0,-2.6428,-2.7313,-3.1314,-3.7276,-4.524,-5.2125,-5.6357,-5.8088,-5.9585,-5.9932,-5.905,-5.6387,-5.2307,-4.7275,-4.4321,0.0,0.0,0.0,0.0,0.0,0.0,0.0,0.0,0.0,0.0,0.0,0.0,0.0,0.0,0.0,0.0,0.0,0.0,0.0,0.0,0.0,0.0,0.0,0.0,0.0,0.0,0.0,0.0,0.0,0.0,0.0,0.0,0.0,0.0,0.0,0.0,0.0,0.0,0.0,-2.0781,-2.0895,-2.1483,-2.1216,-2.0828,0.0,0.0,0.0,0.0,0.0,0.0,0.0,0.0,0.0,-2.6079,-2.656,-2.7241,-2.8177,-2.8724,-2.9152,-2.9446,-3.01,-3.0408,-3.0421,-3.0849,-3.1036,-3.1049,-3.1209,-3.0915,-3.0234,-2.9085,-2.7923,-2.66,0.0,0.0,0.0,0.0,-1.632,-1.4199,0.0,0.0,0.0,0.0,0.0,0.0,0.0,0.0,0.0,0.0,0.0,0.0,-3.3241,-3.5976,-3.8359,-4.0078,-4.1211,-4.0257,-3.6518,-3.4565,-3.1883,-2.8191,-2.7323,-2.7621,-2.9159,-3.6238,-4.4316,-5.3203,-5.728,-6.0012,-6.1473,-6.2935,-6.3227,-6.2484,-6.2747,-5.9094,-5.2535,-4.9828,-4.6205,-4.1912,0.0,0.0,0.0,0.0,0.0,0.0,0.0,0.0,0.0,0.0,0.0,0.0,0.0,0.0,0.0,0.0,0.0,0.0,0.0,0.0,0.0,0.0,0.0,0.0,0.0,0.0,0.0,0.0,0.0,0.0,0.0,0.0,0.0,0.0,0.0,0.0,0.0,-2.1811,-2.171,-2.2071,-2.2325,-2.2138,0.0,0.0,0.0,0.0,0.0,0.0,-2.5611,-2.6119,-2.6881,-2.7909,-2.8444,-2.9165,-3.0127,-3.0368,-3.0581,-3.0795,-3.0862,-3.0902,-3.0915,-3.1209,-3.1343,-3.1356,-3.157,-3.1664,-3.1557,-3.002,-2.9205,-2.8831,-2.7642,-2.5163,-2.2014,-2.0929,-1.8452,-1.5615,0.0,0.0,0.0,0.0,0.0,0.0,0.0,0.0,0.0,0.0,0.0,-3.4963,-3.6834,-4.0078,-4.2773,-4.4531,-4.3984,-4.2773,-4.0897,-3.678,-3.3555,-3.163,-2.9165,-2.9352,-3.2583,-4.3239,-5.1395,-5.6742,-6.0204,-6.232,-6.3205,-6.4128,-6.4412,-6.4219,-6.5048,-6.336,-5.9637,-5.5957,-5.299,-5.0119,-4.2853,0.0,0.0,0.0,0.0,0.0,0.0,0.0,0.0,0.0,0.0,0.0,0.0,0.0,0.0,0.0,0.0,0.0,0.0,0.0,0.0,0.0,0.0,0.0,0.0,0.0,0.0,0.0,0.0,0.0,0.0,0.0,0.0,0.0,0.0,0.0,0.0,0.0,0.0,-2.3688,-2.4396,0.0,0.0,0.0,0.0,-2.4943,-2.5264,-2.5959,-2.7094,-2.7442,-2.8283,-2.974,-3.0087,-3.0408,-3.0742,-3.0768,-3.0782,-3.0795,-3.1076,-3.1209,-3.1209,-3.1517,-3.165,-3.165,-3.1664,-3.1664,-3.1664,-3.1557,-3.0862,-2.982,-2.9459,-2.5981,-2.1108,-2.1452,-1.888,-1.5183,0.0,0.0,0.0,-2.4654,-2.4823,-2.4993,-2.5182,-2.6033,-2.7025,-2.799,-3.2857,-3.7194,-3.9569,-4.4844,-4.8906,-5.0625,-5.1523,-5.0545,-4.7042,-4.2208,-3.8645,-3.6818,-3.3685,-3.5853,-4.4162,-5.0317,-5.5703,-6.0281,-6.2589,-6.4128,-6.4974,-6.582,-6.6093,-6.5916,-6.6256,-6.5304,-6.3429,-6.1592,-5.8275,-5.4047,-5.0373,-4.4265,0.0,0.0,0.0,0.0,0.0,0.0,0.0,0.0,0.0,0.0,0.0,0.0,0.0,0.0,0.0,0.0,0.0,0.0,0.0,0.0,0.0,0.0,0.0,0.0,0.0,0.0,0.0,0.0,0.0,0.0,0.0,0.0,0.0,0.0,0.0,0.0,0.0,-2.4102,-2.4997,0.0,-2.4823,-2.5638,-2.6279,-2.6466,-2.7642,-2.8524,-2.8951,-2.9432,-2.994,-3.0461,-3.0581,-3.0782,-3.1062,-3.1076,-3.1169,-3.1356,-3.1463,-3.1517,-3.1517,-3.1623,-3.1664,-3.1664,-3.1664,-3.1664,-3.1664,-3.1664,-3.1423,-3.1036,-3.0929,-2.8741,-2.5465,-2.5627,-2.2534,-1.8198,0.0,-2.5505,0.0,-2.4809,-2.4956,-2.5077,-2.5293,-2.6381,-2.8018,-3.0425,-3.5775,-4.0721,-4.4257,-4.9726,-5.3633,-5.4765,-5.5911,-5.4865,-5.0705,-4.6068,-4.2538,-4.0447,-3.8859,-4.2547,-5.2164,-5.5126,-5.8665,-6.2935,-6.4359,-6.5474,-6.632,-6.7167,-6.7424,-6.72,-6.72,-6.6799,-6.6072,-6.5521,-6.2604,-5.8023,-5.5541,-5.0015,-4.2924,0.0,0.0,0.0,0.0,0.0,0.0,0.0,0.0,0.0,0.0,0.0,0.0,0.0,0.0,0.0,0.0,0.0,0.0,0.0,0.0,0.0,0.0,0.0,0.0,0.0,0.0,0.0,0.0,0.0,0.0,0.0,0.0,0.0,0.0,-2.5669,-2.5197,-2.4703,-2.5852,-2.6466,-2.5879,-2.6974,-2.7843,-2.8136,-2.9339,-3.0114,-3.0207,-3.0675,-3.0942,-3.0942,-3.1036,-3.1183,-3.137,-3.137,-3.153,-3.181,-3.181,-3.1864,-3.1971,-3.1971,-3.1904,-3.1824,-3.1917,-3.1904,-3.1824,-3.1931,-3.1971,-3.1944,-3.1744,-3.0115,-2.778,-2.778,-2.4504,-1.9882,-2.6897,-2.5668,-2.466,-2.4968,-2.503,-2.5077,-2.537,-2.6978,-2.9989,-3.5185,-4.0465,-4.5703,-5.082,-5.4492,-5.6601,-5.6601,-5.6581,-5.5127,-5.1619,-4.8036,-4.4877,-4.2264,-4.4603,-4.9086,-5.5665,-5.7588,-6.0512,-6.4628,-6.5513,-6.6359,-6.7205,-6.8052,-6.8311,-6.8067,-6.8067,-6.792,-6.7687,-6.7687,-6.5794,-6.2379,-5.7988,-5.4313,-5.0624,0.0,0.0,0.0,0.0,0.0,0.0,0.0,0.0,0.0,0.0,0.0,0.0,0.0,0.0,0.0,0.0,0.0,0.0,0.0,0.0,0.0,0.0,0.0,0.0,0.0,0.0,0.0,0.0,0.0,0.0,0.0,0.0,0.0,-2.653,-2.6293,-2.5919,-2.5625,-2.7121,-2.7949,-2.7402,-2.8644,-2.9619,-2.9927,-3.0221,-3.0515,-3.0795,-3.1076,-3.1236,-3.1236,-3.1517,-3.1677,-3.1677,-3.1677,-3.1824,-3.2118,-3.2118,-3.2265,-3.2545,-3.2545,-3.2385,-3.2131,-3.2425,-3.2385,-3.2144,-3.2425,-3.2545,-3.2492,-3.1917,-3.014,-2.7996,-2.7996,-2.4824,-2.01,-2.7753,-2.6575,-2.5642,-2.5895,-2.5532,-2.5262,-2.538,-2.7466,-3.0457,-3.4449,-4.0621,-4.6133,-5.0117,-5.4141,-5.6601,-5.6601,-5.6581,-5.5608,-5.3275,-4.9351,-4.6638,-4.5676,-5.153,-5.5934,-5.8396,-6.1358,-6.3743,-6.5551,-6.6359,-6.7513,-6.8975,-6.9244,-6.919,-6.8935,-6.8935,-6.8481,-6.7687,-6.7024,-6.5838,-6.4185,-6.2443,-5.8537,-5.3345,0.0,0.0,0.0,0.0,0.0,0.0,0.0,0.0,0.0,0.0,0.0,0.0,0.0,0.0,0.0,0.0,0.0,0.0,0.0,0.0,0.0,0.0,0.0,0.0,0.0,0.0,0.0,0.0,0.0,0.0,0.0,-2.8381,-2.8476,-2.7905,-2.7755,-2.7509,-2.7428,-2.823,-2.8898,-2.9165,-2.9553,-3.0007,-3.0515,-3.0822,-3.1022,-3.1102,-3.1383,-3.1543,-3.1543,-3.1623,-3.177,-3.1984,-3.1984,-3.2131,-3.2425,-3.2425,-3.2465,-3.2545,-3.2545,-3.2505,-3.2425,-3.2505,-3.2492,-3.2425,-3.2519,-3.2545,-3.2532,-3.2372,-3.1904,-3.1309,-3.1309,-2.9175,-2.5649,-2.8203,-2.7377,-2.6626,-2.6465,-2.6135,-2.5928,-2.5976,-2.7954,-3.1456,-3.713,-4.2017,-4.6992,-5.2305,-5.5117,-5.6601,-5.6601,-5.6257,-5.4944,-5.2387,-4.9473,-4.9037,-5.1703,-5.5994,-5.9358,-6.1589,-6.3935,-6.5551,-6.6397,-6.759,-6.8706,-6.9706,-7.0052,-6.991,-6.9313,-6.9313,-6.8705,-6.7633,-6.6794,-6.5842,-6.4964,-6.4139,-6.1259,-5.7021,-5.3791,-5.1,-4.8552,-4.5635,-4.3885,-4.2644,-4.1112,0.0,0.0,0.0,0.0,0.0,0.0,0.0,0.0,0.0,0.0,0.0,0.0,0.0,0.0,0.0,0.0,0.0,0.0,0.0,0.0,0.0,0.0,0.0,0.0,-2.9299,-2.879,-2.8691,-2.8632,-2.8564,-2.8684,-2.9125,-2.9593,-3.006,-3.0207,-3.0474,-3.0942,-3.1129,-3.1276,-3.1396,-3.157,-3.1717,-3.1851,-3.1851,-3.1998,-3.2278,-3.2291,-3.2438,-3.2732,-3.2732,-3.2786,-3.2906,-3.2906,-3.2839,-3.2732,-3.2853,-3.2839,-3.2732,-3.2866,-3.2906,-3.2879,0.0,0.0,0.0,0.0,-2.8299,-2.6304,-2.8512,-2.8131,-2.7561,-2.6984,-2.6841,-2.6862,-2.6921,-2.857,-3.2827,-4.1287,-4.3984,-4.8086,-5.5742,-5.6601,-5.6601,-5.6601,-5.5781,-5.3908,-5.0642,-4.9819,-5.2182,-5.8264,-5.8858,-6.0819,-6.4666,-6.559,-6.6474,-6.7398,-6.8936,-6.9744,-6.986,-7.0497,-7.0266,-6.9313,-6.9231,-6.866,-6.7633,-6.6641,-6.5779,-6.4933,-6.3971,-6.2747,-6.0863,-5.6092,-5.3888,-5.2844,-4.8743,-4.6371,-4.5113,-4.4615,0.0,0.0,0.0,0.0,0.0,0.0,0.0,0.0,0.0,0.0,0.0,0.0,0.0,0.0,0.0,0.0,0.0,0.0,0.0,0.0,0.0,0.0,0.0,0.0,-3.041,-2.8825,-2.9058,-2.9165,-2.9272,-2.9499,-2.982,-3.0127,-3.0434,-3.0688,-3.0969,-3.1249,-3.1276,-3.141,-3.1704,-3.1717,0.0,0.0,0.0,-3.2291,-3.2599,-3.2599,-3.2746,-3.3026,-3.3026,-3.316,-3.3414,-3.3414,-3.3267,-3.304,-3.3293,-3.3267,-3.3053,-3.3347,-3.348,-3.3454,-3.2866,-3.2639,-3.2064,-2.7459,-2.5711,-2.4931,-2.9451,-2.895,-2.858,-2.8599,-2.8132,-2.775,-2.7822,-2.997,-3.4202,-4.1444,-4.4531,-4.875,-5.582,-5.6601,-5.6601,-5.6601,-5.5781,-5.4724,-5.3338,-5.5404,-5.7261,-5.8573,-6.1796,-6.4205,-6.5628,-6.6436,-6.7628,-6.9206,-6.9513,-7.0014,-7.0667,-7.0386,-6.9883,-6.9272,-6.8884,-6.8308,-6.7596,-6.593,-6.5131,-6.4866,-6.3314,-6.2436,-6.184,-5.897,-5.7692,-5.7268,-5.45,-5.3286,-5.2497,-4.9234,-4.6873,-4.4765,-4.1465,-3.8995,0.0,0.0,0.0,0.0,0.0,0.0,0.0,0.0,0.0,0.0,0.0,0.0,0.0,0.0,0.0,0.0,0.0,0.0,0.0,-3.3207,-3.2432,-3.1382,-2.9864,-2.9953,-3.0034,-2.986,-3.0301,-3.0742,-3.1036,-3.1116,-3.1263,-3.1557,-3.1583,-3.1717,-3.1998,-3.2024,-3.2158,-3.2452,-3.2465,-3.2599,-3.2893,-3.2893,-3.304,-3.3334,-3.3334,0.0,-3.3414,-3.3414,-3.3387,-3.3334,-3.3387,-3.3374,-3.3347,-3.3668,-3.3935,-3.4082,-3.348,-3.324,-3.3041,-3.2067,-3.1679,-3.09,-3.0318,-2.9901,-2.9525,-2.9187,-2.889,-2.8674,-2.8807,-3.0697,-3.4488,-4.0937,-4.3672,-4.7148,-5.2773,-5.3398,-5.3203,-5.2773,-5.2734,-5.3281,-5.457,-5.6861,-5.9287,-6.1792,-6.4155,-6.5782,-6.6474,-6.7744,-6.8821,-6.9706,-7.009,-7.0514,-7.0898,-7.033,-6.9811,-6.9272,-6.875,-6.821,-6.7542,-6.5806,-6.4999,-6.4866,-6.3124,-6.203,-6.1317,-5.9522,-5.8812,-5.8451,-5.6115,-5.5179,-5.4756,-5.2034,-4.9967,-4.8126,-4.5354,-4.2684,-3.9994,0.0,0.0,0.0,0.0,0.0,0.0,0.0,0.0,0.0,0.0,0.0,0.0,0.0,0.0,-3.6601,-3.7461,0.0,-3.4891,-3.4867,-3.2931,-3.1231,-3.0469,-3.0608,-3.0688,-3.0394,-3.0742,-3.1062,-3.1209,-3.1356,-3.1517,-3.1664,-3.1797,-3.1944,-3.2091,-3.2238,-3.2465,-3.2759,-3.2759,-3.2906,-3.3187,-3.32,-3.3267,-3.3414,-3.3414,-3.3414,-3.3414,-3.3574,-3.3654,-3.3654,-3.3801,-3.3868,-3.3881,-3.4042,-3.4189,-3.4295,-3.3988,-3.3868,-3.3448,-3.072,-2.9683,-2.8872,-3.1013,-3.0806,-3.039,-2.9583,-2.9655,-2.9841,-2.9988,-3.1538,-3.4726,-4.0469,-4.2493,-4.5024,-4.9204,-4.9673,-4.9328,-4.8437,-4.9922,-5.2187,-5.5117,-5.7522,-6.073,-6.4908,-6.5912,-6.6667,-6.7321,-6.8898,-6.9783,-6.9937,-7.0591,-7.0898,-7.0898,-7.0266,-6.9701,-6.9272,-6.8614,-6.8097,-6.7542,-6.5806,-6.4999,-6.4866,-6.3124,-6.1676,-6.0501,-5.9258,-5.8632,-5.8177,-5.6017,-5.5179,-5.4976,-5.3174,-5.1727,-5.038,-4.8647,-4.6039,-4.2937,-3.9479,-3.7857,0.0,0.0,0.0,0.0,0.0,0.0,0.0,0.0,-3.3926,-3.4941,-3.6348,-3.7519,-3.8633,-3.9746,-3.7234,-3.5475,-3.6527,-3.3353,-3.0804,-3.0795,-3.1076,-3.1156,-3.0982,-3.1169,-3.1316,-3.1316,-3.153,-3.169,-3.1744,-3.1971,-3.2158,-3.2265,-3.2505,-3.2759,-3.3053,-3.3066,-3.3173,-3.3414,-3.3414,-3.3414,-3.3414,-3.3414,-3.344,-3.3507,-3.3774,-3.3921,-3.3988,-3.4215,-3.4349,-3.4402,-3.4402,-3.4442,-3.4496,-3.4496,-3.4496,-3.3835,-2.9271,-2.7542,-2.6713,-3.1362,-3.1416,-3.1314,-3.0506,-3.106,-3.1639,-3.1703,-3.3244,-3.6055,-4.0586,-4.1979,-4.3865,-4.7326,-4.7714,-4.7406,-4.6561,-5.0781,-5.3984,-5.5234,-6.0356,-6.3903,-6.5038,-6.6492,-6.759,-6.8244,-6.9206,-7.0052,-7.0783,-7.086,-7.0898,-7.0871,-6.9847,-6.9353,-6.9272,-6.8259,-6.7794,-6.7542,-6.5806,-6.4999,-6.4866,-6.3124,-6.1676,-6.0501,-5.9258,-5.8177,-5.6991,-5.5651,-5.5179,-5.4743,-5.1943,-5.0823,-5.0268,-4.7416,-4.6245,-4.5235,-4.1456,-3.8844,-3.6386,-3.2425,-3.1543,-3.2037,-3.3387,-3.4297,-3.5762,0.0,-3.9023,-3.9043,-4.0723,-4.1504,-4.2012,-4.2539,-4.0822,-3.8915,-3.7401,-3.5289,-3.3124,-3.1316,-3.1209,-3.1316,-3.1543,-3.1597,-3.1623,-3.1623,-3.165,-3.1784,-3.2038,-3.2078,-3.2332,-3.2853,-3.2906,-3.3066,-3.336,-3.336,-3.3374,-3.3414,-3.3414,-3.3414,-3.3414,-3.3414,-3.3561,-3.3841,-3.3868,-3.4028,-3.4269,-3.4309,-3.4469,-3.471,-3.471,-3.487,-3.5097,-3.5097,-3.5097,-3.503,-3.3862,-3.3266,-3.2658,-3.2102,-3.2656,-3.2827,-3.153,-3.1637,-3.2122,-3.2732,-3.3893,-3.5703,-3.8555,-3.9677,-4.0886,-4.2704,-4.2419,-4.2163,-4.2343,-4.8024,-5.2375,-5.4203,-6.046,-6.4571,-6.5644,-6.7215,-6.8205,-6.8398,-6.9706,-7.0552,-7.0898,-7.0898,-7.0748,-7.0432,-6.9664,-6.9148,-6.8795,-6.8047,-6.7433,-6.6852,-6.5554,-6.4732,-6.4183,-6.2931,-6.1235,-5.9522,-5.8992,-5.7621,-5.5698,-5.3722,-5.2717,0.0,-4.9363,-4.8241,-4.7802,-4.6662,-4.5648,-4.4286,-4.1167,-3.9604,-3.8436,-3.6603,-3.4936,-3.418,-3.5879,-3.6973,-3.7988,-3.9434,-3.9863,-4.0391,-4.1855,-4.25,-4.2851,-4.3047,-4.0541,-3.8302,-3.7623,-3.4608,-3.2232,-3.1625,-3.149,-3.153,-3.165,-3.1664,-3.1664,-3.1664,-3.1824,-3.1971,-3.2091,-3.2425,-3.2719,-3.2959,-3.3133,-3.328,-3.3414,-3.3414,-3.3494,-3.3681,-3.3694,-3.3774,-3.3935,-3.3935,-3.4015,-3.4148,-3.4322,-3.4563,-3.483,-3.483,-3.4897,-3.5017,-3.5017,-3.5084,-3.5191,-3.5191,-3.5191,-3.4953,-3.297,-3.2239,-3.183,-3.3058,-3.3695,-3.3942,-3.281,-3.2645,-3.29,-3.3631,-3.4492,-3.5584,-3.7113,-3.7832,-3.8387,-3.8863,-3.8078,-3.7973,-3.9129,-4.4915,-4.9946,-5.3378,-5.9436,-6.3872,-6.6013,-6.7667,-6.8513,-6.8398,-7.0052,-7.0898,-7.0898,-7.0748,-7.0494,-7.0095,-6.9433,-6.8847,-6.8464,-6.793,-6.723,-6.6344,-6.5426,-6.4495,-6.3574,-6.2358,-6.0703,-5.8722,-5.8451,-5.665,-5.4092,-5.1654,-5.0556,-4.9695,-4.6404,-4.5155,-4.5046,-4.4573,-4.3966,-4.28,-3.9879,-3.8366,-3.7641,-3.7545,-3.6643,-3.6152,-3.7851,-3.9199,-4.0098,-4.0098,-4.0684,-4.1484,-4.2422,-4.2949,-4.3281,-4.3418,-4.0225,-3.7463,-3.7825,-3.422,-3.1423,-3.1637,-3.1664,-3.1664,-3.1664,-3.1744,-3.1784,-3.1784,-3.1984,-3.2131,-3.2211,-3.2692,-3.3013,-3.3093,-3.3293,-3.3454,-3.3534,-3.3547,-3.3694,-3.4002,-3.4002,-3.4108,-3.4322,-3.4322,-3.4362,-3.4456,-3.475,-3.5004,-3.5191,-3.5191,-3.5191,-3.5191,-3.5191,-3.5191,-3.5191,-3.5191,-3.5191,-3.498,-3.2798,-3.2148,-3.171,0.0,-3.4237,-3.4322,-3.4425,-3.4477,-3.4563,-3.4644,-3.5391,-3.6297,-3.7165,-3.7255,-3.7165,-3.7011,-3.6136,-3.6315,-3.8113,-4.2232,-4.7284,-5.3197,-5.7583,-6.1766,-6.5897,-6.759,-6.8398,-6.8398,-7.0052,-7.0898,-7.0898,-7.0362,-7.0129,-7.0095,-6.9021,-6.8511,-6.8464,-6.793,-6.723,-6.6344,-6.5426,-6.4495,-6.3501,-6.1461,-5.987,-5.8632,-5.7527,-5.5027,-5.2091,-5.0291,-4.9611,-4.8729,-4.3203,-4.194,-4.2488,-4.0516,-4.0953,-4.1508,-3.7839,-3.4381,-3.2076,-3.3289,-3.5039,-3.7031,-3.873,-4.0762,-4.2324,-4.2324,-4.2676,-4.3008,-4.3047,-4.3398,-4.3828,-4.4277,-4.0642,-3.7841,-3.8186,-3.4559,-3.1664,-3.1664,-3.1664,-3.1664,-3.1664,-3.1917,-3.2091,-3.2091,-3.2104,-3.2225,-3.2505,-3.2812,-3.3106,-3.3387,-3.3414,-3.3547,-3.3855,-3.3868,-3.4015,-3.4309,-3.4309,-3.4309,-3.4322,-3.4322,-3.4469,-3.4763,-3.5057,-3.5191,-3.5191,-3.5191,-3.5191,-3.5191,-3.5191,-3.5191,-3.5191,-3.5191,-3.5191,-3.5191,-3.5191,-3.498,-3.4755,0.0,0.0,-3.5083,-3.4588,-3.5059,-3.5533,-3.5543,-3.5821,-3.6105,-3.6331,-3.6252,0.0,0.0,0.0,0.0,0.0,-4.12,-4.5272,-4.8932,-5.5306,-6.0035,-6.2474,-6.632,-6.8398,-6.8398,-7.0052,-7.0748,-7.0362,-7.0162,-6.9738,-6.9021,-6.866,-6.8308,-6.793,-6.7193,-6.6307,-6.5426,-6.4495,-6.3647,-6.2702,-6.1168,-5.987,-5.8568,-5.6934,-5.3914,-4.994,0.0,-4.4464,-4.3497,-3.9712,-3.8723,-3.9188,-4.0029,-3.9445,-3.7964,-3.4384,-3.3018,-3.3184,-3.5078,-3.6934,-3.8828,-4.084,-4.2109,-4.2851,-4.2851,-4.3183,-4.3496,-4.3496,-4.3164,-4.2988,-4.3437,-3.9876,-3.6943,-3.7496,-3.4294,-3.1664,-3.1664,-3.1664,-3.1744,-3.1931,-3.2051,-3.2185,-3.2372,-3.2572,-3.2719,-3.2826,-3.3106,-3.34,-3.3708,-3.3721,-3.3868,-3.4162,-3.4175,-3.4322,-3.4616,-3.4616,-3.471,-3.4897,-3.4897,-3.495,-3.5057,-3.5151,-3.5297,-3.5485,-3.5485,-3.5591,-3.5765,-3.5565,-3.5485,-3.5458,-3.5271,-3.5191,-3.5217,-3.5418,-3.5364,-3.4795,0.0,0.0,0.0,-3.5999,-3.6215,0.0,0.0,0.0,0.0,0.0,0.0,0.0,0.0,0.0,0.0,0.0,0.0,-4.3612,-4.6701,-5.2145,-5.6494,-5.9319,-6.2589,-6.4385,-6.4576,-6.5613,-6.6404,-6.6764,-6.7159,-6.746,-6.7654,-6.8011,-6.7996,-6.7687,-6.6794,-6.5904,-6.4933,-6.4113,-6.2905,-6.1609,-5.9646,-5.8055,-5.6441,-5.3714,-5.0326,0.0,-4.2223,-3.9936,-3.851,-3.6019,-3.5504,-3.6282,-3.7939,-3.7326,-3.5603,-3.3556,-3.3276,-3.4238,-3.6855,-3.8613,-4.0195,-4.2344,-4.3223,-4.3594,-4.373,-4.3984,-4.418,-4.418,-4.3359,-4.2793,-4.3223,-3.9573,-3.6773,-3.8197,-3.541,-3.2988,-3.31,-3.3114,-3.2858,-3.2418,-3.2345,-3.2492,-3.2679,-3.2959,-3.3093,-3.2986,-3.3347,-3.3668,-3.3881,-3.3988,-3.4175,-3.4469,-3.4482,-3.4616,-3.491,-3.4923,-3.5017,-3.5191,-3.5297,-3.5351,-3.5351,-3.5458,-3.5618,-3.5792,-3.5792,-3.5899,-3.6059,-3.5872,-3.5792,-3.5765,-3.5578,-3.5511,-3.5538,-3.5725,-3.5672,-3.5312,0.0,0.0,0.0,0.0,0.0,0.0,0.0,0.0,0.0,0.0,0.0,0.0,0.0,0.0,0.0,0.0,0.0,0.0,-4.6317,-4.826,-5.1452,-5.6395,-5.6797,-5.7105,-5.7619,-5.7657,-5.8644,-6.0657,-6.1651,-6.3376,-6.5746,-6.6736,-6.723,-6.7176,-6.6279,-6.5421,-6.4478,-6.3588,-6.2038,-5.9858,-5.6731,-5.4378,-5.226,-4.8206,-4.4876,-4.2052,-3.8901,-3.6444,-3.441,-3.225,-3.2607,-3.412,-3.4678,-3.4733,-3.4714,-3.5402,-3.5012,-3.5059,-3.834,-3.9941,-4.1172,-4.3223,-4.4082,-4.4531,-4.4941,-4.5019,-4.5,-4.4902,-4.3867,-4.3086,-4.3418,-3.9609,-3.7208,-4.0026,-3.7353,-3.5271,-3.5598,-3.5658,-3.4855,-3.2908,-3.2812,-3.2986,-3.3,-3.3253,-3.3293,-3.3026,-3.3547,-3.3895,-3.3908,-3.4189,-3.4469,-3.4763,-3.4776,-3.4923,-3.5191,-3.5191,-3.5204,-3.5217,-3.5498,-3.5631,-3.5658,-3.5939,-3.6086,-3.6099,-3.6099,-3.6099,-3.6112,-3.6099,-3.6099,-3.6099,-3.6086,-3.6072,-3.6072,-3.6086,-3.6086,-3.6072,0.0,0.0,0.0,0.0,0.0,0.0,0.0,0.0,0.0,0.0,0.0,0.0,0.0,0.0,0.0,0.0,0.0,0.0,-4.2008,-4.5285,-4.8286,-5.0849,-5.3734,-5.5646,-5.6434,-5.7042,-5.7667,-5.8428,-5.8726,-5.9313,-6.0222,-6.0492,-6.0684,-6.069,-5.9769,-5.8881,-5.7946,-5.7065,-5.5719,-5.3952,-5.2245,-5.0474,-4.8657,-4.6109,-4.2899,-3.9387,-3.7698,-3.5529,-3.3496,-3.3305,-3.4568,-3.6327,-3.753,-3.6986,-3.6018,-3.563,-3.6583,-3.8164,-3.9394,-4.1269,-4.3105,-4.4004,-4.4551,-4.4902,-4.5,-4.5019,-4.4648,-4.3359,-4.2324,-4.1387,-4.0508,-3.749,-3.539,-3.6425,-3.4593,-3.2941,-3.3023,-3.323,-3.3297,-3.3023,-3.2933,-3.3066,-3.328,-3.3374,-3.3374,-3.3307,-3.3668,-3.3975,-3.4202,-3.4496,-3.479,-3.507,-3.5084,-3.5124,-3.5191,-3.5191,-3.5311,-3.5525,-3.5591,-3.5738,-3.5965,-3.6046,-3.6193,-3.6393,-3.6393,-3.6513,-3.6687,-3.6473,-3.6393,-3.6366,-3.6153,-3.6072,-3.6099,-3.6313,-3.6259,-3.6139,0.0,0.0,0.0,0.0,0.0,0.0,0.0,0.0,0.0,0.0,0.0,0.0,0.0,0.0,0.0,0.0,0.0,0.0,0.0,-4.2737,-4.5017,-4.692,-4.8768,-5.0194,-5.1292,-5.1367,-5.2315,-5.4088,-5.3817,-5.4679,-5.6667,-5.6413,-5.6331,-5.6288,-5.5113,-5.4441,-5.4158,-5.2909,-5.1685,0.0,0.0,-4.7007,-4.4768,-4.2336,-3.9559,-3.6811,-3.5809,-3.5724,-3.6038,-3.626,-3.7163,-3.8494,-3.8957,-3.8244,-3.704,-3.7055,-3.8223,-3.9766,-4.0976,-4.2617,-4.4121,-4.457,-4.5,-4.5156,-4.457,-4.4453,-4.3906,-4.1992,-4.0918,-3.9961,-3.8848,-3.6375,-3.4883,-3.5904,-3.483,-3.383,-3.3957,-3.4252,-3.3976,-3.3332,-3.3173,-3.3227,-3.34,-3.3414,-3.3467,-3.3614,-3.3908,-3.4148,-3.4309,-3.4723,-3.503,-3.5191,-3.5191,-3.5191,-3.5191,-3.5191,-3.5338,-3.5631,-3.5765,-3.5979,-3.6273,-3.6393,-3.654,-3.6687,-3.6687,-3.6794,-3.6941,-3.6754,-3.6687,-3.6687,-3.6513,-3.6473,-3.6473,-3.6647,-3.658,-3.65,0.0,0.0,0.0,0.0,0.0,0.0,0.0,0.0,0.0,0.0,-3.9738,-3.97,-4.0431,-4.0508,0.0,0.0,0.0,0.0,0.0,0.0,-4.2117,-4.4297,-4.3578,-4.3765,-4.501,-4.4246,-4.55,-4.8852,-4.8254,-4.9758,-5.3327,-5.2881,-5.2607,-5.2467,-5.0976,-5.0527,-5.0784,-4.936,-4.8421,-4.7681,-4.5866,-4.3446,-4.0789,0.0,-3.5953,-3.4554,-3.4299,-3.6584,-3.9636,-3.9674,-3.9966,-4.0453,-3.998,-3.9023,-3.8221,-3.9287,-3.9863,-4.0644,-4.2558,-4.3769,-4.457,-4.4941,-4.5391,-4.5391,-4.4023,-4.3652,-4.2969,-4.0664,-3.9531,-3.8672,-3.7754,-3.5894,-3.5125,-3.678,-3.6275,-3.5658,-3.5691,-3.6059,-3.5419,-3.3574,-3.3414,-3.3414,-3.3414,-3.3414,-3.3547,-3.3855,-3.4162,-3.4336,-3.4376,-3.4897,-3.5191,-3.5191,-3.5191,-3.5191,-3.5191,-3.5231,-3.5404,-3.5698,-3.5992,-3.6286,-3.658,-3.6834,-3.6941,-3.6941,-3.6941,-3.6941,-3.6941,-3.6941,-3.6941,-3.6941,-3.6941,-3.6941,-3.6941,-3.6941,-3.6941,-3.6941,0.0,0.0,0.0,0.0,0.0,0.0,0.0,0.0,0.0,0.0,-4.2047,-4.0354,0.0,0.0,0.0,0.0,0.0,0.0,0.0,0.0,0.0,-4.3013,-4.2706,-4.289,-4.3781,-4.3251,-4.3574,-4.4874,-4.4313,-4.4749,-4.616,-4.606,-4.575,-4.5244,-4.489,-4.4033,-4.2865,-4.312,-4.2376,-4.1053,-4.0347,-3.8917,-3.7059,-3.5629,0.0,0.0,-3.5495,-3.7563,-3.9865,-4.0535,-4.1345,-4.1904,-4.2043,-4.1088,-4.0144,-4.0996,-4.166,-4.2148,-4.2871,-4.3984,-4.4941,-4.5,-4.5605,-4.5762,-4.4082,-4.3437,-4.2266,-3.9043,-3.7969,-3.7266,-3.6055,-3.5247,-3.4728,-3.447,-3.4478,-3.4233,-3.3381,-3.3579,-3.3733,-3.34,-3.3414,-3.3414,-3.3414,-3.3414,-3.3547,-3.3855,-3.4162,-3.4429,-3.467,-3.5004,-3.5191,-3.5191,-3.5191,-3.5191,-3.5191,-3.5431,-3.5698,-3.6006,-3.6286,-3.658,-3.6861,-3.6901,-3.6941,-3.6941,-3.6941,-3.6941,-3.6941,-3.6941,-3.6941,-3.6941,-3.6941,-3.6941,-3.6941,-3.6941,-3.6941,-3.6941,0.0,0.0,0.0,0.0,0.0,0.0,0.0,-4.2816,-4.3701,-4.7124,-4.6163,-4.4432,-4.2662,-4.1524,-4.1008,0.0,0.0,0.0,0.0,0.0,0.0,-4.2506,-4.2386,-4.2551,-4.3069,-4.2808,-4.3152,-4.4056,0.0,-4.2568,-4.386,-4.2245,-4.1339,-4.1016,-4.0227,-3.9755,-3.9668,-3.9535,-3.9133,-3.8575,-3.8312,-3.7344,-3.5817,-3.5266,0.0,0.0,-3.5981,-3.799,-4.0034,-3.989,-4.0998,-4.261,-4.2619,-4.1603,-4.0742,-4.1816,-4.2266,-4.2558,-4.3223,-4.4043,-4.4746,-4.4961,-4.5508,-4.5293,-4.2656,-4.1894,-4.0644,-3.6719,-3.5937,-3.5703,-3.4863,-3.4778,-3.49,-3.4759,-3.4549,-3.4173,-3.3865,-3.3612,-3.3414,-3.3414,-3.3414,-3.3414,-3.3414,-3.3561,-3.3788,-3.4095,-3.4389,-3.4616,-3.475,-3.503,-3.5191,-3.5191,-3.5351,-3.5418,-3.5418,-3.5712,-3.6006,-3.6299,-3.6433,-3.6647,-3.6941,-3.6941,-3.6941,-3.6941,-3.6941,-3.6941,-3.6941,-3.6941,-3.6941,-3.6941,-3.6941,-3.6941,-3.6941,-3.6941,-3.6941,-3.6941,0.0,0.0,0.0,0.0,0.0,0.0,0.0,-4.5432,-4.6471,-5.024,-5.0279,-4.8798,-4.586,-4.3656,-4.2259,0.0,0.0,0.0,0.0,0.0,0.0,0.0,0.0,0.0,-4.2693,0.0,0.0,-4.3482,-4.165,0.0,0.0,0.0,0.0,0.0,-3.7112,-3.7187,-3.81,-3.7383,-3.7256,0.0,0.0,-3.6576,-3.5463,0.0,0.0,0.0,0.0,-3.7992,-3.9512,-3.8571,-3.9733,-4.1455,-4.1247,-4.078,-4.0625,-4.1816,-4.2148,-4.2383,-4.3418,-4.4101,-4.4609,-4.4941,-4.543,-4.4883,-4.1328,-4.0449,-3.918,-3.4941,-3.4258,-3.4375,-3.4238,-3.4639,-3.519,-3.5638,-3.4838,-3.4397,-3.4847,-3.3823,-3.32,-3.3387,-3.3414,-3.3414,-3.3414,-3.3694,-3.4002,-3.4295,-3.4656,-3.4857,-3.4857,-3.507,-3.5231,-3.5284,-3.5511,-3.5658,-3.5725,-3.6019,-3.6273,-3.65,-3.658,-3.6727,-3.6941,-3.6941,-3.6941,-3.6941,-3.6941,-3.6941,-3.6941,-3.6941,-3.6941,-3.6941,-3.6941,-3.6941,-3.6941,-3.6941,-3.6941,-3.6941,0.0,0.0,0.0,0.0,0.0,0.0,0.0,-4.7317,-4.951,-5.4472,-5.3126,-5.1121,-4.9733,-4.7335,-4.4908,0.0,0.0,0.0,0.0,0.0,0.0,0.0,0.0,0.0,0.0,0.0,0.0,-4.1186,-4.0534,0.0,0.0,0.0,0.0,0.0,0.0,-3.6626,-3.6663,-3.6237,0.0,0.0,0.0,0.0,0.0,0.0,0.0,0.0,0.0,-3.7489,-3.712,-3.7247,-3.7089,-3.6894,-3.6614,-3.8151,-4.0117,-4.1035,-4.1289,-4.1641,-4.3262,-4.4316,-4.498,-4.5019,-4.5644,-4.5234,-4.1387,-4.0234,-3.8828,-3.4883,-3.3789,-3.3769,-3.4512,-3.5062,-3.5572,-3.6102,-3.4996,-3.4249,-3.481,-3.3281,-3.2519,-3.332,-3.3414,-3.3414,-3.3414,-3.3694,-3.4002,-3.4295,-3.4843,-3.5151,-3.5151,-3.5177,-3.5311,-3.5578,-3.5618,-3.5765,-3.6032,-3.6326,-3.6473,-3.65,-3.6754,-3.6901,-3.6941,-3.6941,-3.6941,-3.6941,-3.6941,-3.6941,-3.6941,-3.6941,-3.6941,-3.6941,-3.6941,-3.6941,-3.6941,-3.6941,-3.6941,-3.6941,0.0,0.0,0.0,0.0,0.0,0.0,-4.7048,-4.7471,-4.9586,-5.5665,-5.5126,-5.3903,-5.3112,-5.1166,-4.7998,-4.3374,0.0,0.0,0.0,0.0,0.0,0.0,0.0,0.0,0.0,0.0,-4.1457,-4.11,-4.0788,0.0,0.0,0.0,0.0,0.0,0.0,-3.7322,-3.7575,-3.6765,0.0,0.0,0.0,0.0,0.0,0.0,0.0,0.0,0.0,0.0,-3.7947,-3.7566,-3.7309,-3.6939,-3.55,-3.607,-3.7656,-4.0078,-4.0976,-4.1543,-4.3242,-4.416,-4.4707,-4.4961,-4.4883,-4.4004,-4.1172,-3.959,-3.7832,-3.4707,-3.373,-3.3691,-3.4551,-3.5078,-3.5486,-3.5623,-3.4683,-3.3889,-3.335,-3.2533,-3.1971,-3.2318,-3.2826,-3.3213,-3.3387,-3.3855,-3.4349,-3.4817,-3.507,-3.5271,-3.5444,-3.5458,-3.5511,-3.5631,-3.5965,-3.6219,-3.6326,-3.662,-3.6754,-3.6754,-3.6874,-3.6941,-3.6941,-3.6941,-3.6941,-3.6941,-3.6941,-3.6941,-3.6941,-3.6941,-3.6941,-3.6941,-3.6941,-3.6941,-3.6941,-3.6941,-3.6941,-3.6941,0.0,0.0,0.0,0.0,0.0,-4.3547,-4.7201,-4.7894,-5.001,-5.5549,-5.5511,-5.4818,-5.4476,-5.2191,-4.9013,-4.4795,-4.3315,0.0,0.0,0.0,0.0,0.0,0.0,0.0,0.0,0.0,-4.1938,-4.1439,-4.1352,-4.103,0.0,0.0,-3.8697,-3.8249,0.0,0.0,0.0,0.0,0.0,0.0,0.0,0.0,0.0,0.0,0.0,0.0,0.0,0.0,0.0,0.0,0.0,-3.567,-3.4108,-3.4097,-3.543,-3.8633,-4.0059,-4.0996,-4.2832,-4.3945,-4.4648,-4.4961,-4.4473,-4.332,-4.1035,-3.918,-3.7187,-3.4609,-3.373,-3.3691,-3.4551,-3.4961,-3.5452,-3.5906,-3.4573,-3.3323,-3.3214,-3.1841,-3.1022,-3.137,-3.2038,-3.2639,-3.3106,-3.3935,-3.4656,-3.5164,-3.5191,-3.5324,-3.5618,-3.5712,-3.5792,-3.5885,-3.6286,-3.654,-3.6647,-3.6834,-3.6941,-3.6941,-3.6941,-3.6941,-3.6941,-3.6941,-3.6941,-3.6941,-3.6941,-3.6941,-3.6941,-3.6941,-3.6941,-3.6941,-3.6941,-3.6941,-3.6941,-3.6941,-3.6941,-3.6941,0.0,0.0,0.0,0.0,0.0,0.0,-4.6509,-4.9048,-5.1587,-5.4203,-5.378,-5.3215,-5.321,-4.9599,-4.7102,-4.7059,-4.4856,0.0,0.0,0.0,0.0,0.0,0.0,0.0,0.0,0.0,-4.221,-4.2019,-4.196,-4.1174,-3.9632,-3.9632,-3.8825,-3.7404,0.0,0.0,0.0,0.0,0.0,0.0,0.0,0.0,-3.6408,0.0,0.0,0.0,0.0,0.0,0.0,0.0,0.0,0.0,0.0,-3.2402,-3.3945,-3.6562,-3.8223,-3.9687,-4.1855,-4.3711,-4.5019,-4.5019,-4.4707,-4.3711,-4.1113,-3.918,-3.7187,-3.4609,-3.373,-3.3691,-3.4551,-3.4707,-3.541,-3.7578,-3.4333,-3.2528,-3.4864,-3.1739,-2.9499,-3.0662,-3.1062,-3.1583,-3.2465,-3.3895,-3.4883,-3.5177,-3.5191,-3.5324,-3.5618,-3.5912,-3.6206,-3.6473,-3.65,-3.6647,-3.6941,-3.6941,-3.6941,-3.6941,-3.6941,-3.6941,-3.6941,-3.6941,-3.6941,-3.6941,-3.6941,-3.6941,-3.6941,-3.6941,-3.6941,-3.6941,-3.6941,-3.6941,-3.6941,-3.6941,-3.6941,-3.6941,0.0,0.0,0.0,0.0,0.0,0.0,0.0,-4.6317,-4.8317,-5.1471,-5.0943,-5.0798,-5.2205,-4.9514,-4.7452,-4.7132,-4.4892,0.0,0.0,0.0,0.0,0.0,0.0,0.0,0.0,-4.239,-4.3046,-4.3469,-4.3259,-4.2879,-4.2416,-4.134,-4.0359,-3.9439,-3.899,-3.8531,0.0,0.0,0.0,0.0,0.0,-3.6759,-3.6985,0.0,0.0,0.0,0.0,0.0,0.0,0.0,0.0,0.0,0.0,0.0,0.0,-3.416,-3.6387,-3.8672,-4.0273,-4.1523,-4.2324,-4.2031,-4.1621,-4.0937,-3.9512,-3.7851,-3.6211,-3.4785,-3.3926,-3.3691,-3.4551,-3.4707,-3.5085,-3.5996,-3.502,-3.3754,-3.2476,-3.2215,-3.1827,-3.063,-3.2011,-3.3307,-3.4002,-3.4482,-3.4883,-3.5177,-3.5191,-3.5418,-3.5912,-3.6019,-3.6206,-3.65,-3.6687,-3.6834,-3.6941,-3.6941,-3.6941,-3.6941,-3.6941,-3.6941,-3.6941,-3.6941,-3.6941,-3.6941,-3.6941,-3.6941,-3.6941,-3.6941,-3.6941,-3.6941,-3.6941,-3.6941,-3.6941,-3.6941,-3.6941,-3.6941,0.0,0.0,0.0,0.0,0.0,0.0,0.0,-4.5124,-4.6855,-4.8971,-4.8482,-4.8694,-5.0778,-4.8227,-4.655,-4.7058,-4.4711,0.0,0.0,0.0,0.0,0.0,0.0,0.0,-4.161,-4.265,-4.3542,-4.4432,-4.3969,-4.3741,-4.3884,-4.2952,-4.1863,-4.0756,-4.0098,-3.9189,0.0,0.0,0.0,0.0,-3.7036,-3.7362,-3.7262,0.0,0.0,0.0,0.0,0.0,0.0,0.0,0.0,0.0,0.0,0.0,0.0,0.0,-3.498,-3.707,-3.8711,-4.0019,-4.0859,-4.0586,-4.0078,-3.9414,-3.8535,-3.7012,-3.5527,-3.4648,-3.4043,-3.3887,-3.457,-3.4844,-3.5162,-3.575,-3.4805,-3.3517,-3.2357,-3.2052,-3.1676,-3.0953,-3.2545,-3.3895,-3.4389,-3.4736,-3.5004,-3.5177,-3.5191,-3.5458,-3.6046,-3.6072,-3.6259,-3.6647,-3.6834,-3.6941,-3.6941,-3.6941,-3.6941,-3.6941,-3.6941,-3.6941,-3.6941,-3.6941,-3.6941,-3.6941,-3.6941,-3.6941,0.0,-3.6941,-3.6941,-3.6941,-3.6941,-3.6941,-3.6941,-3.6941,-3.6941,-3.6941,0.0,0.0,0.0,0.0,0.0,0.0,0.0,-4.524,-4.6817,-4.6817,-4.6431,-4.6896,-4.8833,-4.6001,-4.4744,-4.6691,0.0,0.0,0.0,0.0,0.0,0.0,0.0,0.0,-4.2301,-4.2991,-4.3814,-4.4833,-4.4195,-4.4067,-4.4526,-4.4526,-4.3399,-4.1441,-4.0895,-3.9357,0.0,0.0,0.0,-3.6508,-3.7588,-3.7739,0.0,0.0,0.0,0.0,0.0,0.0,0.0,0.0,0.0,0.0,0.0,0.0,0.0,0.0,0.0,0.0,0.0,-3.8887,-4.0156,-4.0117,-3.9512,-3.8711,-3.7891,-3.6484,0.0,-3.4258,-3.4082,-3.4219,-3.4707,-3.5117,-3.5703,-3.6699,-3.4088,-3.2332,-3.3823,-3.1335,-2.9913,-3.1623,-3.2826,-3.3627,-3.3921,-3.471,-3.5191,-3.5191,-3.5217,-3.5471,-3.6046,-3.6086,-3.6366,-3.6941,-3.6941,-3.6941,-3.6941,-3.6941,-3.6941,-3.6941,-3.6941,-3.6941,-3.6941,-3.6941,-3.6941,-3.6941,-3.6941,-3.6941,-3.6941,-3.6941,-3.6941,-3.6941,-3.6941,-3.6941,-3.6941,-3.6941,-3.6941,-3.6941,0.0,0.0,0.0,0.0,0.0,0.0,0.0,0.0,0.0,0.0,-4.5382,-4.5193,-4.5655,-4.4451,-4.3818,0.0,0.0,0.0,0.0,0.0,0.0,0.0,0.0,0.0,-4.2228,-4.3262,-4.4077,-4.4693,-4.5361,-4.6033,-4.6591,-4.6591,-4.5065,-4.2291,-4.1695,-3.9732,0.0,0.0,-3.6609,-3.7061,-3.7739,-3.8191,0.0,0.0,0.0,0.0,-3.9647,-3.7953,0.0,0.0,0.0,0.0,0.0,0.0,0.0,0.0,-3.3301,-3.3906,-3.4746,0.0,-3.6504,-3.6152,-3.6172,-3.6152,0.0,-3.5156,-3.4707,-3.418,-3.4082,-3.4414,-3.5508,-3.5527,-3.6094,-3.8262,-3.622,-3.4623,-3.5015,-3.3139,-3.2131,-3.324,-3.4002,-3.4469,-3.4549,-3.495,-3.5191,-3.5191,-3.5404,-3.5685,-3.6059,-3.6286,-3.658,-3.6941,-3.6941,-3.6941,-3.6941,-3.6941,-3.6941,-3.6941,-3.6941,-3.6941,-3.6941,-3.6941,-3.6941,-3.6941,-3.6941,-3.6941,-3.6941,-3.6941,-3.6941,-3.6941,-3.6941,-3.6941,-3.6941,-3.6941,-3.6941,-3.6941,0.0,0.0,0.0,0.0,0.0,0.0,0.0,0.0,0.0,0.0,0.0,-4.4546,-4.4346,-4.3855,0.0,0.0,0.0,0.0,0.0,0.0,0.0,0.0,0.0,-4.2209,-4.2202,-4.2717,-4.3505,-4.4569,-4.5163,-4.6202,-4.7758,-4.6874,-4.5201,-4.2941,-4.0574,-3.8324,-3.6379,-3.6944,-3.7136,-3.7287,-3.8341,0.0,0.0,0.0,0.0,0.0,-3.9697,-3.7881,0.0,-3.634,-3.4686,-3.2519,0.0,0.0,0.0,0.0,-3.3242,-3.3476,-3.3711,-3.4707,-3.5625,-3.5371,-3.5351,-3.5273,-3.4805,-3.4394,-3.3984,-3.3574,-3.3945,-3.4648,-3.5566,-3.5496,-3.6142,-3.8292,-3.6142,-3.396,-3.3676,-3.3149,-3.3026,-3.3801,-3.4402,-3.4817,-3.495,-3.5097,-3.5191,-3.5191,-3.5471,-3.5765,-3.6059,-3.6353,-3.6647,-3.6941,-3.6941,-3.6941,-3.6941,-3.6941,-3.6941,-3.6941,-3.6941,-3.6941,-3.6941,-3.6941,-3.6941,-3.6941,-3.6941,-3.6941,-3.6941,-3.6941,-3.6941,-3.6941,-3.6941,-3.6941,-3.6941,-3.6941,-3.6941,-3.6941,0.0,0.0,0.0,0.0,0.0,0.0,0.0,0.0,0.0,0.0,0.0,0.0,0.0,0.0,0.0,0.0,0.0,0.0,0.0,0.0,0.0,0.0,-4.2285,-4.2249,-4.2244,-4.2027,-4.2747,-4.4526,-4.481,-4.6142,-4.8416,-4.6832,-4.5092,-4.3162,-3.8989,-3.6599,-3.578,-3.7262,-3.7663,-3.7437,-3.8969,0.0,0.0,0.0,0.0,0.0,0.0,0.0,0.0,-3.6462,-3.4951,-3.293,-3.373,0.0,0.0,0.0,0.0,0.0,-3.3555,-3.4883,-3.6113,-3.5723,-3.5449,-3.5156,-3.4629,-3.3945,-3.334,-3.3047,-3.3906,-3.4848,-3.5335,-3.5554,-3.6253,-3.7811,-3.5622,-3.3169,-3.2016,-3.2639,-3.3427,-3.3895,-3.4469,-3.491,-3.511,-3.5177,-3.5217,-3.5257,-3.5538,-3.5819,-3.6126,-3.6393,-3.6687,-3.6941,-3.6941,-3.6941,-3.6941,-3.6941,-3.6941,-3.6941,-3.6941,-3.6941,-3.6941,-3.6941,-3.6941,-3.6941,-3.6941,-3.6941,-3.6941,-3.6941,-3.6941,-3.6941,-3.6941,-3.6941,-3.6941,-3.6941,-3.6941,-3.6941,0.0,0.0,0.0,0.0,0.0,0.0,0.0,0.0,0.0,0.0,0.0,0.0,0.0,0.0,0.0,0.0,0.0,0.0,0.0,0.0,0.0,-4.3171,-4.2525,-4.2294,-4.2591,-4.2559,-4.3118,-4.4379,-4.6586,-4.8177,-4.9134,-4.931,-4.6771,-4.1877,-3.8678,-3.6849,-3.6282,-3.701,-3.7538,-3.7939,-3.8693,0.0,0.0,0.0,0.0,0.0,0.0,0.0,0.0,-3.5039,-3.3881,-3.2871,-3.3359,0.0,0.0,0.0,0.0,0.0,-3.4199,-3.5781,-3.6582,-3.4375,-3.4316,-3.459,-3.3789,-3.3516,-3.3516,-3.3809,-3.4316,-3.4911,-3.5736,-3.6495,-3.7402,-3.8795,-3.7926,-3.5899,-3.2844,-3.3614,-3.4429,-3.4269,-3.4776,-3.5057,-3.4857,-3.5057,-3.5297,-3.5538,-3.5832,-3.6126,-3.6433,-3.6727,-3.6901,-3.6941,-3.6941,-3.6941,-3.6941,-3.6941,-3.6941,-3.6941,-3.6941,-3.6941,-3.6941,-3.6941,-3.6941,-3.6941,-3.6941,-3.6941,-3.6941,-3.6941,-3.6941,-3.6941,-3.6941,-3.6941,-3.6941,-3.6941,-3.6941,-3.6941,0.0,0.0,0.0,0.0,0.0,0.0,0.0,0.0,0.0,0.0,0.0,0.0,0.0,0.0,0.0,0.0,0.0,0.0,0.0,0.0,0.0,-4.3718,-4.333,-4.3035,-4.2736,-4.3288,-4.4297,-4.5933,-4.8237,-4.9853,-5.084,-4.8423,-4.4413,-3.92,-3.7475,-3.6433,-3.6006,-3.7136,-3.7764,-3.809,0.0,0.0,0.0,0.0,0.0,0.0,0.0,0.0,0.0,0.0,-3.3923,-3.291,-3.3574,0.0,0.0,0.0,0.0,0.0,-3.3789,-3.4941,-3.5781,-3.5293,-3.6523,-3.7734,-3.7344,-3.6894,-3.6406,-3.5918,-3.6523,-3.6942,-3.6111,-3.6375,-3.6549,-3.6327,-3.6205,-3.5578,-3.3489,-3.3708,-3.4108,-3.4295,-3.4696,-3.4977,-3.499,-3.5124,-3.5311,-3.5605,-3.5912,-3.6206,-3.65,-3.6794,-3.6941,-3.6941,-3.6941,-3.6941,-3.6941,-3.6941,-3.6941,-3.6941,-3.6941,-3.6941,-3.6941,-3.6941,-3.6941,-3.6941,-3.6941,-3.6941,-3.6941,-3.6941,-3.6941,-3.6941,-3.6941,-3.6941,-3.6941,-3.6941,-3.6941,-3.6941,0.0,0.0,0.0,0.0,0.0,0.0,0.0,0.0,0.0,0.0,0.0,0.0,0.0,0.0,0.0,0.0,0.0,0.0,0.0,0.0,-4.4138,-4.3773,-4.4022,-4.4047,-4.353,-4.4388,-4.5843,-4.7997,-4.9823,-5.0917,-5.1199,-4.6671,-4.2048,-3.7538,-3.686,-3.6332,-3.6031,-3.7412,-3.809,-3.8291,0.0,0.0,0.0,0.0,0.0,0.0,0.0,0.0,0.0,0.0,0.0,0.0,0.0,0.0,0.0,-3.3672,-3.3281,-3.3086,-3.3711,-3.4512,-3.5508,-3.6914,-3.8379,-3.9629,-4.0234,-3.9531,-3.8633,-3.8144,-3.8445,-3.8291,-3.6988,-3.6593,-3.6177,-3.5137,-3.5154,-3.5082,-3.4314,-3.3935,-3.4002,-3.4469,-3.4723,-3.495,-3.5177,-3.5191,-3.5351,-3.5712,-3.5939,-3.6233,-3.658,-3.6834,-3.6941,-3.6941,-3.6941,-3.6941,-3.6941,-3.6941,-3.6941,-3.6941,-3.6941,-3.6941,-3.6941,-3.6941,-3.6941,-3.6941,-3.6941,-3.6941,-3.6941,-3.6941,-3.6941,-3.6941,-3.6941,-3.6941,-3.6941,-3.6941,-3.6941,-3.6941,0.0,0.0,0.0,0.0,0.0,0.0,0.0,0.0,0.0,0.0,0.0,0.0,0.0,0.0,0.0,0.0,0.0,0.0,0.0,0.0,-4.334,-4.3069,-4.4213,-4.5216,-4.5987,-4.6112,-4.7459,-5.0032,-5.1379,-5.0847,-4.8527,-4.5213,-4.1925,-3.8693,-3.7613,-3.7111,-3.7111,-3.7739,-3.8316,-3.8868,-3.9446,0.0,0.0,0.0,0.0,0.0,0.0,0.0,0.0,0.0,0.0,0.0,0.0,0.0,-3.4062,-3.4043,-3.3711,-3.3652,-3.4902,-3.5879,-3.6934,-3.8613,-3.7676,-3.6973,-3.9394,-3.8633,-3.7988,-3.9902,-3.875,-3.7792,-3.8736,-3.8642,-3.8181,-3.8056,-3.7632,-3.6479,-3.5017,-3.491,-3.5084,-3.5124,-3.5151,-3.5177,-3.5191,-3.5191,-3.5431,-3.6006,-3.6059,-3.6313,-3.6861,-3.6941,-3.6941,-3.6941,-3.6941,-3.6941,-3.6941,-3.6941,-3.6941,-3.6941,-3.6941,-3.6941,-3.6941,-3.6941,-3.6941,-3.6941,-3.6941,-3.6941,-3.6941,-3.6941,-3.6941,-3.6941,-3.6941,-3.6941,-3.6941,-3.6941,-3.6941,-3.6941,0.0,0.0,0.0,0.0,0.0,0.0,0.0,0.0,0.0,0.0,0.0,0.0,0.0,0.0,0.0,0.0,0.0,0.0,0.0,-4.2691,-4.3103,-4.4154,-4.4543,-4.5233,-4.6262,-4.7519,-4.9434,-5.2067,-5.1807,-5.0284,-4.7604,-4.4118,-4.1041,-3.8291,-3.7538,-3.7186,-3.7236,-3.8165,-3.8668,-3.8919,-3.9471,-3.9697,0.0,0.0,0.0,0.0,0.0,0.0,0.0,0.0,-3.295,-3.2715,-3.3613,-3.416,-3.4414,-3.4141,-3.3769,-3.3594,-3.4355,-3.5605,-3.7012,-3.8457,-3.8613,-3.9101,-4.168,-4.2187,-4.2168,-4.2441,-4.1416,-4.0031,-3.8642,-3.6916,-3.6041,-3.7348,-3.6419,-3.5569,-3.5186,-3.5124,-3.5191,-3.5191,-3.5191,-3.5191,-3.5191,-3.5364,-3.5631,-3.6046,-3.6233,-3.6513,-3.6901,-3.6941,-3.6941,-3.6941,-3.6941,-3.6941,-3.6941,-3.6941,-3.6941,-3.6941,-3.6941,-3.6941,-3.6941,-3.6941,-3.6941,-3.6941,-3.6941,-3.6941,-3.6941,-3.6941,-3.6941,-3.6941,-3.6941,-3.6941,-3.6941,-3.6941,-3.6941,-3.6941,0.0,0.0,0.0,0.0,0.0,0.0,0.0,0.0,0.0,0.0,0.0,0.0,0.0,0.0,0.0,0.0,0.0,0.0,-4.1614,-4.173,-4.2382,-4.3553,-4.4039,-4.4908,-4.6262,-4.8057,-5.0152,-5.2546,-5.1091,-4.8957,-4.6079,-4.2791,-4.0333,-3.8768,-3.7839,-3.7739,-3.8266,-3.8693,-3.8969,-3.917,-3.9747,-3.9848,0.0,0.0,0.0,0.0,0.0,0.0,0.0,0.0,-3.2828,-3.2773,-3.373,-3.4336,-3.4668,-3.4531,-3.4668,-3.4883,-3.5039,-3.6152,-3.7617,-3.9043,-3.9746,-4.0801,-4.3516,-4.4277,-4.4324,-4.3785,-4.2941,-4.1384,-3.8007,-3.6564,-3.6119,-3.6868,-3.5907,-3.4963,-3.5164,-3.5191,-3.5191,-3.5191,-3.5191,-3.5231,-3.5324,-3.5511,-3.5792,-3.6179,-3.6393,-3.6647,-3.6941,-3.6941,-3.6941,-3.6941,-3.6941,-3.6941,-3.6941,-3.6941,-3.6941,-3.6941,-3.6941,-3.6941,-3.6941,-3.6941,-3.6941,-3.6941,-3.6941,-3.6941,-3.6941,-3.6941,-3.6941,-3.6941,-3.6941,-3.6941,-3.6941,-3.6941,-3.6941,-3.6941,0.0,0.0,0.0,0.0,0.0,0.0,0.0,0.0,0.0,0.0,0.0,0.0,0.0,0.0,0.0,0.0,0.0,0.0,-4.0139,-4.063,-4.0938,-4.0696,-4.2571,-4.4419,-4.6232,-4.7578,-4.9224,-5.1199,-4.9165,-4.6682,-4.3486,-4.0875,-3.9973,-4.0425,-3.8768,-3.8944,-4.0425,-3.9346,-3.9195,-3.9747,-4.03,-4.0199,-3.9772,0.0,0.0,0.0,0.0,0.0,0.0,0.0,-3.368,-3.2539,-3.4687,-3.5078,-3.4805,-3.5254,-3.6582,-3.7812,-3.7383,-3.791,-3.9004,-4.0723,-4.0859,-4.1367,-4.4355,-4.4043,-4.326,-4.3615,-4.3,-4.1171,-3.7171,-3.8333,-3.9516,-3.767,-3.6215,-3.5191,-3.5191,-3.5191,-3.5191,-3.5191,-3.5204,-3.5311,-3.5605,-3.5631,-3.5872,-3.6473,-3.65,-3.6647,-3.6941,-3.6941,-3.6941,-3.6941,-3.6941,-3.6941,-3.6941,-3.6941,-3.6941,-3.6941,-3.6941,-3.6941,-3.6941,-3.6941,-3.6941,-3.6941,-3.6941,-3.6941,-3.6941,-3.6941,-3.6941,-3.6941,-3.6941,-3.6941,-3.6941,-3.6941,-3.6941,-3.6941,0.0,0.0,0.0,0.0,0.0,0.0,0.0,0.0,0.0,0.0,0.0,0.0,0.0,0.0,0.0,0.0,0.0,0.0,-4.0139,-4.0112,-4.0323,-4.0696,-4.2053,-4.3012,-4.3539,-4.4103,-4.5786,-4.8623,-4.6217,-4.4103,-4.2266,-4.0517,-3.9572,-3.9396,-4.0049,-3.9973,-3.9396,-3.9848,-4.0124,-4.0325,-4.0877,-4.1003,-4.0746,0.0,0.0,0.0,0.0,0.0,0.0,0.0,0.0,0.0,-3.3613,-3.4746,-3.5527,-3.5039,-3.5703,-3.6426,-3.5664,-3.7656,-4.0,-4.0215,-4.2441,-4.4902,-4.6094,-4.584,-4.466,-4.2346,-3.9877,-3.7768,-3.655,-3.639,-3.6521,-3.7221,-3.6215,-3.5191,-3.5191,-3.5191,-3.5191,-3.5191,-3.5378,-3.5538,-3.5618,-3.6006,-3.6313,-3.65,-3.6687,-3.6834,-3.6941,-3.6941,-3.6941,-3.6941,-3.6941,-3.6941,-3.6941,-3.6941,-3.6941,-3.6941,-3.6941,-3.6941,-3.6941,-3.6941,-3.6941,-3.6941,-3.6941,-3.6941,-3.6941,-3.6941,-3.6941,-3.6941,-3.6941,-3.6941,-3.6941,-3.6941,-3.6941,-3.6941,0.0,0.0,0.0,0.0,0.0,0.0,0.0,0.0,0.0,0.0,-4.7939,-4.7715,0.0,0.0,0.0,-4.3047,-4.1847,-4.0646,-3.9299,-3.901,-3.906,-3.9382,-4.0781,-4.1799,-4.2149,-4.2537,-4.2923,-4.3526,-4.2668,-4.1492,-4.0244,-4.0311,-4.0526,-4.0877,-4.2108,-4.1957,-4.0852,-4.1304,-4.1254,-4.0927,-4.1907,-4.2057,-4.1572,0.0,0.0,0.0,0.0,0.0,0.0,0.0,0.0,0.0,-3.3164,-3.4141,-3.5078,-3.5586,-3.6465,-3.7422,-3.8105,-4.0,-4.2012,-4.2969,-4.4766,-4.6601,-4.7715,-4.6064,-4.3898,-4.1766,-3.9183,-3.6839,-3.6006,-3.6068,-3.6285,-3.6414,-3.5858,-3.5191,-3.5191,-3.5191,-3.5191,-3.5191,-3.5458,-3.5672,-3.5792,-3.6233,-3.654,-3.6687,-3.6834,-3.6941,-3.6941,-3.6941,-3.6941,-3.6941,-3.6941,-3.6941,-3.6941,-3.6941,-3.6941,-3.6941,-3.6941,-3.6941,-3.6941,-3.6941,-3.6941,-3.6941,-3.6941,-3.6941,-3.6941,-3.6941,-3.6941,-3.6941,-3.6941,-3.6941,-3.6941,-3.6941,-3.6941,-3.6941,0.0,0.0,0.0,0.0,0.0,0.0,0.0,0.0,0.0,-4.8234,-4.7756,-4.7132,0.0,0.0,0.0,-4.2475,-4.1655,-4.0206,-3.7976,-3.7745,-3.7671,-3.7464,-3.9397,-4.0879,-4.1782,-4.2032,-4.0586,-3.7325,-3.9097,-3.9232,-3.8065,-4.04,-4.2283,-4.374,-4.4342,-4.4267,-4.3614,-4.3011,-4.2208,-4.148,-4.3037,-4.3087,-4.2173,-4.0974,0.0,0.0,0.0,0.0,0.0,0.0,0.0,0.0,-3.3105,-3.3398,-3.3887,-3.625,-3.7988,-3.9726,-4.2441,-4.3496,-4.4492,-4.7285,-4.7285,-4.7109,-4.8749,-4.5304,-4.1604,-4.1571,-3.9688,-3.7244,-3.5112,-3.6796,-3.7501,-3.5558,-3.5191,-3.5191,-3.5191,-3.5217,-3.5231,-3.5231,-3.5511,-3.5819,-3.6086,-3.638,-3.6647,-3.6901,-3.6941,-3.6941,-3.6941,-3.6941,-3.6941,-3.6941,-3.6941,-3.6941,-3.6941,-3.6941,-3.6941,-3.6941,-3.6941,-3.6941,-3.6941,-3.6941,-3.6941,-3.6941,-3.6941,-3.6941,-3.6941,-3.6941,-3.6941,-3.6941,-3.6941,-3.6941,-3.6941,-3.6941,-3.6941,-3.6941,0.0,0.0,0.0,0.0,0.0,0.0,0.0,0.0,-4.8199,-4.8269,-4.7756,-4.7132,-4.646,-4.5865,0.0,-4.2475,-4.1655,-4.0206,-3.7976,-3.8153,-3.831,-3.8222,-3.9689,-4.0856,-4.1504,-3.9047,-3.7643,-3.7174,-3.7998,-3.8285,-3.8065,-4.1178,-4.2811,-4.3187,-4.4192,-4.384,-4.2459,-4.1455,-4.1153,-4.1404,-4.2183,-4.2635,-4.2538,-3.952,-3.777,0.0,0.0,0.0,0.0,0.0,0.0,0.0,-3.2656,-3.3164,-3.3535,-3.4082,-3.6367,-3.8769,-3.9082,-4.1894,-4.498,-4.5976,-4.7539,-4.8467,-4.7091,-4.4528,-4.2476,-4.2179,-3.865,-3.5292,-3.4958,-3.5355,-3.5727,-3.5177,-3.5191,-3.5191,-3.5191,-3.5391,-3.5538,-3.5538,-3.5992,-3.634,-3.6393,-3.6687,-3.6861,-3.6941,-3.6941,-3.6941,-3.6941,-3.6941,-3.6941,-3.6941,-3.6941,-3.6941,-3.6941,-3.6941,-3.6941,-3.6941,-3.6941,-3.6941,-3.6941,-3.6941,-3.6941,-3.6941,-3.6941,-3.6941,-3.6941,-3.6941,-3.6941,-3.6941,-3.6941,-3.6941,-3.6941,-3.6941,-3.6941,-3.6941,0.0,0.0,0.0,0.0,0.0,0.0,0.0,0.0,-4.8669,-4.7951,-4.7342,-4.6539,-4.5536,-4.4888,0.0,0.0,-4.0532,-3.9295,-3.7326,-3.7124,-3.7667,-3.8811,-3.9955,-4.0392,-3.9843,-3.826,-3.6928,-3.5917,-3.7071,-3.7739,-3.809,-4.143,-4.3263,-4.3815,-4.4945,-4.4493,-4.2886,-4.2057,-4.1706,-4.1806,-4.261,-4.26,-4.1647,-3.9105,-3.7099,-3.5107,-3.2492,0.0,0.0,0.0,0.0,0.0,0.0,0.0,-3.3066,-3.4297,-3.5801,-3.7637,-4.0293,-4.2676,-4.4902,-4.6992,-4.8691,-4.9165,-4.6992,-4.4583,-4.2585,-4.1198,-3.7693,-3.4963,-3.4963,-3.5097,-3.5244,-3.5378,-3.5404,-3.5458,-3.5591,-3.5752,-3.5845,-3.5845,-3.6233,-3.65,-3.65,-3.6754,-3.6941,-3.6941,-3.6941,-3.6941,-3.6941,-3.6941,-3.6941,-3.6941,-3.6941,-3.6941,-3.6941,-3.6941,-3.6941,-3.6941,-3.6941,-3.6941,-3.6941,-3.6941,-3.6941,-3.6941,-3.6941,-3.6941,-3.6941,-3.6941,-3.6941,-3.6941,-3.6941,-3.6941,-3.6941,-3.6941,-3.6941,-3.6941,0.0,0.0,0.0,0.0,0.0,0.0,0.0,0.0,0.0,-4.7398,-4.6514,-4.5572,-4.4347,-4.3488,-4.2244,0.0,0.0,0.0,-3.6723,-3.6213,-3.7015,-3.932,-3.9886,-3.9612,-3.8394,-3.7872,-3.6806,-3.5152,-3.6508,-3.7713,-3.8793,-4.1731,-4.3765,-4.4945,-4.5598,-4.5095,-4.374,-4.2811,-4.2208,-4.1957,-4.2861,-4.2174,-4.033,-3.8826,-3.6384,-3.3654,-3.2077,-3.1797,-3.2187,-3.2344,0.0,0.0,0.0,0.0,-3.2598,-3.4824,-3.5527,-3.6719,-4.1797,-4.3535,-4.4844,-4.8691,-4.9525,-4.8881,-4.6502,-4.4259,-4.1911,-3.9063,-3.6831,-3.5191,-3.5191,-3.5231,-3.5351,-3.5591,-3.5672,-3.5792,-3.6046,-3.6112,-3.6153,-3.6153,-3.6393,-3.658,-3.658,-3.6794,-3.6941,-3.6941,-3.6941,-3.6941,-3.6941,-3.6941,-3.6941,-3.6941,-3.6941,-3.6941,-3.6941,-3.6941,-3.6941,-3.6941,-3.6941,-3.6941,-3.6941,-3.6941,-3.6941,-3.6941,-3.6941,-3.6941,-3.6941,-3.6941,-3.6941,-3.6941,-3.6941,-3.6941,-3.6941,-3.6941,-3.6941,-3.6941,0.0,0.0,0.0,0.0,0.0,0.0,0.0,0.0,0.0,0.0,-4.5411,-4.4362,-4.3534,-4.2301,-4.112,-4.015,-3.8727,-3.753,-3.6662,0.0,0.0,-3.9379,-3.8796,-3.8533,-3.8808,-3.6462,-3.5739,-3.686,-3.7086,-3.8693,-4.163,-4.3037,-4.4543,-4.6024,-4.4719,-4.4016,-4.3639,-4.1178,-4.0375,-4.0752,-4.0902,-4.0267,-3.9077,-3.7155,-3.5391,-3.3654,-3.2077,-3.1797,-3.2285,-3.3008,-3.3047,0.0,0.0,0.0,-3.2305,-3.3008,-3.4785,-3.6758,-3.793,-4.1484,-4.5683,-4.9219,-4.8347,-4.6107,-4.3704,-4.1452,-3.9063,-3.6216,-3.5401,-3.5191,-3.5191,-3.5404,-3.5578,-3.5618,-3.5845,-3.6032,-3.6059,-3.6286,-3.6433,-3.6433,-3.6687,-3.6874,-3.6874,-3.6901,-3.6941,-3.6941,-3.6941,-3.6941,-3.6941,-3.6941,-3.6941,-3.6941,-3.6941,-3.6941,-3.6941,-3.6941,-3.6941,-3.6941,-3.6941,-3.6941,-3.6941,-3.6941,-3.6941,-3.6941,-3.6941,-3.6941,-3.6941,-3.6941,-3.6941,-3.6941,-3.6941,-3.6941,-3.6941,-3.6941,-3.6941,-3.6941,0.0,0.0,0.0,0.0,0.0,0.0,0.0,0.0,0.0,0.0,0.0,-4.335,-4.2227,-4.1238,-4.0114,-3.891,-3.7765,-3.6754,-3.6006,-3.7158,-3.7912,-3.796,-3.7698,-3.7565,-3.7601,-3.5981,-3.583,-3.7186,-3.7186,-3.9195,-4.3087,-4.3564,-4.4694,-4.6225,-4.4543,-4.3639,-4.3187,-4.0727,-4.0023,-4.0526,-4.0526,-4.0144,-3.9323,-3.6951,-3.5371,-3.4061,-3.1899,-3.1601,-3.2266,-3.2871,-3.3262,-3.3496,-3.3437,0.0,0.0,0.0,-3.3769,-3.5625,-3.9199,-4.2891,-4.6504,-4.9726,-4.9723,-4.7637,-4.4008,-4.219,-4.0286,-3.6006,-3.5191,-3.5191,-3.5191,-3.5297,-3.5498,-3.5832,-3.5992,-3.6179,-3.6513,-3.6647,-3.6754,-3.6754,-3.6861,-3.6941,-3.6941,-3.6941,-3.6941,-3.6941,-3.6941,-3.6941,-3.6941,-3.6941,-3.6941,-3.6941,-3.6941,-3.6941,-3.6941,-3.6941,-3.6941,-3.6941,-3.6941,-3.6941,-3.6941,-3.6941,-3.6941,-3.6941,-3.6941,-3.6941,-3.6941,-3.6941,-3.6941,-3.6941,-3.6941,-3.6941,-3.6941,-3.6941,-3.6941,-3.6941,0.0,0.0,0.0,0.0,0.0,0.0,0.0,0.0,0.0,0.0,0.0,-4.2243,-4.0759,0.0,0.0,0.0,-3.6753,-3.6102,-3.5554,-3.6686,-3.7168,-3.6605,-3.6878,-3.6797,-3.6241,-3.5788,-3.6006,-3.6985,-3.7262,-3.9597,-4.379,-4.394,-4.5045,-4.6853,-4.5171,-4.4041,-4.3263,-4.1053,-4.0425,-4.0978,-4.0854,-4.0504,-3.9781,-3.8231,-3.698,-3.5684,-3.3125,-3.2676,-3.3281,-3.3027,-3.3379,-3.3867,-3.3652,-3.3516,0.0,0.0,0.0,-3.459,-3.998,-4.2949,-4.5351,-4.8926,-4.8995,-4.7149,-4.3841,-4.2238,-4.008,-3.6019,-3.5191,-3.5191,-3.5191,-3.5257,-3.5471,-3.5992,-3.6139,-3.6366,-3.6861,-3.6941,-3.6941,-3.6941,-3.6941,-3.6941,-3.6941,-3.6941,-3.6941,-3.6941,-3.6941,-3.6941,-3.6941,-3.6941,-3.6941,-3.6941,-3.6941,-3.6941,-3.6941,-3.6941,-3.6941,-3.6941,-3.6941,-3.6941,-3.6941,-3.6941,-3.6941,-3.6941,-3.6941,-3.6941,-3.6941,-3.6941,-3.6941,-3.6941,-3.6941,-3.6941,-3.6941,-3.6941,-3.6941,-3.6941,0.0,0.0,0.0,0.0,0.0,0.0,0.0,0.0,0.0,0.0,0.0,-4.0725,-3.9148,-3.8367,-3.7562,-3.6722,-3.6006,-3.5554,-3.5519,-3.6686,-3.699,-3.6,-3.6682,0.0,-3.5574,-3.5494,-3.583,-3.6408,-3.7462,-3.9973,-4.3815,-4.4342,-4.6024,-4.856,-4.6928,-4.5573,-4.4392,-4.2183,-4.158,-4.2123,-4.2019,-4.1034,-4.0012,-4.1278,-4.0934,-3.9277,-3.668,-3.6055,-3.6133,-3.4082,-3.3418,-3.3516,-3.3906,-3.375,-3.3418,0.0,0.0,0.0,-3.7793,-3.916,-4.0781,-4.5859,-4.379,-4.109,-4.2493,-3.9046,-3.5612,-3.5191,-3.5191,-3.5191,-3.5191,-3.5418,-3.5712,-3.6019,-3.6299,-3.658,-3.6901,-3.6941,-3.6941,-3.6941,-3.6941,-3.6941,-3.6941,-3.6941,-3.6941,-3.6941,-3.6941,-3.6941,-3.6941,-3.6941,-3.6941,-3.6941,-3.6941,-3.6941,-3.6941,-3.6941,-3.6941,-3.6941,-3.6941,-3.6941,-3.6941,-3.6941,-3.6941,-3.6941,-3.6941,-3.6941,-3.6941,-3.6941,-3.6941,-3.6941,-3.6941,-3.6941,-3.6941,-3.6941,-3.6941,-3.6941,0.0,0.0,0.0,0.0,0.0,0.0,0.0,0.0,0.0,0.0,0.0,0.0,0.0,-3.7758,-3.6904,-3.66,-3.5943,-3.5699,-3.6118,-3.635,-3.6288,-3.6039,-3.6035,-3.5864,-3.5532,-3.5511,-3.5981,-3.6885,-3.7287,-3.9094,-4.2258,-4.3514,-4.4819,-4.6075,-4.5497,-4.5221,-4.497,-4.2057,-4.0765,-4.0725,-4.1962,-4.2032,-4.1334,-4.1212,-4.1716,-4.1933,-3.8789,-3.7402,-3.6992,-3.6484,-3.5391,-3.4277,-3.4414,-3.418,-3.3789,-3.3496,-3.3809,-3.4805,-3.7441,-3.8887,-4.0488,-4.3984,-4.4883,-4.4245,-4.159,-4.0601,-3.9462,-3.6019,-3.5351,-3.5471,-3.5471,-3.5565,-3.5725,-3.6019,-3.6313,-3.6607,-3.6901,-3.6941,-3.6941,-3.6941,-3.6941,-3.6941,-3.6941,-3.6941,-3.6941,-3.6941,-3.6941,-3.6941,-3.6941,-3.6941,-3.6941,-3.6941,-3.6941,-3.6941,-3.6941,-3.6941,-3.6941,-3.6941,-3.6941,-3.6941,-3.6941,-3.6941,-3.6941,-3.6941,-3.6941,-3.6941,-3.6941,-3.6941,-3.6941,-3.6941,-3.6941,-3.6941,-3.6941,-3.6941,-3.6941,-3.6941,0.0,0.0,0.0,0.0,0.0,0.0,0.0,0.0,-4.1561,-4.0934,0.0,0.0,0.0,0.0,-3.7187,-3.6871,-3.6416,-3.6194,-3.6271,-3.6431,-3.6175,-3.5574,-3.5827,-3.5885,-3.5529,-3.573,-3.6182,-3.691,-3.7086,-3.8517,-4.1103,-4.2384,-4.3664,-4.4895,-4.4141,-4.4518,-4.5623,-4.2683,-4.1225,-4.0928,-4.2577,-4.2548,-4.1709,-4.2505,-4.336,-4.3613,-4.1172,-3.9941,-3.9453,-3.9434,-3.8476,-3.7109,-3.6094,-3.4902,-3.3789,-3.3496,-3.3926,-3.4805,-3.623,-3.7598,-3.9238,-4.1953,-4.3241,-4.3227,-4.0929,-4.0561,-3.9659,-3.5882,-3.5431,-3.5631,-3.5631,-3.5792,-3.5992,-3.6193,-3.638,-3.6607,-3.6901,-3.6941,-3.6941,-3.6941,-3.6941,-3.6941,-3.6941,-3.6941,-3.6941,-3.6941,-3.6941,-3.6941,-3.6941,-3.6941,-3.6941,-3.6941,-3.6941,-3.6941,-3.6941,-3.6941,-3.6941,-3.6941,-3.6941,-3.6941,-3.6941,-3.6941,-3.6941,-3.6941,-3.6941,-3.6941,-3.6941,-3.6941,-3.6941,-3.6941,-3.6941,-3.6941,-3.6941,-3.6941,-3.6941,-3.6941,0.0,0.0,0.0,0.0,0.0,0.0,-4.1105,-4.0955,-4.0754,-4.0222,0.0,0.0,0.0,0.0,0.0,-3.7563,-3.7396,-3.705,-3.6029,-3.7003,-3.666,-3.4673,-3.6192,-3.6599,-3.5579,-3.6132,-3.6408,-3.6383,-3.696,-3.8341,-4.045,-4.1053,-4.2785,-4.5271,-4.3137,-4.3689,-4.608,-4.4205,-4.3203,-4.2903,-4.3589,-4.2699,-4.1295,-4.5292,-4.5937,-4.4492,-4.4023,-4.3808,-4.3633,-4.2832,-4.2441,-4.1777,-3.8769,-3.582,-3.3437,-3.3437,-3.375,-3.4101,0.0,0.0,0.0,-3.9648,-3.8353,-3.7282,-3.9885,0.0,-3.5485,-3.5166,-3.5364,-3.5591,-3.5618,-3.6112,-3.65,-3.65,-3.6513,-3.662,-3.6901,-3.6941,-3.6941,-3.6941,-3.6941,-3.6941,-3.6941,-3.6941,-3.6941,-3.6941,-3.6941,-3.6941,-3.6941,-3.6941,-3.6941,-3.6941,-3.6941,-3.6941,-3.6941,-3.6941,-3.6941,-3.6941,-3.6941,-3.6941,-3.6941,-3.6941,-3.6941,-3.6941,-3.6941,-3.6941,-3.6941,-3.6941,-3.6941,-3.6941,-3.6941,-3.6941,-3.6941,-3.6941,-3.6941,-3.6941,0.0,0.0,0.0,0.0,0.0,-4.216,-4.1834,-4.1386,-4.1001,0.0,0.0,0.0,-3.8779,-3.8947,-3.9234,-3.9529,-3.8429,-3.7721,-3.7882,-3.6294,-3.5704,-3.6323,-3.6573,-3.6615,-3.6734,-3.7262,-3.7362,-3.696,-3.7914,-3.8517,-3.8743,-4.0526,-4.1756,-4.2509,-4.3087,-4.3539,-4.3701,-4.0942,-4.048,-4.1588,-4.1805,-4.2037,-4.2784,-4.5444,-4.7148,-4.8047,-4.7598,-4.6445,-4.5195,-4.5566,-4.2988,-3.916,-3.6445,-3.4805,-3.3887,-3.3887,-3.4434,-3.4961,-3.4609,0.0,0.0,0.0,0.0,0.0,-3.77,0.0,-3.8677,-3.6363,-3.6364,-3.6406,-3.567,-3.6112,-3.65,-3.65,-3.6687,-3.6834,-3.6941,-3.6941,-3.6941,-3.6941,-3.6941,-3.6941,-3.6941,-3.6941,-3.6941,-3.6941,-3.6941,-3.6941,-3.6941,-3.6941,-3.6941,-3.6941,-3.6941,-3.6941,-3.6941,-3.6941,-3.6941,-3.6941,-3.6941,-3.6941,-3.6941,-3.6941,-3.6941,-3.6941,-3.6941,-3.6941,-3.6941,-3.6941,-3.6941,-3.6941,-3.6941,-3.6941,-3.6941,-3.6941,-3.6941,-3.6941,0.0,0.0,-4.3616,-4.3401,-4.343,-4.3404,-4.3186,-4.2557,-4.2032,0.0,0.0,0.0,-4.02,-4.0691,-4.1205,-4.1624,-4.0051,-3.8932,-3.8875,-3.6737,-3.5966,-3.6767,-3.6785,-3.6985,-3.7513,-3.7839,-3.7839,-3.7538,-3.8191,-3.8467,-3.8391,-3.9697,-4.0551,-4.1028,-4.1756,-4.1803,-4.1139,-3.828,-3.8273,-4.0484,-4.1295,-4.1802,-4.2363,-4.5605,-4.7285,-4.8008,-4.8633,-4.7832,-4.6699,-4.8281,-4.5195,-4.041,-3.873,-3.668,-3.4805,-3.4453,-3.5098,-3.5781,-3.5156,-3.582,-3.6601,-3.6269,0.0,0.0,-3.6817,-3.7641,-3.8088,0.0,-3.6054,-3.6218,-3.5711,-3.6006,-3.6326,-3.6326,-3.654,-3.6767,-3.6901,-3.6941,-3.6941,-3.6941,-3.6941,-3.6941,-3.6941,-3.6941,-3.6941,-3.6941,-3.6941,-3.6941,-3.6941,-3.6941,-3.6941,-3.6941,-3.6941,-3.6941,-3.6941,-3.6941,-3.6941,-3.6941,-3.6941,-3.6941,-3.6941,-3.6941,-3.6941,-3.6941,-3.6941,-3.6941,-3.6941,-3.6941,-3.6941,-3.6941,-3.6941,-3.6941,-3.6941,-3.6941,-3.6941,-3.6941,0.0,-4.4412,-4.4706,-4.4451,-4.4993,-4.5314,-4.4891,-4.4097,-4.3465,0.0,-4.1838,-4.1423,-4.2659,-4.324,-4.3519,-4.3528,-4.1709,-4.0179,-3.9054,-3.7723,-3.6819,-3.6528,-3.7036,-3.7588,-3.809,-3.8165,-3.8165,-3.809,-3.8165,-3.8417,-3.8868,-3.8944,-3.9496,-4.04,-3.9923,-3.9438,-3.8808,-3.6493,-3.7027,-3.9577,-4.1143,-4.1484,-4.1445,-4.5898,-4.7031,-4.6504,-4.8437,-4.8594,-4.8183,-5.0293,-4.7949,-4.3984,-4.3125,-4.0078,-3.6562,-3.5293,-3.5976,-3.6953,-3.5937,-3.6309,-3.6992,-3.7187,-3.6758,0.0,-3.6762,-3.6338,-3.5889,0.0,-3.5596,-3.565,-3.5619,-3.5931,-3.6163,-3.595,-3.6302,-3.6748,-3.6807,-3.6901,-3.6941,-3.6941,-3.6941,-3.6941,-3.6941,-3.6941,-3.6941,-3.6941,-3.6941,-3.6941,-3.6941,-3.6941,-3.6941,-3.6941,-3.6941,-3.6941,-3.6941,-3.6941,-3.6941,-3.6941,-3.6941,-3.6941,-3.6941,-3.6941,-3.6941,-3.6941,-3.6941,-3.6941,-3.6941,-3.6941,-3.6941,-3.6941,-3.6941,-3.6941,-3.6941,-3.6941,-3.6941,-3.6941,-4.4678,-4.413,-4.3903,-4.4992,-4.5446,-4.5722,-4.6013,-4.5494,-4.4821,-4.4338,-4.338,-4.3457,-4.5334,-4.5155,-4.4679,-4.424,-4.2221,-4.0322,-3.9002,-3.7413,-3.6716,-3.701,-3.799,-3.8592,-3.8693,-3.9145,-3.9145,-3.8693,-3.9145,-3.9195,-3.8868,-3.932,-3.9647,-3.9848,-3.9747,-3.9019,-3.7726,-3.7088,-3.7885,-3.9406,-3.8564,-4.0449,-4.3926,-4.6582,-4.8516,-4.9902,-5.0664,-5.0391,-4.9531,-4.8633,-4.7656,-4.6211,-4.2656,-4.1621,-4.0976,-3.7344,-3.8184,-3.9883,-3.7949,-3.8066,-3.8398,-3.7109,-3.7441,0.0,-3.6482,-3.7183,-3.7613,0.0,-3.6542,-3.6724,-3.6183,-3.6591,-3.6458,-3.4973,-3.6133,-3.715,-3.6748,-3.652,-3.6693,-3.6941,-3.6693,-3.6693,-3.6941,-3.6941,-3.6941,-3.6941,-3.6941,-3.6941,-3.6941,-3.6941,-3.6941,-3.6941,-3.6941,-3.6941,-3.6941,-3.6941,-3.6941,-3.6941,-3.6941,-3.6941,-3.6941,-3.6941,-3.6941,-3.6941,-3.6941,-3.6954,-3.7202,-3.6954,-3.6941,-3.6941,-3.6941,-3.6941,-3.6941,-3.6941,-3.6941,-3.6941,-4.505,-4.5256,-4.5718,-4.6542,-4.7359,-4.7934,-4.8067,-4.74,-4.6641,-4.5725,-4.5122,-4.5214,-4.6202,-4.6322,-4.6156,-4.5845,-4.3414,-4.159,-4.0854,-3.8592,-3.7437,-3.799,-3.8567,-3.8994,-3.927,-3.9546,-3.9572,-3.927,-3.9572,-3.9546,-3.9295,-3.9572,-4.0145,-4.0821,-3.9996,-3.8971,-3.7777,-3.6916,-3.6646,-3.6978,-3.9003,-4.2324,-4.6211,-4.8379,-5.0117,-5.1465,-5.168,-5.1621,-5.125,-4.9941,-4.8359,-4.6719,-4.541,-4.4121,-4.2519,-3.9726,-4.0293,-4.1289,-3.8906,-3.8555,-3.873,-3.8086,-3.793,0.0,0.0,-3.6924,-3.7067,-3.6771,-3.6392,-3.6074,-3.6483,-3.658,-3.6336,-3.5635,-3.6382,-3.6729,-3.5923,-3.5956,-3.6247,-3.6396,-3.6334,-3.6432,-3.6445,-3.6679,-3.6706,-3.6941,-3.6941,-3.6941,-3.6941,-3.6941,-3.6941,-3.6941,-3.6941,-3.6941,-3.6941,-3.6941,-3.6941,-3.6941,-3.6941,-3.6941,-3.6941,-3.6941,-3.6941,-3.6941,-3.7176,-3.7189,-3.7216,-3.7092,-3.6986,-3.6941,-3.6941,-3.6941,-3.6941,-3.6941,-3.6941,-3.6941,-4.5152,-4.6151,-4.7236,-4.7649,-4.8917,-4.9718,-4.9312,-4.8771,-4.7882,-4.6638,-4.7008,-4.7519,-4.7638,-4.8686,-4.9343,-4.925,-4.65,-4.4387,-4.3506,-4.0707,-3.932,-3.9798,-3.932,-3.9521,-4.0626,-4.0023,-3.9697,-3.9697,-3.9697,-3.9697,-3.9697,-3.9697,-4.0379,-4.1685,-4.0721,-3.95,-3.8034,-3.7132,-3.6352,-3.6211,-4.082,-4.4101,-4.6504,-4.9082,-5.0644,-5.1523,-5.2031,-5.2422,-5.2558,-5.1523,-4.9297,-4.7031,-4.7676,-4.623,-4.3867,-4.1601,-4.2051,-4.2656,-3.9746,-3.9062,-3.918,-3.9101,-3.8496,-3.7701,0.0,0.0,0.0,-3.6778,-3.5974,-3.5609,-3.6825,0.0,0.0,-3.6494,0.0,0.0,0.0,-3.4754,0.0,-3.5297,-3.5776,-3.5882,-3.5636,-3.5806,-3.6184,-3.6706,-3.6445,-3.6445,-3.6941,-3.6941,-3.6941,-3.6941,-3.6941,-3.6941,-3.6941,-3.6941,-3.6941,-3.6941,-3.6941,-3.6941,-3.6941,-3.6941,-3.6941,-3.6954,-3.7202,-3.7337,-3.7104,-3.7299,-3.7303,-3.6954,-3.6941,-3.6941,-3.6941,-3.6941,-3.6941,-3.6941,-4.446,-4.4765,-4.5377,-4.6684,-4.8139,-4.8754,-4.7619,-4.8047,-4.7656,-4.5737,-4.9014,-5.1768,-5.2336,-5.5089,-5.6674,-5.61,-5.3726,-5.0517,-4.649,-4.4332,-4.3162,-4.3237,-4.0902,-4.1003,-4.3991,-4.1178,-3.9697,-3.9697,-3.9697,-3.9697,-3.9697,-3.9697,-4.007,-4.0749,-4.1733,-4.0732,-3.8111,-3.9205,-4.0614,-4.2148,-4.3144,-4.2656,-4.1758,-4.582,-4.8144,-4.9531,-5.1816,-5.2676,-5.2461,-5.0859,-4.9805,-4.8594,-4.5312,-4.6367,-4.7637,-4.1758,-4.3066,-4.5527,-4.1406,-4.0859,-4.0996,-3.9121,-3.9414,-3.9382,-3.6707,0.0,-3.7009,-3.6723,0.0,-3.6227,-3.7105,0.0,0.0,-3.5288,-3.5003,0.0,-3.2295,-3.1514,0.0,-3.2127,-3.4346,-3.5165,-3.4199,-3.3889,-3.4467,-3.6432,-3.5182,-3.496,-3.6706,-3.6941,-3.6941,-3.6941,-3.6941,-3.6941,-3.6941,-3.6941,-3.6941,-3.6941,-3.6941,-3.6941,-3.6941,-3.6941,-3.6954,-3.7437,-3.7437,-3.7582,-3.8167,-3.7529,-3.7545,-3.7686,-3.7189,-3.6941,-3.6941,-3.6941,-3.6941,-3.6941,-4.3652,-4.4536,-4.5432,-4.6041,-4.6965,-4.7506,-4.7245,-4.7512,-4.7589,-4.7152,-4.9045,-5.09,-5.1917,-5.3294,-5.4331,-5.4892,-5.336,-5.0644,-4.68,-4.513,-4.3564,-4.1957,-4.0475,-4.0501,-4.2208,-4.0576,-3.9697,-3.9697,-3.9697,-3.9697,-3.9697,-3.9697,-4.0656,-4.2304,-4.2521,-4.2388,-4.1997,-4.1459,-4.1036,-4.0586,-4.2031,-4.1777,-4.123,-4.7793,-5.0781,-5.1641,-5.2988,-5.3476,-5.3379,-5.2656,-5.0625,-4.8555,-4.9414,-4.8242,-4.6211,-4.4492,-4.4492,-4.4394,-4.1348,-4.1504,-4.209,-4.0176,-4.0312,-4.0234,-3.7695,-3.7031,-3.7031,-3.7324,0.0,0.0,0.0,0.0,0.0,0.0,-3.36,-3.1983,0.0,0.0,0.0,0.0,0.0,0.0,-3.3224,-3.3488,-3.4461,-3.6177,-3.5157,-3.496,-3.6679,-3.6927,-3.6941,-3.6941,-3.6941,-3.6941,-3.6941,-3.6941,-3.6941,-3.6941,-3.6941,-3.6941,-3.6941,-3.7189,-3.7202,-3.7478,-3.7689,-3.7994,-3.7916,-3.7928,-3.7821,-3.7699,-3.7451,-3.7437,-3.7189,-3.6941,-3.7189,-3.7437,-4.2319,-4.3678,-4.4823,-4.5026,-4.5557,-4.6192,-4.6789,-4.6628,-4.686,-4.7878,-4.9374,-5.105,-5.2905,-5.4251,-5.547,-5.6652,-5.5926,-5.3794,-5.0009,-4.7649,-4.5949,-4.4869,-4.1806,-4.1103,-4.3187,-4.1053,-3.9848,-3.9697,-3.9697,-3.9848,-4.0149,-3.9998,-4.0905,-4.2825,-4.2926,-4.3309,-4.4058,-4.3157,-4.2256,-4.1523,-4.2969,-4.3828,-4.4785,-5.0019,-5.2656,-5.3594,-5.3906,-5.4023,-5.3945,-5.334,-5.1055,-4.8906,-5.1465,-4.9453,-4.6289,-4.6914,-4.6426,-4.5058,-4.2324,-4.2578,-4.3047,-4.0742,-4.0488,-4.0293,-3.8223,-3.7461,-3.7363,-3.7969,-3.7715,0.0,0.0,0.0,-3.4379,-3.4975,0.0,-2.9965,0.0,-2.8637,0.0,0.0,0.0,0.0,0.0,-3.2363,-3.3211,-3.5331,-3.4545,-3.4642,-3.6445,-3.6706,-3.6941,-3.6941,-3.6941,-3.6941,-3.6941,-3.6941,-3.6941,-3.6941,-3.6941,-3.6941,-3.6954,-3.7202,-3.7391,-3.774,-3.81,-3.82,-3.7955,-3.82,-3.821,-3.7924,-3.7911,-3.7673,-3.7659,-3.7171,-3.7485,-3.774,-4.0322,-4.1425,-4.2625,-4.3369,-4.4023,-4.4789,-4.5822,-4.5038,-4.5125,-4.707,-5.0661,-5.4281,-5.7543,-6.1912,-6.4866,-6.5548,-6.5641,-6.3461,-5.8175,-5.3561,-5.2452,-5.5566,-4.6451,-4.4066,-4.9967,-4.379,-4.0224,-3.9697,-3.9697,-4.0249,-4.1279,-4.0752,-4.0512,-4.0808,-4.2794,-4.2978,-4.1814,-4.3619,-4.5898,-4.8496,-4.8144,-5.0254,-5.3359,-5.1113,-5.1816,-5.4004,-5.4023,-5.4023,-5.3711,-5.1621,-5.082,-5.0371,-4.8398,-4.9082,-5.0195,-4.8164,-4.8984,-4.9648,-4.543,-4.4609,-4.4043,-4.0195,-3.959,-3.9473,-3.7715,-3.793,-3.8516,-3.8555,-3.8848,-3.9141,-3.918,-3.6961,-3.5168,-3.5066,-3.1574,0.0,0.0,0.0,0.0,0.0,0.0,0.0,0.0,-2.9568,-3.0292,0.0,-3.2532,-3.3337,-3.6626,-3.6941,-3.6941,-3.6941,-3.6941,-3.6941,-3.6941,-3.6941,-3.6941,-3.6941,-3.6941,-3.7176,-3.7437,-3.7437,-3.7807,-3.8379,-3.8214,-3.8459,-3.8718,-3.8459,-3.8174,-3.8148,-3.7876,-3.7876,-3.8148,-3.7876,-3.7675,-3.7876,-4.0849,-4.1238,-4.1644,-4.1914,-4.203,-4.2584,-4.4037,-4.5402,-4.7638,-5.1379,-5.3414,-5.6256,-6.0894,-6.281,-6.3818,-6.4071,-6.411,-6.2074,-5.7123,-5.41,-5.2703,-5.3457,-4.7079,-4.5171,-4.8686,-4.4418,-4.1706,-4.0777,-4.0777,-4.0777,-4.0802,-4.0978,-4.0942,-4.0666,-4.2503,-4.3923,-4.4795,-4.5619,-4.6992,-4.8437,-4.8574,-5.0117,-5.2344,-5.2617,-5.3262,-5.4023,-5.4023,-5.4023,-5.3926,-5.3183,-5.1992,-5.0918,-5.1621,-5.0391,-4.8808,-4.9512,-4.9219,-4.8359,-4.6894,-4.7656,-4.7773,-4.3301,-4.2949,-4.2734,-3.8984,-3.8574,-3.8906,-3.8633,-3.9375,-3.998,-3.9707,-3.6476,-3.3742,-3.3552,-2.9802,-2.6706,0.0,0.0,0.0,0.0,0.0,0.0,0.0,0.0,0.0,0.0,-3.324,0.0,-3.6418,-3.6706,-3.6941,-3.6941,-3.6941,-3.6941,-3.6941,-3.6941,-3.6941,-3.6941,-3.6941,-3.6941,-3.6994,-3.7516,-3.7804,-3.7942,-3.8459,-3.8718,-3.8718,-3.8718,-3.8472,-3.8472,-3.8459,-3.8459,-3.8472,-3.7942,-3.7963,-3.817,-4.1576,-4.117,-4.0915,-4.1157,-4.1156,-4.1772,-4.3476,-4.6142,-4.9494,-5.3653,-5.5388,-5.8171,-6.3228,-6.3535,-6.3468,-6.3778,-6.381,-6.1808,-5.7346,-5.5591,-5.4712,-5.4737,-5.0318,-4.8987,-5.1398,-4.7431,-4.4694,-4.3388,-4.2409,-4.1731,-4.1404,-4.0963,-4.0467,-4.0058,-4.1199,-4.2984,-4.519,-4.6279,-4.8008,-5.0078,-5.0508,-5.1367,-5.248,-5.3594,-5.3652,-5.3183,-5.3808,-5.4023,-5.4023,-5.4023,-5.3105,-5.2187,-5.3594,-5.2109,-5.0156,-5.1543,-5.0957,-4.9707,-4.8926,-4.9746,-4.9844,-4.5859,-4.476,-4.3823,-4.0919,-3.9817,-3.9462,-3.9047,-4.0067,-4.0666,-3.9738,-3.6358,-3.3449,-3.2657,-2.8981,-2.5783,0.0,-2.4196,0.0,0.0,0.0,0.0,0.0,0.0,0.0,0.0,0.0,0.0,0.0,-3.6693,-3.6941,-3.6941,-3.6941,-3.6941,-3.6941,-3.6941,-3.6941,-3.7176,-3.6941,-3.7176,-3.7478,-3.7742,-3.7818,-3.82,-3.8472,-3.8718,-3.8718,-3.8718,-3.8718,-3.8718,-3.8718,-3.8718,-3.8718,-3.8214,-3.8459,-3.82,-4.2286,-4.1186,-4.0452,-4.1196,-4.1597,-4.2303,-4.4118,-4.7249,-5.0631,-5.4012,-5.6825,-6.0266,-6.4874,-6.4764,-6.4595,-6.5186,-6.5055,-6.3207,-5.9235,-5.8378,-5.8529,-5.9684,-5.5993,-5.5189,-5.7951,-5.2553,-4.8887,-4.7305,-4.4418,-4.3011,-4.3011,-4.0797,-3.957,-3.9008,-3.8912,-4.0573,-4.3242,-4.5391,-4.9043,-5.3437,-5.3867,-5.3984,-5.3906,-5.4004,-5.2949,-5.166,-5.3398,-5.4023,-5.4023,-5.4023,-5.4023,-5.4023,-5.4023,-5.4023,-5.4023,-5.4023,-5.4023,-5.3574,-5.1523,-5.0957,-5.0351,-4.7754,-4.4883,-4.2945,-4.2997,-4.1471,-3.9995,-3.9454,-4.0729,-4.1072,-3.9406,-3.666,-3.4029,-3.2452,-2.8938,-2.5879,-2.4525,-2.4201,-2.4155,0.0,0.0,0.0,0.0,0.0,0.0,0.0,0.0,0.0,0.0,-3.6693,-3.6706,-3.6941,-3.6941,-3.6941,-3.6941,-3.6941,-3.6954,-3.7437,-3.7021,-3.7283,-3.8211,-3.8017,-3.814,-3.8718,-3.8718,-3.8718,-3.8718,-3.8718,-3.8718,-3.8718,-3.8718,-3.8718,-3.8718,-3.8718,-3.8718,-3.82,-4.2388,-4.2278,-4.2425,-4.3041,-4.2642,-4.2904,-4.4779,-4.8686,-5.2995,-5.7274,-6.1433,-6.5562,-6.9662,-6.9028,-6.8114,-6.7294,-6.5753,-6.4221,-6.2558,-6.0713,-6.0738,-6.3073,-5.9106,-5.7725,-5.9684,-5.3884,-5.0419,-4.9565,-4.5547,-4.3589,-4.3564,-4.1353,-3.9709,-3.8372,-3.8573,-4.0451,-4.3672,-4.5527,-4.9219,-5.3867,-5.3984,-5.3262,-5.2246,-5.3535,-5.2949,-5.166,-5.3398,-5.4023,-5.4023,-5.4023,-5.4023,-5.4023,-5.4023,-5.4023,-5.4023,-5.4023,-5.4023,-5.3906,-5.3359,-5.3203,-5.2656,-5.0371,-4.7421,-4.4706,-4.316,-4.1058,-3.9274,-3.8728,-3.959,-3.9671,-3.7858,-3.5568,-3.332,-3.1352,-2.8014,-2.5731,-2.5632,-2.4804,-2.4496,-2.5436,0.0,0.0,0.0,0.0,0.0,0.0,0.0,0.0,0.0,0.0,-3.5442,-3.6927,-3.6941,-3.6941,-3.6941,-3.6941,-3.6941,-3.6954,-3.7102,-3.7316,-3.7727,-3.8103,-3.818,-3.8459,-3.8718,-3.8718,-3.8718,-3.8718,-3.8718,-3.8718,-3.8718,-3.8718,-3.8718,-3.8718,-3.8718,-3.7929,-4.4215,-4.4552,-4.4782,-4.4598,-4.5495,-4.6736,-4.8115,-5.0511,-5.3952,-5.889,-6.3049,-6.6759,-6.9842,-6.9453,-6.8871,-6.8307,-6.5918,-6.3812,-6.2245,-6.2169,-6.2395,-6.2998,-6.1818,-6.1567,-6.2496,-5.8227,-5.4863,-5.2603,-4.8636,-4.5316,-4.2683,-4.0597,-3.8698,-3.721,-3.726,-3.9186,-4.2578,-4.6582,-4.9961,-5.2695,-5.3652,-5.3437,0.0,-5.3652,-5.3418,-5.2695,-5.3672,-5.4023,-5.4023,-5.4023,-5.4023,-5.4023,-5.4023,-5.4023,-5.4023,-5.4023,-5.4023,-5.4023,-5.4023,-5.4023,-5.373,-5.2519,-4.8944,-4.5413,-4.4649,-4.1298,-3.8503,-3.8318,-3.8941,-3.9021,-3.7192,-3.5078,-3.255,-2.9427,-2.7144,-2.5756,-2.559,-2.5161,-2.4956,-2.5469,-2.6071,0.0,0.0,0.0,0.0,0.0,0.0,0.0,0.0,0.0,-3.4935,-3.6445,-3.6693,-3.6706,-3.6941,-3.6706,-3.6927,-3.7189,-3.737,-3.7596,-3.7756,-3.8167,-3.8446,-3.8459,-3.8718,-3.8718,-3.8718,-3.8718,-3.8718,-3.8718,-3.8718,-3.8718,-3.8472,-3.7155,-3.7425,-3.7942,-4.6532,-4.7142,-4.7078,-4.5851,-4.891,-5.1828,-5.2935,-5.3533,-5.5568,-6.0236,-6.3977,-6.6697,-6.8273,-6.8199,-6.8269,-6.8517,-6.56,-6.2998,-6.109,-6.3224,-6.3751,-6.1918,-6.4203,-6.5509,-6.5509,-6.3199,-5.991,-5.5591,-5.1975,-4.7206,-4.1377,-3.9094,-3.732,-3.5767,-3.593,-3.7891,0.0,-4.8008,-5.0918,-5.1387,-5.3281,-5.4023,-5.4023,-5.4023,-5.4023,-5.4023,-5.4023,-5.4023,-5.4023,-5.4023,-5.4023,-5.4023,-5.4023,-5.4023,-5.4023,-5.4023,-5.4023,-5.3819,-5.3595,-5.339,-5.339,-5.2961,-4.8893,-4.5068,-4.5726,-4.1719,-3.7895,-3.7895,-3.8354,-3.8417,-3.6856,-3.4857,-3.2127,-2.795,-2.7023,-2.6571,-2.603,-2.603,-2.5843,-2.5664,-2.5961,0.0,0.0,0.0,0.0,0.0,0.0,0.0,0.0,0.0,0.0,-3.6184,-3.6445,-3.6626,-3.696,-3.6626,-3.6927,-3.7437,-3.7451,-3.7807,-3.8214,-3.8446,-3.8459,-3.8718,-3.8718,-3.8718,-3.8718,-3.8718,-3.8718,-3.8718,-3.8718,-3.8718,-3.8214,-3.5084,-3.5697,-3.762,-4.6576,-4.7804,-4.8421,-4.6733,-4.997,-5.3982,-5.7393,-6.0685,-6.3318,-6.4784,-6.9273,-7.1882,-7.0482,-6.9804,-6.8733,-6.7161,-6.5385,-6.4354,-6.4404,-6.4881,-6.5183,-6.5233,-6.6162,-6.6689,-6.6689,-6.3601,-6.0286,-5.6746,-5.1574,-4.6464,-4.1494,-3.8752,-3.6872,-3.5746,0.0,0.0,-4.5019,-4.8711,-5.1523,-5.3496,-5.3887,-5.4023,-5.4023,-5.4023,-5.4023,-5.4023,-5.4023,-5.4023,-5.4023,-5.4023,-5.4023,-5.4023,-5.4023,-5.4023,-5.4023,-5.4023,-5.4023,-5.339,-5.1237,-5.0578,-4.9936,-4.7598,-4.4414,-4.1988,-4.2111,-3.9516,-3.7196,-3.7196,-3.7196,-3.6911,-3.5352,-3.3559,-3.1766,-2.9731,-2.9248,-2.9656,-3.0408,-2.9483,-2.8662,-2.8431,-2.9715,-2.917,0.0,0.0,0.0,0.0,0.0,0.0,0.0,0.0,0.0,0.0,-3.6706,-3.6951,-3.6951,-3.6951,-3.6954,-3.7437,-3.7686,-3.7834,-3.8214,-3.8472,-3.8718,-3.8718,-3.8718,-3.8718,-3.8718,-3.8718,-3.8718,-3.8718,-3.8718,-3.8718,-3.8214,-3.5084,-3.4359,-3.3955,-4.9422,-5.0131,-5.1057,-5.1406,-5.4637,-5.8501,-6.2121,-6.664,-6.8884,-6.6789,-6.9333,-7.0621,-6.8623,-6.9118,-6.8825,-6.6847,-6.5657,-6.5007,-6.5283,-6.5559,-6.5961,-6.6538,-6.684,-6.7116,-6.7392,-6.5835,-6.2245,-5.6595,-5.3658,-4.7954,-3.987,-3.8444,-3.6686,-3.4649,0.0,-4.0605,0.0,-4.875,-5.123,-5.2461,-5.3574,-5.4023,-5.4023,-5.4023,-5.4023,-5.4023,-5.4023,-5.4023,-5.4023,-5.4023,-5.4023,-5.4023,-5.4023,-5.4023,-5.4023,-5.4023,-5.4023,-5.3595,-5.2306,-5.0804,-4.9293,-4.8018,-4.4398,-4.1213,-4.1213,-3.9061,-3.6941,-3.6941,-3.6941,-3.6445,-3.496,-3.3436,-3.2135,-3.1127,-3.0484,-3.0372,-3.1509,-3.1136,-3.0574,-3.0357,-3.0985,-3.0166,0.0,0.0,0.0,0.0,0.0,0.0,0.0,0.0,0.0,0.0,0.0,-3.67,-3.6856,-3.666,-3.6941,-3.7437,-3.7569,-3.7928,-3.8214,-3.8472,-3.8718,-3.8718,-3.8718,-3.8718,-3.8718,-3.8718,-3.8718,-3.8718,-3.8718,-3.8718,-3.8187,-3.3292,-3.1397,-3.0858,-5.3493,-5.3675,-5.4454,-5.6653,-5.9864,-6.3019,-6.5622,-7.05,-7.2595,-6.8944,-6.9632,-6.947,-6.705,-6.8713,-6.9051,-6.6603,-6.5837,-6.5459,-6.5459,-6.5986,-6.6488,-6.6965,-6.7191,-6.7518,-6.797,-6.797,-6.458,-5.7625,-5.5993,-4.9791,-3.9484,-3.8612,-3.6951,-3.498,-3.9355,-4.248,-4.4726,-4.8906,-5.0996,-5.1641,-5.334,-5.4023,-5.4043,-5.4141,-5.416,-5.418,-5.4277,-5.4297,-5.4297,-5.4297,-5.418,-5.4043,-5.4141,-5.416,-5.416,-5.416,-5.416,-5.3975,-5.2778,-5.078,-4.8561,-4.7507,-4.3668,-4.0431,-4.0373,-3.8636,-3.6941,-3.6941,-3.6941,-3.6445,-3.496,-3.4049,-3.3256,-3.2439,-3.1544,-3.1356,-3.2367,-3.2282,-3.2242,-3.2242,-3.1624,-3.0636,-2.8924,0.0,0.0,0.0,0.0,0.0,0.0,0.0,0.0,0.0,0.0,-3.6197,-3.6445,-3.6679,-3.6941,-3.7451,-3.7875,-3.7955,-3.8459,-3.8718,-3.8718,-3.8718,-3.8718,-3.8718,-3.8718,-3.8718,-3.8718,-3.8718,-3.8718,-3.8718,-3.7942,-3.1519,-2.9107,-2.858,-5.8469,-5.8442,-5.8522,-6.0558,-6.3487,-6.5652,-6.5951,-7.05,-7.3732,-7.3313,-7.442,-7.3745,-6.9765,-7.049,-6.9667,-6.5756,-6.5855,-6.6036,-6.6036,-6.6564,-6.6915,-6.6965,-6.7919,-6.8497,-6.8547,-6.8547,-6.6463,-6.222,-5.7123,-5.0709,-4.2906,-3.9579,-3.8442,-3.9355,-4.1016,-4.4414,-4.8984,-4.9863,-5.1582,-5.375,-5.3945,-5.4023,-5.4082,-5.4473,-5.4629,-5.4668,-5.5058,-5.5195,-5.5195,-5.5195,-5.4668,-5.4101,-5.4492,-5.4629,-5.4629,-5.4629,-5.4629,-5.3613,-4.8565,-4.6872,-4.5098,-3.9928,-3.8208,-3.7694,-3.7437,-3.7149,-3.6941,-3.6941,-3.6941,-3.6445,-3.496,-3.5764,-3.5734,-3.3635,-3.4123,-3.4808,-3.5119,-3.4423,-3.3715,-3.3715,-3.2145,-3.1042,-3.0652,-2.8284,0.0,0.0,0.0,0.0,0.0,0.0,0.0,-3.4935,-3.4948,-3.4948,-3.496,-3.6458,-3.7451,-3.7699,-3.8143,-3.8459,-3.8718,-3.8718,-3.8718,-3.8718,-3.8718,-3.8718,-3.8718,-3.8718,-3.8718,-3.8718,-3.8718,-3.8718,-3.7942,-3.1519,-2.9107,-2.8317,-6.5026,-6.3432,-6.3002,-6.6565,-6.6874,-6.7537,-7.032,-7.3223,-7.5108,-7.5108,-7.5587,-7.4508,-7.0727,-7.1042,-6.9829,-6.5597,-6.6112,-6.6639,-6.6639,-6.7166,-6.7618,-6.7945,-6.8396,-6.8773,-6.91,-6.9125,-6.7066,-6.2822,-5.7314,-5.1082,-4.4164,-4.1412,-4.1173,-4.3086,-4.541,-4.7734,-5.0039,-5.1758,-5.3086,-5.4023,-5.4023,-5.418,-5.4433,-5.4609,-5.4844,-5.5078,-5.5254,-5.5312,-5.5351,-5.5605,-5.5293,-5.4824,-5.5,-5.5058,-5.5058,-5.5058,-5.5058,-5.4224,-5.0242,-4.7772,-4.5269,-4.1148,-3.8834,-3.7342,-3.7235,-3.7048,-3.6941,-3.6941,-3.6941,-3.6693,-3.6184,-3.5702,-3.5666,-3.5438,-3.5229,-3.5224,-3.6168,-3.5949,-3.5666,-3.5661,-3.4698,-3.3755,-3.2775,-3.0901,0.0,0.0,0.0,0.0,0.0,0.0,0.0,-3.3717,0.0,-3.5877,-3.565,-3.6706,-3.7565,-3.8036,-3.8246,-3.8459,-3.8718,-3.8718,-3.8718,-3.8718,-3.8718,-3.8718,-3.8718,-3.8718,-3.8718,-3.8718,-3.8718,-3.8718,-3.7942,-3.1519,-2.9107,-2.8317,-7.0398,-6.8236,-6.7508,-7.1903,-7.0672,-7.0201,-7.3672,-7.5168,-7.6036,-7.6425,-7.5862,-7.4344,-7.1213,-7.0857,-6.9534,-6.6101,-6.6513,-6.7041,-6.7216,-6.7744,-6.8221,-6.8597,-6.8773,-6.9049,-6.9426,-6.9451,-6.7919,-6.4781,-5.8701,-5.3235,-4.7908,-4.4187,-4.382,-4.6445,-4.8711,-5.0312,-5.1426,-5.3262,-5.4023,-5.4043,-5.418,-5.4414,-5.4707,-5.4961,-5.5234,-5.5508,-5.5644,-5.5683,-5.5723,-5.6035,-5.5937,-5.5664,-5.5527,-5.5488,-5.5488,-5.5488,-5.4839,-5.3553,-5.0598,-4.7692,-4.4775,-4.1679,-3.9322,-3.7595,-3.7422,-3.7235,-3.7048,-3.6941,-3.6941,-3.6941,-3.6941,-3.5949,-3.5689,-3.6432,-3.5814,-3.5716,-3.6334,-3.6445,-3.6504,-3.6278,-3.5404,-3.4583,-3.4132,-3.2401,0.0,0.0,0.0,0.0,-3.1575,-3.1959,0.0,0.0,-3.5289,-3.6056,-3.5897,-3.7038,-3.7876,-3.8214,-3.8459,-3.8472,-3.8718,-3.8718,-3.8718,-3.8718,-3.8718,-3.8718,-3.8718,-3.8718,-3.8718,-3.8718,-3.8718,-3.8187,-3.6639,-3.1265,-2.8593,-2.7026,-7.3815,-7.2532,-7.2046,-7.5815,-7.4988,-7.4061,-7.4749,-7.5467,-7.6365,-7.7622,-7.5949,-7.3927,-7.175,-7.0207,-6.8732,-6.7064,-6.6965,-6.7216,-6.7744,-6.8296,-6.8622,-6.8622,-6.915,-6.9426,-6.9451,-6.9451,-6.9426,-6.9351,-6.2417,-5.7939,-5.5575,-4.7959,-4.6172,-4.9492,-4.9961,-5.1582,-5.3984,-5.4023,-5.4023,-5.4062,-5.4492,-5.4668,-5.4765,-5.5605,-5.5918,-5.5976,-5.6406,-5.6562,-5.6562,-5.6582,-5.6582,-5.6504,-5.6055,-5.5918,-5.5918,-5.5918,-5.3717,-5.0954,-4.8449,-4.5152,-4.1821,-3.9138,-3.8263,-3.8116,-3.7529,-3.7382,-3.7301,-3.7008,-3.6941,-3.6941,-3.6941,-3.6941,-3.6679,-3.5702,-3.6392,-3.6653,-3.5702,-3.5689,-3.5442,-3.4884,-3.2708,-3.2206,-3.4366,-3.2206,0.0,-3.3597,-3.3092,-3.2681,-3.295,-3.3012,-3.3561,-3.4642,-3.4806,-3.4937,-3.5169,-3.6829,-3.7942,-3.8214,-3.8472,-3.8718,-3.8718,-3.8718,-3.8718,-3.8718,-3.8718,-3.8718,-3.8718,-3.8718,-3.8718,-3.8718,-3.8718,-3.6652,-3.3547,-3.0514,-2.733,-2.421,-7.7366,-7.6047,-7.5147,-7.6149,-7.4951,-7.427,-7.5407,-7.6125,-7.6844,-7.7711,-7.5456,-7.347,-7.2837,-7.1067,-6.9163,-6.7643,-6.7869,-6.817,-6.8346,-6.8874,-6.9175,-6.9175,-6.9351,-6.9451,-6.9451,-6.9451,-6.9451,-6.9451,-6.158,-5.5578,-5.1552,-4.8969,-4.957,-5.2598,-5.2734,-5.3262,-5.4023,-5.4023,-5.4023,-5.4062,-5.4512,-5.4844,-5.5176,-5.5723,-5.6113,-5.6406,-5.6543,-5.6582,-5.6582,-5.6582,-5.6582,-5.6562,-5.6426,-5.5027,-5.3248,-5.3248,-5.1257,-4.8161,-4.5403,-4.3792,-4.2158,-3.9236,-3.8397,-3.8223,-3.8036,-3.7823,-3.7529,-3.731,-3.7202,-3.7189,-3.6941,-3.6941,-3.6706,-3.6458,-3.6693,-3.6706,-3.6458,-3.6445,-3.6445,-3.6197,-3.5463,-3.5419,-3.6081,-3.4589,-3.3646,-3.3876,-3.2536,-3.1642,-3.1806,-3.3353,-3.3927,-3.3641,-3.559,-3.6516,-3.6184,-3.7378,-3.8214,-3.8472,-3.8718,-3.8718,-3.8718,-3.8718,-3.8718,-3.8718,-3.8718,-3.8718,-3.8718,-3.8718,-3.8718,-3.8718,-3.8718,-3.6652,-3.363,-3.049,-2.7408,-2.4163,-7.9122,-7.8096,-7.7093,-7.627,-7.5286,-7.5018,-7.6096,-7.6784,-7.7442,-7.81,-7.5306,-7.3312,-7.3533,-7.1176,-6.9187,-6.8247,-6.8422,-6.8723,-6.8924,-6.925,-6.9451,-6.9451,-6.9451,-6.9451,-6.9451,-6.9451,-6.8883,-6.7898,-6.0891,-5.5238,-5.1211,-5.1211,-5.2226,-5.4023,-5.4023,-5.4023,-5.4023,-5.4023,-5.4023,-5.4082,-5.4668,-5.5078,-5.5371,-5.5957,-5.6348,-5.6582,-5.6582,-5.6582,-5.6582,-5.6582,-5.6582,-5.6582,-5.6582,-5.3669,-5.0557,-5.169,-4.9215,-4.566,-4.3656,-4.2304,-4.0958,-3.9181,-3.8584,-3.8397,-3.829,-3.8036,-3.7702,-3.7485,-3.731,-3.7202,-3.6941,-3.6941,-3.6941,-3.6941,-3.6941,-3.6941,-3.6941,-3.6941,-3.6693,-3.6184,-3.6003,-3.602,-3.602,-3.5483,-3.496,-3.496,-3.3941,-3.3242,-3.3264,-3.3904,-3.422,-3.4701,-3.6445,-3.7404,-3.7105,-3.7857,-3.8459,-3.8718,-3.8718,-3.8718,-3.8718,-3.8718,-3.8718,-3.8731,-3.8731,-3.8744,-3.8744,-3.8744,-3.8744,-3.8744,-3.8744,-3.6124,-3.1896,-3.0304,-2.6752,-2.2651,-7.921,-7.8758,-7.8109,-7.6422,-7.6045,-7.6125,-7.6784,-7.7412,-7.8041,-7.8614,-7.5621,-7.3505,-7.3921,-7.0792,-6.8673,-6.8673,-6.8673,-6.8899,-6.9401,-6.9451,-6.9451,-6.9451,-6.9451,-6.9451,-6.9451,-6.9245,-6.7715,-6.5024,-6.0222,-5.6553,-5.4023,-5.4023,-5.4023,-5.4023,-5.4023,-5.4023,-5.4023,-5.4023,-5.4023,-5.4101,-5.4961,-5.5312,-5.541,-5.6269,-5.6582,-5.6582,-5.6582,-5.6582,-5.6582,-5.6582,-5.6582,-5.6582,-5.6582,-5.2545,-4.8072,-5.0979,-4.7643,-4.2959,-4.2959,-4.0742,-3.8718,-3.8718,-3.8718,-3.8651,-3.837,-3.8076,-3.7809,-3.7622,-3.7512,-3.7464,-3.6954,-3.6941,-3.6941,-3.6941,-3.6941,-3.6941,-3.6941,-3.6941,-3.6445,-3.5182,-3.4948,-3.4948,-3.4948,-3.4948,-3.5442,-3.6693,-3.6707,-3.6814,-3.6814,-3.449,-3.4542,-3.731,-3.7545,-3.7834,-3.8214,-3.8214,-3.8459,-3.8718,-3.8718,-3.8731,-3.8731,-3.8731,-3.8731,-3.8731,-3.899,-3.9044,-3.9097,-3.9097,-3.9071,-3.9236,-3.9071,-3.5243,-2.9558,-2.9925,-2.6008,-2.0278,-7.9069,-7.8579,-7.8057,-7.6227,-7.5953,-7.6275,-7.7412,-7.7711,-7.7615,-7.717,-7.5284,-7.3486,-7.2445,-7.0395,-6.925,-6.925,-6.925,-6.93,-6.9426,-6.9451,-6.9451,-6.9451,-6.9451,-6.9451,-6.9451,-6.7507,-6.4248,-5.9637,-5.8479,-5.6553,-5.4023,-5.4023,-5.4023,-5.4023,-5.4023,-5.4023,-5.4023,-5.4023,-5.4023,-5.4101,-5.4961,-5.5312,-5.541,-5.6269,-5.6582,-5.6582,-5.6582,-5.6582,-5.6582,-5.6582,-5.6582,-5.6582,-5.6582,-5.2545,-4.7627,-4.8533,-4.4532,-3.9848,-3.9848,-3.9154,-3.8718,-3.8718,-3.8718,-3.8691,-3.8624,-3.8544,-3.8491,-3.8167,-3.801,-3.7992,-3.7754,-3.7437,-3.7202,-3.7202,-3.7176,-3.6941,-3.6941,-3.6941,-3.6706,-3.6445,-3.6432,-3.6432,-3.6432,-3.6432,-3.5962,-3.5207,-3.5178,-3.5342,-3.5578,-3.5049,-3.5455,-3.7266,-3.7778,-3.8167,-3.8214,-3.8472,-3.8718,-3.8718,-3.8718,-3.8731,-3.899,-3.899,-3.9236,-3.9508,-3.9508,-3.9501,-3.952,-3.952,-3.9519,-3.9576,-3.9442,-3.5483,-2.9796,-3.0013,-2.5938,-2.0278,-7.9151,-7.9106,-7.8817,-7.6258,-7.6395,-7.7023,-7.7711,-7.8071,-7.7826,-7.6616,-7.5035,-7.3513,-7.2005,-7.0449,-6.9451,-6.9451,-6.9451,-6.9451,-6.9451,-6.9451,-6.9451,-6.9451,-6.9451,-6.9451,-6.9451,-6.693,-6.3088,-5.7906,-5.6753,-5.5386,-5.4023,-5.4023,-5.4023,-5.4023,-5.4023,-5.4023,-5.4023,-5.4023,-5.4023,-5.4101,-5.4961,-5.5312,-5.541,-5.6269,-5.6582,-5.6582,-5.6582,-5.6582,-5.6582,-5.6582,-5.5686,-5.4571,-5.4571,-5.0337,-4.566,-4.566,-4.2304,-3.8718,-3.8718,-3.8718,-3.8718,-3.8718,-3.8718,-3.8718,-3.8718,-3.8718,-3.8678,-3.8286,-3.8357,-3.809,-3.7821,-3.7635,-3.7569,-3.7532,-3.7189,-3.6706,-3.7176,-3.6706,-3.6679,-3.6941,-3.6941,-3.6941,-3.6941,-3.6941,-3.6679,-3.5702,-3.5931,-3.6008,-3.6223,-3.6523,-3.691,-3.7697,-3.8187,-3.8446,-3.8459,-3.8718,-3.8725,-3.8979,-3.8964,-3.9118,-3.938,-3.9412,-3.9519,-3.9533,-3.9783,-3.988,-3.9661,-3.9661,-3.9827,-3.9864,-3.9692,-3.5861,-2.985,-3.0319,-2.6092,-2.0285,-7.9473,-7.9686,-7.9477,-7.6529,-7.7023,-7.7831,-7.7951,-7.8519,-7.8242,-7.6329,-7.5016,-7.3484,-7.1649,-7.0146,-6.9451,-6.9451,-6.9451,-6.9451,-6.9451,-6.9451,-6.9451,-6.9451,-6.9451,-6.9451,-6.9451,-6.6561,-6.2516,-5.7331,-5.5001,-5.4023,-5.4023,-5.4023,-5.4023,-5.4023,-5.4023,-5.4023,-5.4023,-5.4023,-5.4023,-5.4101,-5.4883,-5.5215,-5.5312,-5.6152,-5.6484,-5.6504,-5.6562,-5.6582,-5.6582,-5.6582,-5.4571,-5.2109,-5.2109,-4.8089,-4.3201,-4.3201,-4.0958,-3.8718,-3.8718,-3.8718,-3.8718,-3.8718,-3.8718,-3.8718,-3.8718,-3.8718,-3.8651,-3.837,-3.8286,-3.8339,-3.7994,-3.795,-3.7778,-3.7767,-3.7061,-3.6772,-3.721,-3.6727,-3.6458,-3.6941,-3.7088,-3.7114,-3.6954,-3.6954,-3.7021,-3.6958,-3.7365,-3.7509,-3.7525,-3.7928,-3.8214,-3.8446,-3.8446,-3.8459,-3.8718,-3.8798,-3.903,-3.9183,-3.9057,-3.9362,-3.9666,-3.9613,-3.9595,-3.9661,-3.993,-4.0185,-4.0185,-4.0185,-4.0185,-3.9943,-3.9457,-3.5486,-3.0075,-2.9918,-2.5787,-2.0539,-7.9846,-7.9164,-7.8266,-7.6824,-7.7322,-7.7981,-7.8549,-7.9208,-7.8446,-7.4856,-7.4823,-7.3635,-7.0095,-6.9556,-6.9451,-6.9451,-6.9451,-6.9451,-6.9451,-6.9451,-6.9451,-6.9451,-6.9451,-6.9451,-6.9451,-6.4813,-5.981,-5.4615,-5.4227,-5.4023,-5.4023,-5.4023,-5.4023,-5.4023,-5.4023,-5.4023,-5.4023,-5.4023,-5.4023,-5.4082,-5.457,-5.4785,-5.4863,-5.5723,-5.6035,-5.6074,-5.6445,-5.6582,-5.6582,-5.6582,-5.4571,-5.2109,-5.2109,-4.8089,-4.3201,-4.3201,-4.0958,-3.8718,-3.8718,-3.8718,-3.8718,-3.8718,-3.8718,-3.8718,-3.8718,-3.8718,-3.8718,-3.8651,-3.8678,-3.8678,-3.8638,-3.8419,-3.7928,-3.721,-3.7435,-3.7408,-3.6739,-3.7145,-3.7464,-3.7686,-3.7569,-3.7768,-3.7573,-3.7686,-3.7633,-3.7588,-3.7824,-3.7863,-3.8207,-3.8339,-3.8459,-3.8718,-3.8718,-3.8718,-3.8718,-3.9313,-3.9319,-3.9203,-3.9468,-3.9588,-3.9867,-3.9933,-4.0134,-4.0454,-4.0468,-4.0468,-4.0468,-4.0468,-4.0468,-4.0225,-3.7299,-3.3886,-3.0164,-2.7316,-2.3787,-2.0539,-8.0431,-7.954,-7.8482,-7.7485,-7.7891,-7.843,-7.8729,-7.842,-7.7144,-7.4486,-7.3675,-7.2296,-6.9711,-6.9451,-6.9451,-6.9451,-6.9451,-6.9451,-6.9451,-6.9451,-6.9451,-6.9451,-6.9451,-6.8105,-6.5398,-6.1556,-5.7708,-5.4023,-5.4023,-5.4023,-5.4023,-5.4023,-5.4023,-5.4023,-5.4023,-5.4023,-5.4023,-5.4023,-5.4023,-5.4062,-5.4512,-5.4824,-5.5078,-5.5703,-5.6074,-5.6308,-5.6504,-5.6582,-5.6368,-5.4787,-5.2127,-4.9454,-4.7866,-4.4321,-4.0728,-4.0728,-3.9848,-3.8718,-3.8718,-3.8718,-3.8718,-3.8718,-3.8718,-3.8718,-3.8718,-3.8718,-3.8718,-3.8718,-3.8718,-3.8718,-3.8718,-3.8718,-3.8464,-3.7901,-3.7646,-3.7559,-3.7374,-3.7444,-3.7382,-3.7649,-3.787,-3.7732,-3.7715,-3.7876,-3.7875,-3.7889,-3.7942,-3.82,-3.8214,-3.8459,-3.8472,-3.8718,-3.8865,-3.8831,-3.8821,-3.9412,-3.9626,-3.9654,-3.9694,-4.0027,-4.0227,-4.0227,-4.0294,-4.0481,-4.0481,-4.0481,-4.0481,-4.0481,-3.9509,-3.7556,-3.6048,-3.2312,-2.7585,-2.5984,-2.3496,-2.0539,-8.0328,-7.952,-7.875,-7.7965,-7.834,-7.8849,-7.8998,-7.7675,-7.608,-7.4546,-7.3057,-7.1296,-6.9556,-6.9451,-6.9451,-6.9451,-6.9451,-6.9451,-6.9451,-6.9451,-6.9451,-6.9451,-6.8858,-6.6376,-6.1749,-5.9245,-5.6553,-5.4023,-5.4023,-5.4023,-5.4023,-5.4023,-5.4023,-5.4023,-5.4023,-5.4023,-5.4023,-5.4023,-5.4023,-5.4062,-5.4512,-5.4883,-5.5215,-5.5742,-5.6133,-5.6445,-5.6543,-5.6134,-5.5237,-5.2781,-4.9675,-4.6094,-4.3883,-4.1202,-3.8718,-3.8718,-3.8718,-3.8718,-3.8718,-3.8718,-3.8718,-3.8718,-3.8718,-3.8718,-3.8718,-3.8718,-3.8718,-3.8718,-3.8718,-3.8718,-3.8718,-3.8718,-3.8651,-3.8437,-3.7965,-3.7808,-3.813,-3.7745,-3.7425,-3.7942,-3.7942,-3.7942,-3.7942,-3.7942,-3.7942,-3.7942,-3.8214,-3.8459,-3.8459,-3.8472,-3.8758,-3.8825,-3.9118,-3.9189,-3.927,-3.9561,-3.9987,-4.0079,-3.996,-4.0254,-4.0481,-4.0481,-4.0481,-4.0481,-4.0481,-3.9969,-3.9227,-3.9227,-3.7274,-3.4335,-3.3505,-3.0015,-2.5533,-2.4721,-2.2747,-2.0539,-7.8834,-7.8141,-7.7883,-7.7801,-7.834,-7.8998,-7.9656,-7.8377,-7.6892,-7.5211,-7.3675,-7.1887,-6.9606,-6.9451,-6.9451,-6.9451,-6.9451,-6.9451,-6.9451,-6.9451,-6.9451,-6.9451,-6.7139,-6.4625,-6.1749,-5.9245,-5.6553,-5.4023,-5.4023,-5.4023,-5.4023,-5.4023,-5.4023,-5.4023,-5.4023,-5.4023,-5.4023,-5.4023,-5.4023,-5.4062,-5.4512,-5.4707,-5.4824,-5.5625,-5.5957,-5.6035,-5.6445,-5.4787,-5.2327,-5.2127,-4.8328,-4.3444,-4.3216,-4.1202,-3.8718,-3.8718,-3.8718,-3.8718,-3.8718,-3.8718,-3.8718,-3.8718,-3.8718,-3.8718,-3.8718,-3.8718,-3.8718,-3.8718,-3.8718,-3.8718,-3.8718,-3.8718,-3.8437,-3.7595,-3.8076,-3.8425,-3.7471,-3.8036,-3.8472,-3.8718,-3.8718,-3.8718,-3.8718,-3.8718,-3.8718,-3.8718,-3.8718,-3.8718,-3.8718,-3.8718,-3.8838,-3.9118,-3.9412,-3.9599,-3.9626,-4.0147,-4.0294,-4.0067,-4.0321,-4.0441,-4.0481,-4.0481,-4.0481,-4.0481,-4.0481,-3.874,-3.5964,-3.5964,-3.3998,-3.0522,-2.753,-2.6035,-2.5039,-2.204,-2.0786,-2.0539,-7.9134,-7.8338,-7.7921,-7.834,-7.8968,-7.9507,-7.9776,-7.7626,-7.575,-7.5158,-7.2587,-7.0273,-6.9426,-6.9451,-6.9451,-6.9451,-6.9451,-6.9451,-6.9451,-6.9451,-6.8676,-6.7139,-6.4625,-6.1941,-5.9441,-5.6732,-5.5001,-5.4023,-5.4023,-5.4023,-5.4023,-5.4023,-5.4023,-5.4023,-5.4023,-5.4023,-5.4043,-5.4316,-5.4433,-5.4473,-5.4902,-5.5234,-5.5488,-5.582,-5.6094,-5.6367,-5.6523,-5.5901,-5.4337,-5.0539,-4.7866,-4.5194,-4.1647,-3.9631,-3.8718,-3.8718,-3.8718,-3.8718,-3.8718,-3.8718,-3.8718,-3.8718,-3.8718,-3.8718,-3.8718,-3.8718,-3.8718,-3.8718,-3.8718,-3.8718,-3.8718,-3.8718,-3.8611,-3.825,-3.8504,-3.8584,-3.8358,-3.8437,-3.8718,-3.8718,-3.8718,-3.8718,-3.8718,-3.8718,-3.8718,-3.8718,-3.8718,-3.8718,-3.8718,-3.8905,-3.9118,-3.9412,-3.9706,-3.9853,-3.9853,-4.0254,-4.0401,-4.0294,-4.0441,-4.0481,-4.0481,-4.0481,-4.0481,-4.0481,-4.0481,-3.8509,-3.5556,-3.5497,-3.2333,-2.72,-2.6087,-2.4283,-2.2286,-2.1047,-2.0539,-2.0539,-7.8873,-7.8286,-7.825,-7.8699,-7.9357,-7.9573,-7.913,-7.682,-7.4939,-7.4467,-7.153,-6.9451,-6.9451,-6.9451,-6.9451,-6.9451,-6.9451,-6.9451,-6.9451,-6.9451,-6.8288,-6.5795,-6.3088,-6.0589,-5.7906,-5.5386,-5.4023,-5.4023,-5.4023,-5.4023,-5.4023,-5.4023,-5.4101,-5.4238,-5.4238,-5.4297,-5.4453,-5.4746,-5.4883,-5.4922,-5.5332,-5.5683,-5.5957,-5.6094,-5.6328,-5.6582,-5.6582,-5.592,-5.4337,-4.9437,-4.699,-4.5435,-4.031,-3.8718,-3.8718,-3.8718,-3.8718,-3.8718,-3.8718,-3.8718,-3.8718,-3.8718,-3.8718,-3.8718,-3.8718,-3.8718,-3.8718,-3.8718,-3.8718,-3.8718,-3.8718,-3.8718,-3.8718,-3.8718,-3.8718,-3.8718,-3.8718,-3.8718,-3.8718,-3.8718,-3.8718,-3.8718,-3.8718,-3.8718,-3.8718,-3.8718,-3.8718,-3.8758,-3.8865,-3.9052,-3.9332,-3.9706,-3.992,-4.0067,-4.0174,-4.0361,-4.0481,-4.0481,-4.0481,-4.0481,-4.0481,-4.0481,-4.0481,-4.0481,-4.0481,-3.802,-3.3841,-3.3998,-3.0085,-2.3944,-2.3826,-2.2547,-2.0539,-2.0539,-2.0539,-2.0539,-7.7452,-7.7891,-7.8789,-7.8789,-7.9357,-7.9249,-7.7781,-7.6121,-7.4606,-7.3024,-7.0782,-6.9451,-6.9451,-6.9451,-6.9451,-6.9451,-6.9451,-6.9451,-6.9451,-6.9451,-6.8288,-6.5608,-6.3088,-6.0589,-5.7906,-5.5386,-5.4043,-5.4043,-5.4043,-5.4043,-5.4043,-5.4043,-5.4277,-5.4687,-5.4687,-5.4922,-5.5312,-5.5312,-5.5312,-5.5351,-5.5762,-5.5937,-5.5996,-5.6426,-5.6582,-5.6582,-5.6582,-5.4571,-5.1654,-4.8772,-4.5644,-4.2746,-3.9631,-3.8718,-3.8718,-3.8718,-3.8718,-3.8718,-3.8718,-3.8718,-3.8718,-3.8718,-3.8718,-3.8718,-3.8718,-3.8718,-3.8718,-3.8718,-3.8718,-3.8718,-3.8718,-3.8718,-3.8718,-3.8718,-3.8718,-3.8718,-3.8718,-3.8718,-3.8718,-3.8718,-3.8718,-3.8718,-3.8718,-3.8718,-3.8718,-3.8718,-3.8718,-3.8865,-3.9159,-3.9159,-3.9439,-4.0,-4.0027,-4.0174,-4.0481,-4.0481,-4.0481,-4.0481,-4.0481,-4.0481,-4.0481,-4.0481,-4.0481,-4.0481,-4.0481,-3.6723,-3.0522,-3.0522,-2.6528,-2.0539,-2.0539,-2.0539,-2.0539,-2.0539,-2.0539,-2.0539,-7.7806,-7.819,-7.8938,-7.9417,-8.0075,-7.9901,-7.8388,-7.6739,-7.5071,-7.3077,-7.0782,-6.9451,-6.9451,-6.9451,-6.9451,-6.9451,-6.9451,-6.9451,-6.9451,-6.9451,-6.7507,-6.3088,-6.2133,-5.9788,-5.5643,-5.4569,-5.4316,-5.4922,-5.4316,-5.4336,-5.4922,-5.4629,-5.4707,-5.5117,-5.5117,-5.5195,-5.5332,-5.5625,-5.5742,-5.5781,-5.6211,-5.6387,-5.6406,-5.6543,-5.6582,-5.6582,-5.6582,-5.592,-5.4571,-4.9437,-4.699,-4.5403,-4.0282,-3.8718,-3.8718,-3.8718,-3.8718,-3.8718,-3.8718,-3.8718,-3.8718,-3.8718,-3.8718,-3.8718,-3.8718,-3.8718,-3.8718,-3.8718,-3.8718,-3.8718,-3.8718,-3.8718,-3.8718,-3.8718,-3.8718,-3.8718,-3.8718,-3.8718,-3.8718,-3.8718,-3.8718,-3.8718,-3.8718,-3.8718,-3.8718,-3.8718,-3.8905,-3.9159,-3.9452,-3.9666,-3.9853,-4.0027,-4.0214,-4.0401,-4.0481,-4.0481,-4.0481,-4.0481,-4.0481,-4.0481,-4.0481,-4.0481,-4.0481,-4.0481,-4.0481,-3.6723,-3.0522,-3.0522,-2.6528,-2.0539,-2.0539,-2.0539,-2.0539,-2.0539,-2.0539,-2.0539,-7.7995,-7.834,-7.8998,-7.9686,-7.9545,-7.8897,-7.7361,-7.5875,-7.3935,-7.179,-7.0273,-6.9451,-6.9451,-6.9451,-6.9451,-6.9451,-6.9451,-6.9451,-6.9451,-6.8494,-6.5981,-6.1919,-6.0783,-5.8493,-5.4874,-5.4258,-5.4453,-5.5312,-5.4629,-5.4629,-5.5293,-5.5039,-5.5156,-5.5566,-5.5566,-5.5644,-5.582,-5.6094,-5.6191,-5.6211,-5.6484,-5.6582,-5.6582,-5.6582,-5.6582,-5.6582,-5.6582,-5.5901,-5.412,-4.9198,-4.6078,-4.3429,-3.9862,-3.8718,-3.8718,-3.8718,-3.8718,-3.8718,-3.8718,-3.8718,-3.8718,-3.8718,-3.8718,-3.8718,-3.8718,-3.8718,-3.8718,-3.8718,-3.8718,-3.8718,-3.8718,-3.8718,-3.8718,-3.8718,-3.8718,-3.8718,-3.8718,-3.8718,-3.8718,-3.8718,-3.8718,-3.8718,-3.8718,-3.8718,-3.8758,-3.8905,-3.9052,-3.9332,-3.9746,-3.992,-4.0067,-4.0214,-4.0361,-4.0481,-4.0481,-4.0481,-4.0481,-4.0481,-4.0481,-4.0481,-4.0481,-4.0481,-4.0481,-4.0468,-3.8983,-3.5474,-3.0512,-2.9029,-2.5282,-2.0539,-2.0539,-2.0539,-2.0539,-2.0539,-2.0539,-2.0539,-7.8145,-7.843,-7.9088,-7.9776,-7.8645,-7.7035,-7.5349,-7.3756,-7.1939,-6.9786,-6.9451,-6.9451,-6.9451,-6.9451,-6.9451,-6.9451,-6.9451,-6.9451,-6.9451,-6.6955,-6.4437,-6.1727,-5.9245,-5.6958,-5.4668,-5.4297,-5.4512,-5.5371,-5.4941,-5.498,-5.543,-5.539,-5.5586,-5.5996,-5.5996,-5.6211,-5.6582,-5.6582,-5.6582,-5.6582,-5.6582,-5.6582,-5.6582,-5.6582,-5.6582,-5.6582,-5.6582,-5.4571,-5.1654,-4.8328,-4.3429,-3.8718,-3.8718,-3.8718,-3.8718,-3.8718,-3.8718,-3.8718,-3.8718,-3.8718,-3.8718,-3.8718,-3.8718,-3.8718,-3.8718,-3.8718,-3.8718,-3.8718,-3.8718,-3.8718,-3.8718,-3.8718,-3.8718,-3.8718,-3.8718,-3.8718,-3.8718,-3.8718,-3.8718,-3.8718,-3.8718,-3.8718,-3.8718,-3.8758,-3.8865,-3.9159,-3.9225,-3.9479,-4.0027,-4.0067,-4.0187,-4.0481,-4.0481,-4.0481,-4.0481,-4.0481,-4.0481,-4.0481,-4.0481,-4.0481,-4.0481,-4.0481,-4.0481,-4.0212,-3.6968,-3.3483,-3.0274,-2.677,-2.3542,-2.0539,-2.0539,-2.0539,-2.0539,-2.0539,-2.0539,-2.0539,-7.8603,-7.9118,-7.9806,-8.0464,-7.929,-7.7633,-7.6151,-7.4195,-7.1939,-6.9786,-6.9451,-6.9451,-6.9451,-6.9451,-6.9451,-6.9451,-6.9451,-6.9451,-6.9451,-6.6955,-6.4437,-6.1727,-5.9245,-5.6958,-5.4668,-5.459,-5.4961,-5.5801,-5.5371,-5.5566,-5.6308,-5.5957,-5.6035,-5.6445,-5.6445,-5.6504,-5.6582,-5.6582,-5.6582,-5.6582,-5.6582,-5.6582,-5.6582,-5.6582,-5.6582,-5.6582,-5.6582,-5.4571,-5.1216,-4.5869,-4.1632,-3.8718,-3.8718,-3.8718,-3.8718,-3.8718,-3.8718,-3.8718,-3.8718,-3.8718,-3.8718,-3.8718,-3.8718,-3.8718,-3.8718,-3.8718,-3.8718,-3.8718,-3.8718,-3.8718,-3.8718,-3.8718,-3.8718,-3.8718,-3.8718,-3.8718,-3.8718,-3.8718,-3.8718,-3.8718,-3.8718,-3.8718,-3.8718,-3.8945,-3.9199,-3.9493,-3.9706,-4.0,-4.0361,-4.0361,-4.0401,-4.0481,-4.0481,-4.0481,-4.0481,-4.0481,-4.0481,-4.0481,-4.0481,-4.0481,-4.0481,-4.0481,-4.0481,-4.0212,-3.6968,-3.3483,-3.0274,-2.677,-2.3542,-2.0539,-2.0539,-2.0539,-2.0539,-2.0539,-2.0539,-2.0539,-7.9148,-7.9567,-8.0135,-8.1093,-7.8746,-7.6683,-7.6179,-7.3276,-7.0782,-6.9606,-6.9451,-6.9451,-6.9451,-6.9451,-6.9451,-6.9451,-6.9451,-6.9451,-6.9451,-6.5795,-6.3088,-6.1749,-5.8084,-5.5486,-5.4375,-5.4765,-5.5293,-5.5937,-5.5703,-5.5937,-5.6582,-5.6348,-5.6367,-5.6582,-5.6582,-5.6582,-5.6582,-5.6582,-5.6582,-5.6582,-5.6582,-5.6582,-5.6582,-5.6582,-5.6582,-5.6582,-5.6582,-5.3669,-4.8977,-4.2988,-4.0079,-3.8718,-3.8718,-3.8718,-3.8718,-3.8718,-3.8718,-3.8718,-3.8718,-3.8718,-3.8718,-3.8718,-3.8718,-3.8718,-3.8718,-3.8718,-3.8718,-3.8718,-3.8718,-3.8718,-3.8718,-3.8718,-3.8718,-3.8718,-3.8718,-3.8718,-3.8718,-3.8718,-3.8718,-3.8718,-3.8718,-3.8798,-3.8905,-3.9078,-3.9332,-3.9773,-3.996,-4.0174,-4.0468,-4.0481,-4.0481,-4.0481,-4.0481,-4.0481,-4.0481,-4.0481,-4.0481,-4.0481,-4.0481,-4.0481,-4.0481,-4.0481,-3.9561,-3.7925,-3.4673,-3.1423,-2.7927,-2.4673,-2.2121,-2.0539,-2.0539,-2.0539,-2.0539,-2.0539,-2.0539,-2.0539,-7.9686,-7.9896,-8.0197,-8.1062,-7.7906,-7.5352,-7.5515,-7.2114,-6.9451,-6.9451,-6.9451,-6.9451,-6.9451,-6.9451,-6.9451,-6.9451,-6.9451,-6.9451,-6.9451,-6.4625,-6.1556,-6.1364,-5.6532,-5.4023,-5.4023,-5.4805,-5.541,-5.582,-5.5976,-5.623,-5.6582,-5.6582,-5.6582,-5.6582,-5.6582,-5.6582,-5.6582,-5.6582,-5.6582,-5.6582,-5.6582,-5.6582,-5.6582,-5.6582,-5.6582,-5.6582,-5.592,-5.189,-4.611,-4.0498,-3.8718,-3.8718,-3.8718,-3.8718,-3.8718,-3.8718,-3.8718,-3.8718,-3.8718,-3.8718,-3.8718,-3.8718,-3.8718,-3.8718,-3.8718,-3.8718,-3.8718,-3.8718,-3.8718,-3.8718,-3.8718,-3.8718,-3.8718,-3.8718,-3.8758,-3.8798,-3.8731,-3.8758,-3.8798,-3.8731,-3.8758,-3.8905,-3.9199,-3.9265,-3.9519,-4.0,-4.0067,-4.0214,-4.0481,-4.0481,-4.0481,-4.0481,-4.0481,-4.0481,-4.0481,-4.0481,-4.0481,-4.0481,-4.0481,-4.0481,-4.0468,-4.0022,-3.8158,-3.5376,-3.1588,-2.8337,-2.5583,-2.2266,-2.0668,-2.0539,-2.0539,-2.0539,-2.0539,-2.0539,-2.0539,-2.0539,-7.9686,-8.0285,-8.0229,-7.9143,-7.7259,-7.5348,-7.3593,-7.1111,-6.9451,-6.9451,-6.9451,-6.9451,-6.9451,-6.9451,-6.9451,-6.9451,-6.9451,-6.9451,-6.9451,-6.4625,-6.0977,-5.9637,-5.5971,-5.4023,-5.4023,-5.4512,-5.498,-5.539,-5.6133,-5.6523,-5.6582,-5.6582,-5.6582,-5.6582,-5.6582,-5.6582,-5.6582,-5.6582,-5.6582,-5.6582,-5.6582,-5.6582,-5.6582,-5.6582,-5.6582,-5.6348,-5.3669,-4.8977,-4.3216,-3.9862,-3.8718,-3.8718,-3.8718,-3.8718,-3.8718,-3.8718,-3.8718,-3.8718,-3.8718,-3.8718,-3.8718,-3.8718,-3.8718,-3.8718,-3.8718,-3.8718,-3.8718,-3.8718,-3.8718,-3.8718,-3.8718,-3.8718,-3.8718,-3.8718,-3.8945,-3.9012,-3.8758,-3.8945,-3.9012,-3.8758,-3.8945,-3.9225,-3.9519,-3.9773,-3.996,-4.0027,-4.0254,-4.0441,-4.0481,-4.0481,-4.0481,-4.0481,-4.0481,-4.0481,-4.0481,-4.0481,-4.0481,-4.0481,-4.0481,-4.0481,-4.0495,-3.7729,-3.6098,-3.5365,-2.9094,-2.6328,-2.5558,-2.1881,-2.056,-2.0539,-2.0539,-2.0539,-2.0539,-2.0539,-2.0539,-2.0539,-8.0225,-8.0883,-8.0882,-7.9197,-7.7407,-7.5262,-7.3103,-7.0782,-6.9451,-6.9451,-6.9451,-6.9451,-6.9451,-6.9451,-6.9451,-6.9451,-6.9451,-6.8858,-6.7323,-6.3847,-6.0783,-5.8479,-5.5588,-5.4141,-5.4394,-5.4805,-5.5234,-5.5664,-5.6035,-5.6348,-5.6582,-5.6582,-5.6582,-5.6582,-5.6582,-5.6582,-5.6582,-5.6582,-5.6582,-5.6582,-5.6582,-5.6582,-5.6582,-5.6582,-5.5471,-5.3452,-4.8789,-4.5419,-4.2746,-3.9603,-3.8718,-3.8718,-3.8718,-3.8718,-3.8718,-3.8718,-3.8718,-3.8718,-3.8718,-3.8718,-3.8718,-3.8718,-3.8718,-3.8718,-3.8718,-3.8718,-3.8718,-3.8718,-3.8718,-3.8718,-3.8718,-3.8718,-3.8758,-3.8945,-3.8945,-3.8945,-3.8972,-3.9078,-3.9159,-3.9199,-3.9346,-3.9519,-3.9813,-3.996,-4.0107,-4.0254,-4.0401,-4.0481,-4.0481,-4.0481,-4.0481,-4.0481,-4.0481,-4.0481,-4.0481,-4.0481,-4.0481,-4.0481,-4.0481,-4.0481,-4.0495,-3.7249,-3.4675,-3.2814,-2.8114,-2.4798,-2.2942,-2.1339,-2.0702,-2.0539,-2.0539,-2.0539,-2.0539,-2.0539,-2.0539,-2.0539]}]]